GFSGBSN_250_rhum_000.txt.gz
RH
12 12 14 20 29 39 70 83 64 40 14 14 20 64 100 100 100 100 100 100 100 100 100 100 100 96 61 50 54 65 68 50 51 51 47 55 41 34 30 27 29 28 31 32 32 22 22
11 12 13 18 27 40 64 89 65 54 22 19 30 56 100 100 100 100 100 100 100 100 100 100 100 85 71 58 53 59 79 73 53 56 48 42 46 40 37 35 32 30 28 25 29 30 22
10 12 12 17 27 44 57 92 76 65 33 24 46 58 90 100 100 100 100 100 100 100 100 100 100 100 77 66 80 87 87 80 85 62 65 44 40 40 42 40 37 33 27 24 23 28 27
10 12 14 17 25 48 70 84 89 67 77 32 36 69 88 97 100 100 100 100 100 100 100 100 100 100 100 98 78 60 85 87 74 79 72 49 45 41 49 48 40 33 25 27 30 28 29
12 14 15 18 27 40 68 82 98 84 76 90 52 46 78 100 100 100 100 100 100 100 100 100 100 100 100 88 66 74 76 91 70 71 66 65 54 48 48 45 44 39 31 34 40 40 35
14 16 24 28 32 44 59 73 87 99 85 90 91 84 47 74 93 100 100 100 100 100 100 100 100 99 100 100 100 74 72 91 87 79 90 77 52 51 54 64 78 50 38 45 54 70 43
17 24 40 46 48 48 57 68 80 86 99 88 88 93 96 69 51 80 100 100 100 100 100 100 100 100 100 100 100 100 99 97 83 81 80 64 56 69 73 66 63 58 36 45 62 69 59
26 32 35 44 50 55 62 70 71 76 90 89 95 90 89 93 99 88 69 67 79 99 100 100 100 100 100 100 100 100 96 97 83 81 84 73 51 64 61 60 73 76 46 54 71 76 72
42 48 50 47 46 63 56 61 71 82 74 76 92 96 92 77 84 93 84 89 84 76 68 78 83 100 100 100 100 99 74 80 82 70 66 54 64 79 62 60 71 78 57 67 73 73 62
42 44 41 42 44 41 44 57 54 62 76 80 79 87 93 92 92 88 90 86 72 76 70 91 99 93 89 69 86 92 83 74 72 73 59 50 94 82 58 55 72 76 66 82 94 93 53
31 30 30 31 33 36 36 40 40 46 49 76 67 76 87 99 98 95 86 85 87 89 70 93 100 95 89 75 67 79 69 65 74 62 49 53 65 57 51 76 75 69 64 66 67 71 63
25 20 16 13 12 12 16 22 35 45 42 51 57 67 81 89 98 77 73 78 79 71 78 100 98 90 82 73 70 63 59 61 60 48 45 49 49 51 50 66 57 51 55 46 53 58 47
15 10 7 6 5 5 5 7 11 27 46 54 49 68 69 78 84 79 87 76 71 73 95 96 87 77 71 64 65 73 65 62 57 50 41 40 40 40 38 38 36 40 54 50 50 48 32
9 6 4 4 4 4 4 6 7 9 25 32 53 56 68 75 73 79 76 91 79 97 91 86 80 63 55 59 79 62 55 48 40 32 27 24 22 20 22 20 20 25 30 25 21 25 39
6 4 3 3 2 3 3 4 5 8 10 14 27 31 68 79 72 69 64 78 87 95 76 94 62 49 73 78 68 51 37 32 24 21 15 9 7 8 8 7 7 10 9 18 18 20 29
4 4 3 2 2 2 2 3 4 6 10 10 18 27 40 74 72 69 64 87 89 80 92 74 58 86 76 70 50 33 28 21 14 8 8 8 8 7 6 6 7 8 12 10 19 24 34
4 3 2 2 2 2 2 3 3 5 5 9 13 24 21 38 54 49 73 69 82 82 80 74 85 75 88 52 43 31 16 10 6 6 6 6 5 4 4 3 4 7 13 23 29 51 75
4 3 2 2 2 2 3 3 3 4 5 10 12 13 10 17 48 57 70 69 72 83 96 94 82 100 65 60 48 23 16 12 8 8 6 10 12 12 11 11 12 13 21 62 91 89 100
4 3 2 2 2 2 3 4 4 6 10 12 11 15 15 22 39 62 49 64 78 98 99 91 100 80 66 83 93 65 41 26 22 38 40 28 27 50 60 62 64 37 48 70 99 100 100
4 3 2 2 2 2 4 4 5 6 9 14 13 12 22 28 38 40 52 76 96 91 100 100 99 83 99 100 89 100 100 100 100 83 92 94 94 100 100 100 100 100 100 100 100 100 100
4 3 2 2 2 4 4 6 7 8 9 10 10 24 30 50 52 45 72 95 84 97 100 100 100 100 100 100 90 93 100 100 100 100 100 100 100 100 100 100 100 100 100 100 100 100 100
4 3 2 2 3 4 5 5 7 8 8 11 17 30 40 31 31 69 96 76 92 100 100 96 99 94 100 100 93 95 82 100 100 100 100 100 100 100 100 100 100 100 100 100 100 100 100
4 3 2 2 4 5 5 6 7 7 8 12 25 28 24 33 58 85 72 97 100 100 100 100 91 77 100 100 100 88 87 100 100 100 100 100 100 100 100 100 100 100 100 100 100 76 84
4 3 3 3 4 5 6 7 8 8 13 19 26 22 26 44 74 64 90 100 100 100 98 100 97 77 100 100 100 91 100 87 88 100 100 100 100 100 100 100 100 100 100 100 100 100 63
4 3 3 3 5 5 6 7 10 12 14 16 20 25 44 75 56 78 99 100 96 100 99 100 98 78 97 100 100 100 85 82 73 98 96 100 100 100 100 100 100 100 100 100 100 98 53
4 3 3 3 4 6 6 8 10 10 12 15 24 33 55 62 69 96 100 100 98 100 100 100 100 74 86 97 100 100 100 86 93 80 79 77 88 99 98 82 82 94 67 50 43 46 54
4 3 3 3 3 6 7 8 10 13 14 19 27 47 71 72 87 95 100 100 97 100 98 100 100 100 99 80 86 100 100 96 93 85 80 67 60 78 84 73 45 51 53 42 48 36 34
4 3 4 4 3 6 8 10 10 13 16 22 31 57 52 73 82 98 100 100 100 100 100 100 99 100 97 98 95 81 67 67 61 77 65 84 72 67 88 70 60 49 41 46 52 51 44
4 3 3 4 4 5 8 8 10 14 22 25 45 56 56 76 76 100 100 100 100 100 100 100 95 100 96 78 74 80 70 54 52 69 77 82 93 86 70 69 68 60 52 48 44 40 35

GFSGBSN_250_rhum_003.txt.gz
RH
7 8 8 9 10 12 12 13 15 28 44 69 86 63 62 42 25 19 31 83 100 100 100 100 100 100 100 100 100 100 96 55 55 53 50 44 44 47 51 44 41 36 30 25 25 25 25
8 8 8 9 10 11 12 13 14 26 48 77 89 77 52 22 14 10 54 100 100 100 100 100 100 100 100 100 100 100 100 78 62 60 71 65 55 46 56 57 45 39 38 30 28 31 28
9 9 9 9 9 11 12 13 15 28 56 77 98 84 52 20 14 22 77 100 100 100 100 100 100 100 100 100 100 100 100 100 85 76 70 81 71 53 43 52 48 38 37 34 29 32 30
8 8 8 9 10 12 14 15 20 25 56 85 100 97 62 26 20 52 98 100 100 100 100 100 100 100 100 100 100 100 100 100 100 83 86 64 65 55 52 45 40 39 36 36 40 33 30
8 10 11 12 13 14 19 20 22 36 47 79 100 100 84 47 28 56 98 100 100 100 100 100 100 100 100 100 100 100 100 100 85 96 96 65 73 60 57 52 39 48 46 42 38 32 30
9 16 25 28 30 28 33 37 34 35 66 68 100 100 100 68 38 48 81 96 100 100 100 100 100 100 100 100 100 100 100 100 100 98 100 71 63 65 70 89 64 45 40 44 43 42 38
13 26 30 32 45 49 44 49 60 46 53 79 84 100 100 100 78 44 70 92 98 100 100 100 100 100 100 100 100 94 85 81 99 100 100 88 66 74 74 61 59 44 46 44 46 48 46
15 29 35 46 41 39 51 48 47 62 66 72 76 94 100 100 100 83 63 78 93 91 100 98 96 100 100 100 96 95 90 86 84 97 87 71 85 94 83 72 68 57 52 46 50 54 52
17 30 38 44 49 53 48 43 52 46 56 76 69 75 95 100 100 100 93 84 59 74 89 98 93 95 89 100 81 86 100 99 100 92 92 79 89 92 92 73 56 56 54 49 49 58 49
13 20 25 29 31 34 37 43 43 44 48 54 74 80 80 92 98 100 100 90 84 89 71 71 60 62 63 81 83 92 92 82 70 70 68 66 100 78 68 73 49 58 51 46 41 49 45
11 20 21 21 19 15 14 18 23 31 38 41 47 73 86 85 100 100 95 94 95 93 78 90 94 96 97 87 82 84 83 81 74 63 60 66 60 48 47 84 58 52 63 44 42 45 44
9 16 14 7 6 5 6 6 9 14 20 32 40 53 81 82 100 100 92 100 100 86 82 91 100 98 96 94 94 91 84 78 74 60 53 56 52 50 46 49 45 49 58 50 46 46 30
8 11 7 4 4 4 4 4 5 6 9 19 28 42 56 90 100 100 96 100 97 98 100 99 94 98 100 95 85 90 94 85 66 43 35 26 24 26 28 33 38 45 53 49 42 35 25
8 8 4 4 3 3 3 3 3 5 6 10 16 38 50 89 82 98 100 100 100 100 100 100 95 98 100 94 100 98 92 66 33 22 20 23 28 26 30 29 31 30 34 30 30 28 32
9 5 3 3 2 2 2 2 2 3 5 6 10 28 52 50 59 87 93 100 100 100 100 100 100 100 90 95 100 90 57 34 38 40 32 24 23 26 27 27 25 27 27 41 32 24 27
8 4 3 2 2 2 2 2 2 3 4 6 8 15 37 34 50 84 90 88 99 93 97 100 100 95 92 100 89 62 48 46 31 16 11 10 10 11 13 13 16 16 15 13 12 13 11
8 4 3 2 2 2 2 2 2 3 3 5 7 9 15 26 52 86 91 95 89 83 93 100 100 100 100 84 76 57 49 38 50 24 10 6 4 4 5 5 6 6 7 9 9 10 10
7 4 3 2 2 2 2 2 3 3 4 4 7 9 11 10 28 86 100 89 75 91 93 100 100 100 87 78 71 55 70 87 50 32 14 8 7 8 6 6 4 3 5 8 9 10 11
6 4 3 2 2 2 2 2 3 4 5 6 8 11 12 18 31 86 90 73 88 90 99 100 100 90 79 80 74 86 100 76 93 61 38 34 25 19 11 7 10 6 6 7 10 11 14
6 4 3 2 2 2 3 3 4 5 7 9 9 9 9 15 16 24 34 67 75 88 100 100 96 77 89 79 80 100 100 95 99 88 95 81 71 64 68 90 97 33 18 19 25 32 48
5 5 3 3 2 3 4 4 4 6 7 8 9 12 21 39 43 40 40 56 62 88 100 97 79 99 89 100 100 100 97 100 100 100 100 100 100 100 100 100 100 100 73 44 64 90 93
5 5 3 3 2 3 4 6 5 5 6 7 13 20 23 24 23 28 45 52 80 100 97 88 81 100 100 100 100 100 100 100 100 100 100 100 100 100 100 100 100 100 100 100 98 100 100
5 6 4 3 2 3 4 5 5 6 6 8 17 20 19 22 28 33 47 67 93 88 93 76 93 99 100 99 100 100 72 98 100 98 100 100 100 100 100 100 100 100 100 100 100 100 100
5 5 4 3 3 3 5 5 7 7 8 11 14 14 19 24 38 39 55 79 83 80 68 96 100 100 100 100 100 99 79 67 98 100 100 100 100 100 100 100 100 100 77 100 99 100 100
6 5 4 3 3 3 5 6 8 10 11 14 14 16 22 31 35 55 77 81 84 73 85 96 100 100 100 100 100 100 86 70 77 98 100 97 100 100 100 100 100 94 99 100 100 96 100
6 6 4 3 4 3 5 6 8 10 16 14 17 22 29 37 53 69 86 82 74 77 81 84 99 92 99 100 100 94 100 87 77 70 87 97 95 93 100 100 100 100 100 97 100 100 79
6 6 4 3 4 3 5 6 9 12 14 15 17 23 33 41 57 93 91 73 84 96 74 74 99 86 71 100 100 100 100 100 92 79 72 69 85 93 77 82 100 100 100 100 98 74 65
6 6 4 3 4 3 5 7 9 11 13 15 21 24 30 44 79 93 81 81 93 94 92 83 91 99 77 69 100 100 93 100 100 94 92 78 83 77 70 79 84 74 72 73 69 63 65
6 6 4 4 4 4 5 6 9 11 13 15 18 20 28 52 81 78 80 89 97 88 92 94 98 100 99 100 83 73 62 74 99 100 98 97 87 93 84 78 80 88 86 77 69 60 66

GFSGBSN_250_rhum_006.txt.gz
RH
6 7 7 7 8 9 10 11 12 14 16 15 14 16 19 26 34 43 78 92 94 93 89 82 86 87 94 100 100 100 98 82 79 77 90 82 68 45 44 40 40 38 36 34 42 38 28
7 7 8 7 7 8 9 10 10 13 14 14 13 17 22 30 42 56 91 98 88 79 71 73 75 81 97 100 100 100 100 92 78 78 100 100 90 68 53 44 42 42 47 49 38 44 42
10 10 8 8 8 10 10 12 12 12 14 15 14 16 29 45 69 85 97 94 81 70 68 74 83 91 100 100 100 100 100 100 86 77 100 100 100 81 62 62 58 47 39 45 53 46 40
9 10 10 11 11 14 18 16 18 18 18 18 17 22 39 57 88 84 88 76 53 42 51 70 89 100 100 100 100 100 100 100 100 86 100 100 100 100 87 78 72 49 45 43 46 45 41
9 10 10 13 22 28 26 29 26 28 29 27 24 25 42 57 92 99 84 74 30 15 14 37 84 100 100 100 100 100 100 100 100 98 90 96 97 99 100 99 82 72 56 53 44 44 41
11 12 10 11 20 28 40 33 34 38 41 51 39 33 43 71 87 98 87 76 29 15 23 59 100 100 100 100 100 100 100 100 100 100 100 100 98 100 100 97 84 84 59 50 49 51 44
11 12 13 24 34 45 38 39 47 37 48 54 66 55 44 76 83 100 99 82 36 19 52 77 100 100 100 100 100 100 100 100 100 100 100 100 100 100 100 100 83 75 71 56 61 54 54
10 12 12 24 34 39 43 52 37 43 39 53 63 81 68 62 76 100 100 100 59 32 56 79 100 100 100 100 100 100 100 100 100 100 100 100 100 100 100 99 86 69 61 50 52 52 50
9 10 10 13 25 28 28 26 34 39 36 37 48 68 84 79 71 96 100 100 84 48 55 85 100 100 100 100 100 100 100 100 100 100 94 70 70 85 73 57 54 67 74 78 63 56 49
8 9 9 12 16 15 10 8 9 18 28 31 36 46 75 88 82 76 99 100 96 86 52 62 94 93 90 92 87 85 76 75 83 86 83 83 96 66 55 50 56 65 84 76 65 59 54
7 8 7 10 11 6 5 5 5 5 8 18 26 36 48 74 76 99 96 100 100 99 79 68 58 82 94 100 98 99 91 85 76 70 62 58 63 64 53 66 58 55 62 62 72 64 56
7 7 6 9 6 4 4 4 4 4 5 7 11 26 36 48 74 98 84 80 100 97 90 97 91 87 88 85 84 88 91 88 85 81 82 84 67 59 63 61 49 44 49 48 48 46 30
7 6 5 8 4 3 2 2 2 2 3 4 7 13 28 39 59 95 96 92 87 87 100 100 100 100 98 97 99 99 100 95 92 96 96 90 86 65 58 55 45 36 35 28 24 22 13
7 6 5 7 4 3 2 2 2 2 2 4 6 8 15 39 52 77 90 85 87 100 100 100 100 100 100 100 100 100 100 99 88 85 85 70 46 38 31 23 19 17 16 14 15 14 13
7 6 6 5 4 2 2 2 2 2 2 3 4 7 10 30 46 77 84 93 100 100 100 100 100 100 100 100 100 100 100 98 95 79 59 43 27 23 23 20 16 11 15 22 15 14 13
8 6 7 5 4 2 2 2 2 2 3 3 4 6 8 34 39 69 78 98 100 100 100 100 100 100 100 100 100 100 87 91 70 55 44 36 25 7 10 8 5 5 8 11 11 13 13
7 6 8 5 4 2 2 2 2 3 3 3 4 6 10 20 41 57 76 100 100 100 100 100 100 100 100 100 100 100 96 66 60 48 51 44 31 20 6 4 3 4 4 4 5 7 9
7 6 8 5 4 2 2 2 2 4 3 3 4 7 11 22 31 42 78 98 97 94 96 100 100 100 100 100 100 87 67 64 83 100 100 100 74 42 27 10 6 4 3 4 5 5 4
8 6 8 5 3 2 2 3 2 4 3 3 5 7 9 16 28 36 66 99 98 100 100 100 100 100 100 100 87 71 80 100 100 100 100 100 82 44 29 19 11 5 4 4 5 7 8
8 6 8 5 3 2 2 3 3 4 4 4 6 8 9 11 16 28 62 98 100 100 100 100 100 100 100 100 75 74 100 100 100 100 100 96 67 51 33 40 24 14 21 16 9 10 10
9 6 8 6 3 3 3 4 4 5 4 4 7 11 13 13 17 24 50 76 87 95 100 100 100 100 100 86 69 100 98 100 100 100 100 84 94 92 82 96 98 74 75 62 31 20 15
10 7 8 6 4 3 3 4 4 5 5 6 8 12 17 17 22 34 49 68 96 96 100 100 100 100 97 73 88 100 97 100 100 98 91 100 92 100 100 100 100 96 78 88 60 40 42
10 8 7 6 4 3 3 4 5 6 7 7 9 11 12 14 19 30 45 65 96 99 100 100 100 100 86 68 94 98 100 95 83 74 85 100 77 100 100 100 100 100 100 97 98 96 98
11 8 10 7 4 3 3 4 6 8 9 9 9 9 13 20 20 20 26 38 63 77 96 100 99 86 75 89 80 86 100 81 85 79 88 100 94 98 93 100 100 100 100 100 100 100 100
12 9 14 8 5 4 4 4 6 9 12 12 10 12 16 18 16 22 30 34 35 42 68 96 79 90 82 85 90 83 100 78 85 78 95 100 79 100 99 98 100 88 99 93 100 100 100
12 10 16 10 6 4 4 5 6 8 10 11 14 16 15 20 25 26 36 44 41 64 79 69 92 85 88 99 93 100 89 89 81 69 100 100 100 100 100 100 100 100 100 97 89 98 83
12 9 15 13 7 4 4 5 6 8 11 13 17 22 26 28 31 33 45 52 51 62 71 90 77 98 91 100 91 96 100 100 92 78 73 86 100 100 100 100 100 100 100 100 100 100 95
12 9 14 14 7 5 5 5 6 8 11 12 19 23 24 29 30 40 41 54 65 76 86 84 82 96 100 100 92 91 100 100 100 89 78 79 76 92 98 100 100 100 100 100 100 100 98
11 9 14 13 7 5 5 5 6 7 10 14 19 24 29 27 30 37 50 65 74 74 92 99 100 100 98 94 98 66 79 84 100 96 97 95 80 87 87 95 96 100 100 100 100 100 100

GFSGBSN_250_rhum_012.txt.gz
RH
9 9 6 8 9 10 10 8 8 9 9 10 14 15 13 16 19 25 41 53 73 71 85 82 68 66 70 84 85 78 76 99 100 100 100 97 99 92 78 56 64 67 66 53 62 58 40
9 8 8 7 8 10 10 10 10 11 13 14 15 18 20 17 22 28 33 40 65 70 80 86 65 72 79 98 97 86 77 88 98 100 100 100 100 97 91 75 65 62 71 60 64 87 85
9 9 7 7 8 10 11 11 15 20 21 21 24 29 29 26 24 30 42 44 55 54 56 53 50 39 42 46 88 97 85 86 84 98 100 100 100 100 100 99 88 75 59 65 67 72 98
9 9 8 7 9 10 11 11 15 23 27 29 33 35 39 42 36 26 22 27 35 51 54 52 44 32 21 33 59 100 95 89 90 93 100 100 100 100 100 100 98 80 77 54 59 63 78
9 9 8 7 9 11 11 12 16 24 29 30 28 32 44 40 47 39 27 20 20 26 35 44 58 25 26 31 56 100 100 98 96 93 90 99 100 100 100 100 100 100 89 83 87 62 62
9 8 7 7 8 11 11 14 18 26 28 19 18 17 31 42 43 49 39 21 16 22 28 52 43 24 37 39 63 100 100 100 100 100 97 88 95 100 100 100 100 100 93 73 72 94 72
9 8 7 7 7 9 8 11 12 9 7 6 6 7 10 32 42 44 41 27 21 26 46 50 32 32 48 50 68 99 100 100 100 100 100 93 99 100 98 95 98 99 100 94 87 85 83
9 8 7 6 6 7 7 8 5 4 4 4 4 5 6 11 31 38 33 32 38 30 32 34 38 55 65 71 92 100 100 100 100 100 100 100 100 100 100 100 100 100 100 100 94 90 84
8 8 7 6 6 6 6 5 3 2 2 2 2 3 4 7 18 36 36 72 48 38 34 50 53 69 83 96 100 100 100 100 100 100 98 98 100 100 100 100 100 96 92 88 77 66 70
8 8 6 6 5 6 6 3 2 2 1 1 2 2 3 6 12 27 48 84 63 43 41 66 74 97 100 100 100 100 100 100 100 100 100 100 100 100 100 100 96 90 94 82 83 96 89
8 8 6 6 5 6 5 2 2 1 2 2 2 2 3 5 8 24 51 74 68 43 43 66 81 99 100 96 100 100 100 100 100 100 100 100 93 95 99 100 100 100 100 100 100 97 77
8 7 6 6 6 6 4 2 2 2 2 2 2 2 3 5 8 28 57 72 59 37 32 53 90 98 100 99 95 82 62 45 52 65 93 98 100 98 93 91 99 95 85 84 82 74 46
8 7 6 6 6 5 4 2 2 2 2 2 2 2 3 6 9 26 51 49 43 41 64 86 99 100 100 91 63 40 30 41 37 47 71 65 73 86 94 86 76 74 73 57 49 52 49
7 7 5 6 6 6 4 2 2 2 2 2 2 2 3 5 10 20 42 39 45 55 58 94 100 99 96 70 45 42 49 60 76 64 70 81 94 96 96 87 75 65 65 72 55 45 39
7 7 5 6 6 6 4 2 2 2 3 3 2 2 3 5 10 17 38 33 59 74 88 100 100 100 89 64 49 54 80 78 75 93 99 100 100 96 94 84 83 69 58 53 46 42 28
8 7 4 6 7 6 4 2 2 3 3 3 2 3 3 5 8 24 39 42 76 90 90 100 99 86 80 65 66 72 83 91 88 89 91 96 100 100 90 72 58 56 51 42 37 26 22
8 7 4 5 6 6 4 2 2 3 3 3 3 3 3 6 10 32 42 54 88 86 87 100 100 82 79 88 94 100 100 97 100 100 100 100 93 83 64 58 55 61 81 55 39 20 5
9 7 5 5 6 5 5 2 2 3 3 2 2 3 5 7 10 29 48 69 91 93 100 100 99 96 90 100 94 89 100 100 99 100 95 91 62 55 62 68 78 77 58 42 32 22 10
9 7 6 5 6 6 6 3 2 3 4 3 3 4 6 9 14 42 62 69 100 97 97 99 98 100 100 100 91 93 98 97 100 91 74 61 65 75 80 78 74 84 86 44 23 18 11
9 8 6 5 6 7 8 4 2 3 4 4 4 6 7 11 17 55 67 91 100 92 100 95 100 100 100 99 97 100 100 97 94 73 70 80 93 86 77 72 94 96 94 82 40 24 16
9 8 7 6 6 8 9 5 3 3 5 5 5 5 8 11 19 37 61 100 84 87 95 97 97 100 100 100 99 100 100 94 78 81 79 82 92 73 76 89 97 91 95 90 82 45 22
9 8 8 7 6 8 8 7 4 4 5 7 7 7 9 12 21 50 69 93 79 92 99 97 100 100 100 100 99 100 100 76 84 74 96 88 85 86 100 88 98 100 100 93 94 83 57
10 9 9 8 7 8 8 10 4 5 7 7 8 8 9 13 22 32 62 90 96 96 100 100 100 100 100 100 100 100 86 83 83 98 100 97 83 100 89 74 98 97 100 100 73 77 88
10 9 10 10 8 8 9 14 6 5 6 10 9 10 10 12 17 36 58 69 92 100 100 100 100 100 100 97 100 96 88 79 78 89 81 94 78 95 90 100 100 100 100 100 100 87 75
11 11 11 12 10 9 10 16 10 5 6 8 10 11 12 12 18 24 41 72 79 100 100 100 100 100 100 100 100 89 82 69 72 85 78 94 73 70 70 94 88 88 100 100 100 100 100
12 12 11 15 12 10 11 11 19 8 7 6 11 11 13 14 14 20 34 52 70 97 100 100 100 100 100 100 100 91 80 76 84 90 82 99 71 69 86 66 74 100 100 99 100 100 100
12 14 12 16 15 11 12 11 21 13 8 8 9 13 14 16 15 17 25 43 66 82 97 100 100 100 100 96 98 89 77 66 73 76 82 94 72 73 84 100 100 100 100 100 100 99 100
11 14 14 16 17 13 12 12 22 16 10 9 8 12 13 15 18 18 25 34 53 70 96 100 100 100 100 98 88 83 73 70 58 64 89 99 88 100 98 99 100 100 94 91 100 85 100
12 15 14 16 16 14 14 11 25 19 11 9 8 10 14 16 21 21 23 35 46 63 88 97 100 99 100 94 89 79 70 76 77 68 80 100 98 97 100 100 100 100 100 96 98 97 100

GFSGBSN_250_rhum_015.txt.gz
RH
10 9 9 8 8 8 7 8 10 10 9 7 8 9 11 12 14 17 17 23 36 64 77 100 99 100 100 94 96 94 74 68 70 95 100 100 100 100 100 100 100 81 78 67 62 56 51
11 11 9 8 9 8 8 9 10 10 11 12 10 10 14 14 14 14 17 17 22 34 46 75 100 100 100 100 98 89 98 77 70 71 87 100 100 100 100 100 100 91 78 64 61 63 55
11 12 10 9 10 8 7 8 10 11 12 14 19 18 17 18 17 20 19 17 19 28 35 50 77 100 100 95 100 87 97 100 89 73 75 91 100 100 100 100 100 89 81 74 66 59 64
9 12 11 9 9 8 8 10 11 11 15 17 19 24 26 23 24 21 24 22 18 27 34 45 66 96 100 100 100 100 94 85 97 97 84 79 99 100 96 97 100 94 91 82 89 61 63
10 11 11 8 9 8 7 8 8 10 16 19 17 16 22 32 30 31 27 29 27 22 32 44 60 84 99 100 100 97 95 86 88 87 100 98 86 99 100 100 100 97 100 97 93 79 74
11 11 11 8 8 8 6 6 6 8 8 7 7 7 7 13 32 39 39 40 39 29 23 33 58 71 98 100 99 88 73 73 81 88 100 100 99 92 98 100 100 100 100 100 100 100 99
11 10 11 8 8 7 5 4 5 6 4 2 2 3 4 5 9 30 49 50 28 26 27 45 53 49 77 89 99 95 75 78 67 57 75 98 100 100 91 100 100 100 100 100 100 100 91
11 10 11 8 7 6 5 4 6 5 2 2 2 2 2 3 5 11 38 50 39 61 94 50 33 30 56 59 70 80 81 55 39 30 49 99 100 100 100 95 99 100 100 100 100 100 97
11 10 10 8 8 6 5 4 5 3 2 2 3 2 2 2 4 7 21 47 59 75 74 55 27 23 32 41 48 51 53 37 30 33 66 96 100 100 100 97 92 90 87 90 88 93 99
12 10 10 8 7 6 4 4 5 2 2 2 2 2 2 2 3 6 11 34 63 68 80 66 36 26 33 36 41 41 40 39 46 56 83 100 100 100 100 100 99 97 95 88 84 86 92
12 10 9 8 7 6 4 5 4 2 2 2 2 2 2 2 3 5 9 29 60 69 69 61 41 34 32 37 56 51 58 63 67 81 88 100 100 100 100 100 100 100 99 90 90 86 80
13 10 8 7 7 5 4 5 3 2 2 2 2 2 2 2 3 5 9 24 50 52 48 47 37 43 52 68 70 85 89 93 94 92 95 100 100 100 100 100 100 100 99 100 96 90 82
13 10 8 7 6 5 4 5 3 2 2 2 2 2 2 3 3 6 10 29 38 35 51 48 39 60 75 90 94 100 100 100 100 100 100 100 100 100 100 100 100 100 100 95 90 92 91
13 10 8 7 6 5 5 5 2 2 2 2 2 2 2 3 4 6 10 20 29 41 50 65 66 71 90 96 98 100 100 100 100 100 100 100 100 100 100 100 100 100 100 97 79 75 56
12 9 8 7 5 4 4 5 2 2 2 2 2 2 2 3 5 8 10 20 38 62 86 74 76 99 100 100 100 100 100 95 91 89 86 79 74 78 83 83 74 63 46 47 50 59 56
11 10 8 7 6 5 4 5 2 2 2 2 2 2 3 4 6 9 14 27 63 88 81 68 77 96 99 100 95 99 95 86 66 50 40 49 58 75 88 62 53 67 82 94 96 75 56
10 10 8 8 6 6 5 7 2 3 3 3 2 2 3 5 7 10 23 56 85 83 86 79 91 99 97 98 93 86 64 50 56 66 76 81 93 74 72 91 100 98 85 71 61 54 51
10 10 9 8 6 6 6 8 3 2 3 3 3 3 5 7 8 19 42 67 74 89 74 81 96 100 98 100 98 68 51 77 84 87 98 94 85 94 100 98 85 73 67 79 88 65 44
10 10 10 8 6 6 7 8 4 3 4 3 5 5 7 8 12 26 48 61 75 82 79 92 99 99 100 100 86 74 70 76 89 94 95 98 97 89 88 89 73 69 73 80 91 82 80
10 10 10 8 6 6 9 9 6 3 4 5 7 6 8 10 20 38 62 66 74 90 87 86 92 100 100 100 89 73 74 79 87 99 99 83 74 70 70 65 86 100 91 84 99 99 95
10 11 11 9 6 6 10 9 12 4 4 7 7 9 8 13 29 51 58 64 87 87 85 87 94 100 100 95 86 78 73 81 93 94 80 69 88 80 71 68 79 100 100 92 89 99 97
11 11 12 11 8 6 9 11 14 6 5 8 10 11 12 15 24 44 57 85 82 87 96 96 90 100 98 88 87 77 82 94 82 82 74 81 99 86 66 58 88 100 94 97 98 99 99
12 12 12 12 8 7 8 11 14 12 7 9 10 12 13 15 28 56 66 93 82 84 91 93 89 97 100 97 98 97 98 94 80 76 84 96 95 99 88 61 100 95 100 100 100 100 94
13 13 12 13 10 8 9 11 13 22 8 9 11 14 16 16 25 43 58 95 84 90 90 90 96 95 100 96 100 100 97 93 78 84 91 92 93 99 98 75 78 96 100 98 100 100 100
13 12 13 13 11 11 10 11 12 18 15 9 11 13 16 19 22 43 65 96 90 91 94 96 97 100 99 99 100 100 95 78 81 98 87 79 99 75 94 78 66 99 97 100 100 100 100
15 12 13 14 12 12 14 12 13 12 25 9 10 13 16 18 20 35 44 81 90 92 98 100 94 100 94 92 98 96 90 86 90 88 86 94 97 87 65 55 65 73 98 99 97 83 84
16 13 13 14 12 14 19 15 15 14 16 20 10 11 15 16 19 22 41 51 79 87 98 99 95 98 99 100 93 96 91 91 95 93 94 91 80 85 79 69 67 78 94 91 99 100 96
16 13 12 14 13 16 23 19 17 17 14 28 12 10 11 18 19 21 24 49 72 81 94 100 92 93 97 98 99 97 88 87 95 98 99 86 84 89 83 92 99 89 87 99 91 96 100
15 14 12 13 12 14 20 24 19 17 16 25 16 11 11 13 17 19 21 30 47 82 96 100 95 90 89 91 98 100 88 89 95 93 100 85 75 95 100 100 100 94 100 90 99 94 94

GFSGBSN_250_rhum_018.txt.gz
RH
11 11 10 10 12 11 10 8 7 7 8 9 10 12 10 8 8 10 12 14 15 15 45 98 86 89 86 76 100 88 80 61 57 69 100 100 100 100 100 100 100 100 100 100 98 92 99
11 12 11 11 12 12 10 9 8 8 8 8 9 10 14 12 9 10 12 13 16 17 27 49 85 74 98 94 100 100 84 83 65 64 67 89 100 100 100 100 100 100 100 100 100 100 94
12 13 12 11 12 12 10 8 7 7 9 10 9 10 12 17 16 10 14 15 16 17 19 36 50 65 100 99 100 100 100 99 97 74 68 74 79 100 100 100 100 100 100 100 100 100 98
13 13 13 12 13 11 9 7 6 6 6 8 11 12 11 7 17 16 13 17 18 19 20 20 42 50 96 94 100 100 100 100 94 92 90 74 74 78 100 100 100 100 100 100 100 100 100
14 12 13 13 13 11 8 6 5 4 4 6 6 5 5 4 5 17 18 17 24 22 24 21 26 26 56 87 90 100 100 100 100 100 89 88 77 76 74 88 100 100 100 100 100 100 100
14 14 13 14 12 11 8 6 4 4 4 4 2 2 2 2 3 5 15 20 25 24 26 23 21 28 46 74 79 94 100 100 95 100 90 90 96 95 75 72 85 96 100 100 100 100 100
15 14 13 14 13 11 8 5 4 4 4 3 2 2 3 3 2 3 9 19 20 25 20 30 35 26 32 56 58 68 98 100 100 88 100 100 88 92 86 72 77 76 79 93 99 100 100
14 14 13 14 12 10 7 5 4 3 3 2 2 2 3 3 3 4 6 18 26 26 41 33 36 28 44 35 41 44 73 100 100 100 100 98 99 92 86 96 90 83 87 87 85 96 86
15 13 12 14 11 9 7 4 4 3 2 2 2 2 2 3 3 4 5 11 25 34 42 53 41 42 38 41 48 54 68 96 100 100 100 99 100 94 98 89 86 92 91 89 86 81 98
16 14 12 13 10 8 6 4 4 4 2 2 2 2 2 3 2 3 4 8 20 40 55 62 46 57 48 56 62 65 76 100 100 100 100 100 99 90 88 86 79 76 79 91 82 80 81
16 15 13 12 9 8 5 4 4 4 2 2 2 2 2 2 2 3 4 5 17 55 54 58 58 62 53 53 55 61 65 84 88 94 94 100 98 92 84 63 48 64 86 93 92 81 74
17 15 14 11 9 8 5 4 3 2 2 2 2 2 2 2 2 2 3 4 8 41 53 58 67 64 66 65 48 46 54 65 80 89 86 91 89 70 35 26 40 62 91 94 95 88 78
17 17 14 10 8 8 6 4 4 2 2 2 2 2 2 2 2 2 3 4 9 22 58 69 69 66 75 49 32 35 41 51 62 60 64 60 49 38 49 60 71 87 96 98 88 86 92
18 16 15 10 8 8 6 4 4 2 2 3 2 2 2 2 2 3 4 6 9 26 67 68 67 69 72 43 37 43 42 50 69 74 67 77 66 75 81 84 85 100 100 95 95 100 100
17 17 14 10 8 8 7 5 4 3 2 3 2 2 2 2 3 4 5 8 13 53 65 63 68 80 72 52 56 79 89 86 86 86 83 95 100 94 97 100 100 100 100 100 95 90 88
15 17 14 9 8 8 7 5 4 3 3 3 3 3 3 3 4 5 7 10 21 49 54 68 87 89 87 84 97 98 98 95 95 100 100 100 100 100 100 100 100 100 100 100 100 98 92
16 17 12 10 8 8 8 6 5 4 3 4 3 4 4 5 6 7 9 19 40 53 65 93 95 63 68 82 85 89 97 100 100 100 97 94 99 99 97 92 82 75 76 84 92 89 74
16 16 11 10 8 8 8 7 5 5 3 4 4 5 5 6 8 10 16 29 47 68 95 99 94 76 91 86 96 100 98 92 91 87 87 80 74 74 70 85 89 100 100 89 64 68 77
16 15 12 10 9 8 8 9 6 6 3 5 6 7 6 9 10 17 29 47 75 93 86 84 72 85 91 100 100 100 100 90 79 72 58 66 63 83 93 95 100 97 74 65 75 94 99
16 13 12 11 9 9 8 9 7 7 5 6 8 8 9 11 16 22 38 51 60 71 74 70 86 97 100 100 100 92 81 63 59 65 70 81 87 100 100 82 66 67 93 56 65 70 85
15 13 12 12 10 10 9 8 9 9 11 7 10 11 12 22 27 37 47 54 65 81 78 90 100 100 100 95 100 82 69 65 68 79 89 89 100 100 66 66 66 81 100 94 86 92 85
15 13 12 13 11 11 12 9 10 10 19 9 14 15 16 25 31 40 51 76 88 81 85 94 96 96 99 100 98 81 74 70 80 87 82 89 85 86 69 64 72 99 100 85 98 96 99
14 14 12 12 13 12 13 11 8 12 14 25 12 17 19 25 36 52 74 89 91 86 94 100 100 100 99 99 96 82 77 74 78 80 70 80 86 79 73 60 82 98 100 90 99 100 98
13 13 12 12 14 14 13 13 9 10 14 25 20 17 19 22 38 51 84 88 85 84 96 99 100 100 100 98 96 86 78 75 72 73 72 88 78 81 90 88 79 100 100 100 100 89 77
14 13 11 12 14 16 14 14 12 8 10 16 35 17 20 21 26 46 91 94 82 88 96 100 100 100 100 100 98 91 84 78 70 71 84 79 86 85 94 97 79 71 100 100 84 80 61
13 12 12 12 14 17 16 14 14 12 10 9 14 34 17 22 20 33 57 95 94 87 90 99 100 100 100 98 96 98 91 81 70 72 90 81 87 74 99 100 67 68 94 98 98 92 74
13 12 12 13 14 17 16 15 14 16 14 12 11 17 36 18 25 21 32 48 86 86 78 97 100 100 100 100 92 92 89 81 70 80 93 82 92 86 87 69 83 88 93 100 91 80 74
12 12 12 13 14 15 15 14 14 16 17 14 12 11 23 29 17 25 25 36 65 84 78 91 98 100 100 100 99 93 93 75 73 82 92 94 97 93 72 83 83 87 94 99 100 98 93
12 12 12 13 14 13 15 14 15 18 18 18 13 11 11 29 15 16 24 24 36 85 94 86 96 98 94 95 93 94 89 79 81 84 94 97 96 95 82 83 88 84 72 89 88 82 72

GFSGBSN_250_rhum_024.txt.gz
RH
17 14 13 14 14 13 10 10 7 6 6 6 5 5 6 5 4 4 5 7 8 9 10 11 13 10 12 17 37 60 78 63 96 100 100 100 100 100 100 100 100 100 99 94 95 92 89
16 14 15 14 15 13 10 9 7 6 6 6 4 4 4 3 2 2 3 4 8 9 10 10 12 12 10 41 45 65 72 76 61 83 100 100 100 100 100 100 100 100 100 96 100 100 100
17 15 15 15 14 14 10 7 6 5 5 4 3 4 2 2 2 2 2 2 5 9 10 10 10 13 12 17 62 78 75 84 85 55 88 100 100 100 100 100 100 100 100 100 100 100 100
17 15 15 16 14 12 10 6 6 5 5 4 3 3 2 2 2 2 3 3 3 8 11 11 10 12 16 18 61 89 80 69 78 90 64 55 91 100 100 100 100 100 100 100 100 100 100
17 14 15 16 14 12 10 6 6 5 5 4 3 2 2 2 2 2 3 3 3 4 11 12 11 14 16 15 52 100 86 87 88 94 95 74 48 68 98 100 100 100 100 100 100 100 100
16 15 18 15 13 11 9 6 6 5 4 3 3 2 2 2 2 2 2 3 3 3 8 13 13 12 17 20 33 100 100 100 100 95 94 93 78 52 56 88 100 100 100 100 100 100 100
16 17 18 16 12 11 9 6 6 5 4 3 2 2 2 2 2 2 2 3 3 3 5 13 18 16 16 19 19 96 100 100 100 88 96 99 92 99 88 65 56 66 90 100 100 100 100
14 19 16 15 12 11 9 6 5 5 5 3 2 2 2 2 2 2 2 3 4 4 5 18 26 23 19 21 19 66 100 100 98 95 100 100 100 100 94 92 90 72 56 80 100 100 100
13 16 14 14 12 10 9 6 5 5 5 3 2 2 2 2 2 2 2 4 5 4 6 23 34 29 22 21 24 24 80 100 100 92 100 100 100 100 98 96 85 77 66 55 61 67 86
15 15 14 14 11 10 9 6 5 5 5 3 2 3 3 2 2 2 2 3 4 5 6 19 35 35 27 20 24 24 25 52 78 96 100 95 100 100 99 79 89 86 96 86 80 55 63
15 14 14 14 11 10 9 6 6 5 5 3 2 3 3 2 2 2 2 3 4 5 7 19 38 41 34 36 31 27 28 44 87 100 100 100 100 99 100 97 90 86 82 82 87 82 79
15 16 14 15 11 10 9 7 6 6 5 3 2 3 3 2 2 2 2 4 4 5 6 16 37 38 42 46 36 31 30 29 71 100 99 99 100 100 94 97 100 100 96 87 90 92 85
16 16 14 15 12 10 9 8 6 6 5 3 2 3 3 3 2 2 2 3 4 4 18 25 41 47 54 57 55 41 37 36 46 58 84 80 100 100 96 94 100 100 100 100 82 82 98
17 17 15 14 13 10 9 8 6 6 6 3 3 4 3 3 3 2 2 4 5 13 29 36 60 70 85 77 58 33 30 31 36 43 46 63 80 87 94 100 95 100 100 95 99 84 81
17 18 16 14 14 10 9 9 6 6 6 4 4 3 3 4 4 3 3 4 10 28 39 59 67 64 85 93 80 74 52 40 44 37 40 60 76 84 90 93 91 88 81 89 86 92 88
17 17 15 14 14 11 10 10 7 6 6 5 5 4 6 6 6 4 4 5 13 30 53 66 89 94 88 82 84 74 55 53 44 51 49 53 63 74 80 86 89 80 86 88 89 91 87
17 16 14 14 14 12 11 11 9 8 7 7 6 6 8 8 7 7 7 11 24 43 50 55 62 63 65 79 77 79 76 71 67 75 72 69 65 57 71 94 100 96 88 88 83 86 84
17 15 14 13 14 13 12 11 11 10 9 8 6 8 10 14 10 8 11 19 32 51 70 76 83 90 93 85 82 80 69 63 78 74 59 65 67 78 84 76 84 86 86 84 80 76 77
17 15 13 12 14 14 14 12 13 12 10 9 9 10 12 22 21 17 17 25 45 60 73 80 81 78 94 98 100 82 72 70 64 64 63 56 67 82 79 82 93 99 100 98 89 92 100
16 14 13 11 13 14 16 13 13 13 12 11 10 11 12 23 29 29 28 32 43 64 74 78 78 90 98 68 85 98 97 93 90 91 93 88 98 99 100 98 100 100 96 94 97 90 81
14 13 12 10 12 13 16 12 14 14 14 13 12 13 15 18 38 44 48 48 50 58 65 74 93 100 87 92 98 98 100 98 99 98 97 94 97 99 100 96 96 92 95 100 99 90 87
12 11 10 11 10 14 16 13 14 14 14 16 14 14 15 18 32 57 64 75 85 84 79 91 95 89 95 99 100 100 95 91 91 98 100 100 100 100 94 97 96 96 89 98 85 100 94
11 10 10 10 10 12 14 14 13 15 14 15 17 15 16 18 21 45 57 73 79 86 81 74 76 78 84 89 95 100 100 100 99 99 100 100 98 91 92 85 81 69 95 100 92 72 61
10 10 10 10 10 12 13 14 13 14 13 14 15 18 18 17 21 22 48 64 59 74 90 77 68 74 82 89 90 92 99 100 93 78 84 89 99 93 83 80 75 71 91 100 75 65 84
10 10 9 9 12 13 13 14 12 13 13 13 13 15 20 21 17 23 22 38 65 70 79 84 71 77 88 92 94 93 83 70 66 84 96 98 89 87 84 78 73 74 99 88 60 71 75
10 10 8 9 12 13 13 14 12 13 14 12 12 13 14 21 23 17 22 22 35 66 88 84 75 77 83 84 83 71 68 79 96 91 86 92 95 93 80 73 70 71 98 72 73 86 82
9 9 8 9 11 12 14 14 12 12 13 13 12 13 12 15 22 23 18 22 23 36 73 92 89 80 83 80 85 79 81 92 90 87 84 94 90 78 65 64 69 68 68 70 88 80 83
8 8 9 9 10 12 14 13 12 11 12 12 13 13 15 14 13 22 24 18 23 22 35 78 91 90 86 88 87 91 92 86 81 81 91 90 87 76 65 66 71 76 64 84 94 77 86
7 8 8 9 11 13 13 12 11 10 11 12 12 12 14 14 11 12 19 21 18 30 20 46 84 88 89 89 91 94 92 95 93 90 92 88 89 79 67 71 64 66 70 89 79 89 100

GFSGBSN_250_rhum_027.txt.gz
RH
18 13 11 12 11 10 8 8 8 9 7 6 6 5 4 4 3 2 2 3 3 6 7 7 9 10 10 10 13 42 51 62 48 67 100 100 100 100 100 100 100 100 100 100 100 100 100
18 13 11 11 10 9 7 8 7 8 6 5 5 4 3 3 2 3 3 3 3 4 7 7 8 9 12 13 11 35 45 62 68 70 100 100 100 100 100 100 100 100 100 100 100 100 100
17 13 11 10 9 8 6 7 6 8 6 5 4 3 3 2 2 2 2 2 3 3 7 8 8 10 12 14 13 34 50 56 77 74 100 100 100 100 100 100 100 100 100 100 100 100 100
19 14 12 10 9 8 6 6 6 7 5 5 4 3 2 2 2 2 2 2 3 3 5 8 9 10 13 16 18 47 60 51 78 93 74 87 97 100 100 100 100 100 100 100 100 100 100
17 10 10 10 10 8 6 6 6 7 5 4 4 2 2 2 2 2 2 2 2 3 3 8 10 11 13 11 15 29 69 69 76 81 100 83 56 100 100 100 100 100 100 100 100 100 100
14 10 10 10 10 9 6 6 6 6 5 4 3 2 2 2 2 2 2 2 2 3 3 6 11 12 13 14 19 25 79 78 71 71 96 92 74 80 100 100 100 100 100 100 100 100 100
11 11 10 11 10 9 7 6 6 6 5 4 3 2 2 2 2 2 1 2 2 3 3 5 13 14 15 13 19 20 44 74 82 61 71 93 93 85 91 100 100 100 100 100 100 100 100
11 11 12 11 11 9 8 6 6 6 6 4 4 2 2 2 2 1 1 2 2 4 4 6 16 18 13 16 18 20 28 88 96 95 78 72 96 100 88 84 97 100 100 100 100 100 100
11 12 14 12 12 10 8 6 6 6 6 5 4 2 3 2 2 1 2 2 2 5 5 8 17 18 17 16 20 20 22 43 100 100 100 91 100 100 86 78 72 85 92 98 100 100 100
13 14 16 14 12 10 8 6 5 6 6 5 3 2 3 2 2 2 2 3 3 5 5 8 18 21 19 19 24 20 22 22 93 97 92 100 95 94 98 96 88 77 73 64 74 85 99
16 16 17 14 12 10 8 6 5 5 6 4 3 2 3 2 2 2 2 3 4 5 5 10 20 24 24 24 38 24 26 24 35 93 100 100 100 100 100 90 89 95 95 82 65 54 60
16 17 17 14 12 11 9 7 5 4 6 5 4 3 4 2 2 2 2 4 5 5 5 10 23 34 32 34 38 25 28 25 24 61 100 100 95 90 83 88 87 94 94 92 93 94 78
18 16 16 14 13 12 9 8 6 4 6 6 4 4 4 3 2 2 3 4 4 6 9 24 38 42 42 48 47 34 31 28 26 32 99 100 100 100 100 100 100 100 100 94 87 86 94
18 16 15 14 13 12 9 9 8 5 6 6 5 4 5 4 3 3 3 4 6 10 25 37 46 50 46 59 43 38 54 41 35 39 93 93 98 99 100 100 100 100 94 93 100 100 99
18 16 13 12 12 12 11 9 9 6 7 8 6 4 6 7 5 4 3 6 11 21 41 49 55 74 77 62 57 59 44 44 40 30 30 56 92 100 96 97 95 100 98 92 98 92 97
18 16 13 11 11 12 12 9 10 7 7 9 8 6 7 11 7 7 7 11 34 41 52 67 78 86 72 66 58 53 52 39 41 45 39 37 46 58 88 99 96 99 100 100 88 91 95
18 15 12 12 10 11 12 11 10 10 10 10 10 8 8 16 11 10 11 22 31 44 53 58 62 54 57 60 51 47 50 60 58 57 57 54 54 57 63 73 82 98 94 93 84 85 99
17 14 12 11 10 11 13 12 10 12 12 12 11 10 9 18 22 14 18 29 42 59 82 88 86 84 98 100 100 99 79 69 68 71 65 58 57 75 84 77 74 85 91 93 96 100 97
14 13 12 11 11 11 12 13 9 13 13 14 13 12 11 15 28 26 22 32 47 62 70 72 76 80 89 93 87 95 97 94 86 86 83 81 81 75 69 71 81 74 94 81 83 77 68
12 11 12 12 11 12 12 13 9 10 16 14 14 14 14 15 24 42 35 31 42 56 69 67 68 72 86 90 87 85 84 83 82 88 98 95 97 94 94 95 91 87 98 92 82 92 100
12 11 11 12 11 11 11 12 10 10 16 16 15 15 15 17 24 42 56 50 46 48 58 65 74 76 88 77 68 67 74 75 71 75 80 88 92 90 91 94 89 100 97 90 100 100 100
11 10 10 11 11 10 10 11 12 11 13 18 16 15 16 17 20 30 57 68 73 72 65 69 76 92 91 79 70 72 81 86 84 85 90 91 100 99 93 84 98 97 97 98 100 100 100
11 11 10 10 10 8 9 11 12 12 12 16 17 16 14 17 17 22 33 58 70 83 93 93 91 96 99 79 78 84 94 96 93 91 98 99 100 100 100 99 99 89 100 100 100 100 94
9 10 10 10 9 8 8 9 12 12 12 14 15 17 16 16 18 17 22 34 44 62 81 87 89 83 83 86 81 89 97 98 93 94 95 96 98 98 96 95 99 100 100 100 100 94 90
8 9 8 9 8 8 8 9 11 12 12 13 14 16 18 16 18 17 19 22 29 43 54 71 85 80 64 69 86 85 91 97 99 100 100 100 98 89 93 95 99 100 100 94 98 93 94
8 8 8 8 8 7 7 8 10 11 11 11 12 14 15 16 20 20 17 19 24 29 40 64 66 87 73 61 76 90 93 96 100 100 100 99 89 78 78 89 94 90 74 86 100 96 72
7 7 7 8 8 7 7 7 8 9 10 10 10 11 15 13 15 21 22 20 19 24 29 37 69 68 84 72 84 90 94 91 80 70 62 68 76 79 88 87 85 85 84 89 91 92 76
7 6 7 7 7 7 7 7 8 8 8 9 9 9 12 14 11 15 23 23 20 19 22 29 39 74 72 86 82 87 86 66 57 57 70 88 93 92 81 81 82 77 82 94 77 93 76
6 6 6 7 7 7 6 7 7 8 8 8 7 8 11 12 11 10 13 16 23 22 22 25 33 40 77 85 85 85 76 63 67 79 89 89 91 93 81 71 66 78 80 89 70 80 77

GFSGBSN_250_rhum_030.txt.gz
RH
23 14 10 9 9 9 9 8 8 8 8 6 5 5 4 3 3 3 3 3 2 3 3 3 5 6 6 7 8 8 9 9 19 92 100 100 100 100 100 100 100 100 100 100 100 100 100
22 15 10 8 8 9 8 8 8 8 8 5 4 4 3 3 2 2 3 3 2 3 3 3 4 6 6 8 8 10 7 8 12 26 100 100 100 100 100 100 100 100 100 100 100 100 100
19 14 8 8 9 8 8 7 8 8 7 5 4 4 3 2 2 2 2 2 2 2 3 3 3 6 7 10 7 12 9 7 10 24 40 100 100 100 100 100 100 100 100 100 100 100 100
19 11 8 9 9 7 8 7 8 8 7 5 4 3 2 2 2 2 2 2 2 2 2 3 3 7 10 10 8 13 11 9 14 26 46 69 100 100 100 100 100 100 100 100 100 100 100
15 12 9 8 10 7 8 7 8 8 6 4 4 3 2 2 2 2 2 2 2 2 2 3 3 8 11 10 11 14 14 12 24 36 65 68 93 100 100 100 100 100 100 100 100 100 95
16 11 9 9 10 8 8 7 7 7 6 4 3 3 2 2 2 2 2 1 1 2 2 3 4 10 12 12 12 17 18 15 33 58 72 78 70 85 100 100 100 100 100 100 100 100 97
15 12 10 10 11 8 8 7 6 7 5 4 3 3 2 2 2 2 1 1 1 2 3 5 6 14 13 12 11 16 21 18 49 69 90 93 86 90 89 97 100 100 100 100 100 100 100
18 14 12 11 10 8 8 6 6 6 5 4 3 3 2 2 2 1 1 2 2 2 4 6 8 15 13 13 14 16 18 24 54 100 97 97 100 95 80 75 93 100 100 100 100 100 100
25 21 12 12 10 9 8 6 6 6 5 5 4 3 2 2 2 1 2 2 2 3 5 6 7 12 15 14 17 20 21 26 42 77 71 63 100 98 96 95 95 100 100 100 100 100 100
34 28 11 12 11 9 8 6 7 6 5 5 4 3 3 2 2 2 2 2 3 4 5 7 10 17 16 16 18 20 22 33 46 79 66 63 81 91 95 99 100 100 100 100 100 100 100
36 28 12 13 12 10 9 6 8 6 5 5 4 3 3 2 2 2 2 4 4 4 4 6 10 14 14 20 20 19 20 34 60 82 62 75 72 86 85 86 99 100 100 87 100 100 100
33 23 13 13 12 11 9 7 8 6 6 6 5 4 3 3 3 2 3 4 5 5 6 8 15 25 25 26 24 21 24 31 67 57 48 40 67 85 80 88 87 100 100 91 91 100 100
29 16 14 14 12 12 10 8 8 7 6 7 6 4 4 4 3 3 3 4 5 7 10 20 26 29 28 24 25 24 28 32 57 50 31 41 84 87 79 82 98 100 100 99 94 84 94
18 14 15 14 13 12 10 9 9 8 7 8 8 6 5 5 5 4 3 4 8 12 25 29 34 36 35 34 28 34 40 35 42 65 47 42 79 94 86 74 82 94 95 100 100 100 99
14 14 14 15 12 12 11 9 9 8 7 10 9 8 7 9 10 7 5 6 19 28 34 41 42 39 40 44 35 53 42 33 32 31 36 38 60 99 100 93 88 84 88 98 92 93 96
15 14 13 14 12 12 12 10 9 8 8 9 10 10 8 11 15 13 11 13 28 29 32 34 32 36 42 46 47 41 37 44 38 37 35 38 38 77 100 100 100 91 96 99 90 92 94
13 13 12 12 12 12 12 10 8 8 10 11 12 11 10 11 19 23 17 24 31 40 46 52 63 71 70 77 68 54 45 42 42 46 49 45 42 47 68 100 100 95 92 92 98 100 99
12 12 11 11 11 12 11 11 9 8 11 11 14 13 12 11 18 30 29 24 28 42 55 71 75 86 82 83 83 78 60 59 56 48 47 44 43 57 63 95 98 91 93 94 98 100 100
10 11 11 11 11 11 10 9 9 8 9 12 14 15 13 13 14 27 40 39 39 48 61 74 84 87 80 67 63 63 68 60 56 59 64 68 70 66 72 91 99 95 99 100 99 99 94
10 10 10 11 11 10 9 8 9 9 8 13 14 15 14 15 14 20 35 49 48 52 56 62 68 72 76 87 82 71 65 70 69 69 76 77 80 73 67 66 65 72 78 85 92 87 85
10 9 9 9 9 9 7 8 8 8 9 10 14 15 14 16 16 15 20 39 61 60 58 62 67 69 72 83 79 71 70 69 76 81 76 75 78 80 74 76 79 77 72 74 56 61 62
9 9 9 8 8 8 7 7 8 8 9 8 13 17 14 15 16 18 17 21 41 56 73 74 74 77 83 92 80 71 68 62 64 73 83 89 92 91 97 87 80 75 84 70 85 94 100
9 8 8 7 7 7 7 7 7 9 9 8 9 16 15 14 17 16 18 20 24 35 56 80 88 88 94 98 89 79 72 74 73 70 69 74 79 84 84 90 95 94 96 96 100 99 100
7 8 7 6 6 6 7 7 7 8 8 8 8 10 15 14 15 17 19 20 21 27 36 56 85 89 89 97 100 77 80 84 92 97 92 83 83 83 77 91 96 97 91 96 100 100 100
6 6 6 6 6 6 7 7 7 7 8 8 8 9 11 14 15 15 16 18 20 23 25 30 43 82 94 82 87 87 78 82 88 100 100 100 98 85 85 92 94 95 99 100 100 100 100
6 6 6 6 6 6 7 6 6 7 7 8 8 9 9 12 16 17 17 16 17 20 24 25 28 40 82 86 74 76 82 87 97 99 100 100 100 100 90 96 98 100 100 98 99 91 96
6 6 6 6 6 6 7 6 6 6 7 7 8 8 9 10 12 15 16 16 17 17 20 25 27 28 39 82 74 68 74 85 91 96 98 98 98 95 96 100 98 99 85 87 96 100 100
6 6 6 6 6 6 6 6 6 7 7 7 7 8 9 10 10 12 13 12 16 18 22 21 26 27 30 44 84 68 75 90 89 89 90 89 96 87 91 80 82 86 83 98 100 100 98
6 6 6 6 5 5 6 6 5 6 6 7 6 7 9 10 10 11 10 11 16 18 20 21 22 22 24 31 71 75 74 87 98 89 93 76 68 62 65 80 82 92 95 100 92 84 84

GFSGBSN_250_rhum_033.txt.gz
RH
34 33 17 12 10 7 7 7 8 7 7 5 4 3 3 3 2 2 2 2 2 2 2 2 3 3 5 5 7 7 6 7 8 11 28 98 100 100 100 100 100 100 100 100 100 100 92
30 23 14 12 10 7 7 6 7 7 7 4 4 3 3 2 2 2 2 2 2 2 2 3 3 3 4 6 8 7 7 7 9 12 13 78 100 100 100 100 100 100 100 100 100 100 100
25 18 13 12 9 7 7 6 6 6 6 4 4 3 2 2 2 2 2 2 2 2 2 2 2 2 3 7 8 8 8 8 10 12 13 40 100 100 100 100 100 100 100 100 100 100 100
22 17 13 12 8 7 7 6 6 6 5 4 3 3 2 2 2 2 1 1 2 2 2 2 3 3 4 6 8 9 7 8 10 11 12 16 59 100 100 100 100 100 100 100 100 100 100
22 16 15 11 8 8 7 6 6 5 5 4 3 3 2 2 2 1 1 1 1 1 2 2 3 4 4 7 9 9 9 10 11 12 12 14 20 59 100 100 100 100 100 100 100 100 100
19 17 16 10 9 8 7 6 6 5 5 4 3 3 2 2 2 1 1 1 1 1 2 2 3 4 5 6 10 10 10 11 14 14 12 12 15 30 100 100 100 100 100 100 100 100 100
19 14 12 9 9 8 8 6 6 5 5 4 3 3 2 2 2 2 1 1 1 2 2 2 3 5 6 9 12 13 14 14 16 16 13 11 11 20 73 100 100 100 100 99 87 98 100
13 11 11 10 8 8 8 6 5 5 5 4 3 3 2 2 2 2 2 2 2 2 2 3 4 5 7 12 16 16 16 17 20 21 16 11 10 15 28 86 100 100 100 100 100 99 82
12 10 10 9 8 8 8 6 5 5 5 4 3 4 3 3 2 2 2 2 2 2 2 3 5 8 11 17 18 18 27 24 25 28 19 12 11 15 19 74 100 100 100 100 100 100 95
12 10 9 9 9 9 8 7 5 6 5 5 3 4 3 3 3 2 2 2 3 3 4 4 5 8 13 18 18 17 29 38 34 80 38 17 14 14 33 66 99 100 100 100 100 100 100
12 10 9 9 9 8 9 8 5 7 6 6 4 4 3 3 4 3 2 3 4 4 5 5 7 10 15 18 19 22 23 19 34 71 42 20 15 19 27 58 84 96 100 100 100 100 100
9 9 8 9 9 9 9 8 7 7 6 6 6 5 4 4 4 4 3 3 4 7 9 9 8 13 20 21 23 28 27 21 28 45 40 22 18 24 38 66 82 87 99 100 100 100 100
9 9 8 9 9 10 9 9 8 7 6 7 7 7 6 5 5 7 4 3 5 10 16 21 25 26 22 22 26 25 31 28 30 43 45 18 17 25 43 64 88 95 94 94 95 100 100
9 8 9 9 9 9 10 9 8 6 7 7 7 10 8 6 7 10 10 7 8 10 20 25 26 27 27 29 27 28 28 27 28 37 40 36 20 24 46 75 98 100 100 100 99 97 94
9 9 9 9 9 10 9 9 8 6 7 8 8 9 10 8 9 14 18 16 18 18 23 24 26 31 30 26 25 27 29 33 31 28 37 36 30 35 38 53 88 99 100 96 100 99 100
10 10 9 9 10 10 9 9 8 6 7 9 9 10 11 10 9 15 25 20 21 26 30 35 39 36 37 30 26 26 26 40 54 47 34 39 54 49 58 64 70 96 83 92 100 100 100
10 9 9 9 9 9 8 8 7 7 6 9 10 10 12 11 11 14 25 30 28 31 36 46 49 50 54 56 51 37 33 38 43 52 44 40 53 61 69 62 82 81 83 98 100 100 100
11 9 9 9 9 9 8 7 7 7 7 8 9 10 12 12 12 14 20 31 40 44 44 44 53 60 65 59 54 44 45 44 44 53 54 45 39 54 66 69 89 97 96 71 77 87 92
11 10 9 9 8 8 7 6 7 7 7 8 9 10 11 14 14 14 16 23 39 48 50 54 58 63 71 74 67 71 42 45 43 43 47 49 48 57 58 51 58 69 89 96 100 99 89
12 10 9 8 8 7 7 6 6 7 7 8 8 10 10 11 12 14 15 21 31 48 62 65 67 69 69 76 84 75 74 61 55 57 59 62 56 57 61 60 61 63 65 78 98 100 100
12 10 10 8 8 7 7 7 7 7 7 7 8 8 11 12 11 13 14 16 23 34 46 60 65 69 71 76 83 76 78 80 71 64 63 68 71 75 81 78 77 80 92 99 93 100 100
12 11 10 9 8 7 7 7 7 7 8 8 8 8 10 11 11 12 13 14 18 21 31 51 68 70 70 70 80 80 62 77 93 86 75 76 75 79 71 67 66 70 87 95 92 89 92
13 10 10 10 8 7 7 8 7 8 7 8 8 8 8 11 12 12 13 14 16 18 22 32 45 66 81 88 88 85 82 75 79 89 94 92 79 76 78 81 79 70 70 66 67 72 84
13 10 10 9 8 7 7 7 7 7 7 7 7 8 8 9 12 13 12 13 15 18 19 20 31 46 61 92 100 85 84 80 77 73 78 94 98 98 83 90 88 82 75 70 76 89 94
15 11 9 8 7 7 7 7 6 6 6 6 6 8 8 8 10 15 13 14 15 16 19 21 22 27 48 66 94 99 82 86 91 90 87 91 77 78 84 88 88 94 88 96 100 100 100
16 11 8 7 7 6 6 6 6 5 5 5 6 7 8 8 9 12 15 15 16 17 18 22 24 24 26 36 63 98 91 89 94 100 93 79 98 97 86 88 88 90 88 99 100 100 100
13 9 8 7 6 6 5 4 5 4 5 5 5 6 7 8 8 9 12 14 18 19 19 20 21 25 23 24 32 71 95 86 92 92 100 100 97 100 100 98 93 89 93 100 98 99 95
9 8 7 6 6 5 4 4 4 4 5 5 5 6 7 8 8 8 9 12 15 18 19 20 22 22 23 25 25 36 91 92 86 90 100 100 100 100 100 95 100 97 100 100 100 98 96
9 7 6 6 5 5 4 4 4 4 5 5 5 6 7 8 8 8 9 11 11 13 16 20 26 24 22 25 25 27 58 87 78 85 93 98 100 100 95 88 96 91 100 100 100 95 96

GFSGBSN_250_rhum_036.txt.gz
RH
16 11 10 8 6 6 5 5 5 5 5 4 3 3 3 2 2 2 2 2 2 2 2 2 3 3 3 4 6 8 8 7 7 8 13 19 50 98 96 100 100 100 100 100 100 98 75
13 10 9 7 6 6 5 4 4 5 4 4 3 3 2 2 2 2 2 1 1 2 2 2 3 3 3 5 6 7 8 7 8 7 10 15 40 81 100 100 100 100 100 100 100 100 99
16 10 8 6 6 5 5 4 4 5 4 4 3 3 2 2 2 2 1 1 1 1 1 2 2 3 4 6 7 7 8 7 8 8 8 13 23 73 93 100 100 100 100 100 100 100 100
13 9 8 6 6 5 5 4 4 5 4 3 3 3 2 2 2 1 1 1 1 1 1 2 3 3 4 5 6 7 8 8 8 8 8 9 15 40 97 100 100 100 100 100 100 100 100
13 10 6 6 5 5 5 5 4 4 4 3 3 3 2 2 2 1 1 1 1 1 1 2 3 3 4 5 6 8 9 9 9 9 9 10 10 17 52 100 100 100 100 100 100 100 100
12 8 7 6 6 5 5 5 4 4 4 4 3 3 2 2 2 2 1 1 1 1 1 2 3 4 5 5 7 10 11 10 11 10 10 10 11 14 19 80 100 100 100 100 100 100 100
10 8 7 7 6 6 5 4 4 4 4 4 3 3 2 2 2 2 2 2 1 1 2 2 3 3 4 7 8 11 12 12 12 11 11 10 11 11 24 29 96 100 100 100 100 100 100
12 8 7 8 7 6 5 5 4 5 4 4 3 3 3 2 2 2 2 2 2 2 2 2 3 4 5 4 6 8 10 14 13 13 12 11 11 14 19 25 35 99 100 100 100 100 100
18 9 8 8 8 7 6 6 4 5 4 4 4 4 3 3 3 2 2 2 2 3 2 3 4 6 6 10 13 14 17 23 18 16 14 13 12 14 15 23 27 38 100 100 100 100 100
23 10 8 9 9 8 7 6 5 5 5 5 4 4 3 3 3 3 2 2 3 4 4 4 4 7 8 10 14 20 34 25 22 20 17 15 14 14 16 18 26 28 97 100 100 100 100
23 14 11 10 9 9 8 7 6 5 6 6 5 5 4 4 4 5 4 3 3 4 6 6 6 7 8 16 26 31 28 23 24 23 20 17 15 16 17 17 22 40 69 100 100 100 100
21 19 16 13 10 9 9 8 7 5 6 6 6 6 6 5 4 6 7 4 4 5 10 9 9 7 12 20 24 25 26 23 29 27 20 16 16 18 17 16 18 31 55 91 100 100 100
22 18 26 14 11 9 10 8 7 6 6 7 8 7 7 7 6 7 10 9 9 10 15 17 18 19 19 22 21 20 17 19 17 20 16 12 16 18 17 15 13 16 45 53 81 100 100
31 22 20 15 10 9 9 8 7 7 7 7 8 9 7 8 8 8 14 15 14 21 15 18 21 23 27 29 27 23 23 23 21 18 15 13 12 16 16 16 12 12 18 45 100 100 100
28 26 25 18 10 9 9 8 8 7 7 7 9 10 9 8 8 9 12 20 19 20 23 26 25 23 21 24 24 28 29 27 27 26 24 21 20 23 23 19 15 16 29 52 100 100 100
37 24 23 16 9 8 8 9 8 7 8 8 8 10 9 9 10 9 10 22 26 25 24 26 26 29 34 36 37 37 28 27 28 32 35 23 32 30 29 42 30 34 58 66 72 99 100
39 32 24 20 10 7 7 9 8 8 8 8 8 10 9 9 10 11 11 16 25 38 39 37 38 40 35 30 32 34 34 29 26 28 34 31 24 30 44 46 68 66 60 69 76 94 100
28 25 22 21 10 6 7 9 8 7 8 8 9 9 10 10 9 10 12 13 22 33 45 49 52 51 50 57 57 41 38 35 33 28 30 41 37 40 34 40 60 74 81 94 94 96 90
23 29 32 22 9 6 7 8 8 7 7 8 9 9 10 10 9 10 12 14 17 28 38 46 54 61 65 62 63 62 58 52 48 50 46 44 46 54 55 49 40 66 77 98 100 100 100
22 28 33 22 12 8 8 8 8 7 7 8 8 7 10 11 10 9 11 13 14 20 34 45 51 59 64 71 76 72 65 61 60 57 53 51 50 50 51 53 56 53 71 95 100 98 97
18 29 32 23 11 6 7 7 7 7 7 6 7 7 7 10 11 10 10 12 14 15 21 38 59 63 64 65 73 77 65 67 67 63 62 60 62 49 44 46 52 66 71 70 84 94 98
16 27 34 24 11 8 7 7 7 7 6 6 6 6 6 8 10 11 10 11 15 16 16 21 41 58 77 84 84 85 76 63 70 74 68 65 69 74 70 55 50 60 61 57 63 71 72
24 22 41 18 11 8 7 6 6 6 6 5 5 6 6 7 9 11 10 10 11 15 17 18 21 31 50 71 88 93 83 66 68 82 87 74 69 64 63 68 70 69 65 60 57 56 62
21 22 32 15 9 6 6 6 5 6 6 5 5 5 6 6 8 10 10 10 11 14 14 16 19 22 29 43 67 98 100 89 72 68 76 93 90 79 73 82 85 80 71 72 78 87 86
14 23 25 12 8 9 6 6 5 5 5 4 4 5 5 6 8 9 10 10 10 12 16 18 19 20 24 26 40 75 98 98 95 92 85 78 83 85 92 90 86 91 91 86 87 94 95
11 15 12 9 9 8 6 5 5 4 5 4 4 5 5 6 7 9 9 11 12 13 13 17 19 20 21 24 24 35 84 100 99 95 95 84 87 92 87 96 99 100 96 91 91 100 90
12 12 12 9 7 7 6 5 5 4 4 5 5 5 5 6 6 8 9 10 12 13 14 16 18 20 21 21 25 27 38 95 96 97 100 100 94 89 100 97 98 96 100 96 99 100 100
9 11 9 7 6 6 6 5 4 4 4 4 5 5 5 5 6 7 9 9 11 12 13 14 19 18 18 24 24 25 29 64 89 92 100 100 100 93 91 96 100 98 96 98 96 100 100
7 7 11 7 5 6 5 4 4 4 4 5 5 5 5 5 6 7 8 9 10 11 14 15 17 17 18 19 22 23 27 30 82 85 93 100 100 100 96 92 97 100 100 100 99 96 96

GFSGBSN_250_rhum_039.txt.gz
RH
22 22 16 10 7 6 5 4 4 3 3 3 2 2 2 2 2 2 2 2 2 1 2 2 2 3 4 5 6 9 9 8 8 9 9 11 14 98 100 100 88 99 82 74 96 100 100
23 21 20 11 6 5 5 4 4 3 3 3 3 2 2 2 2 2 2 1 1 1 1 1 2 3 4 4 5 7 8 7 8 8 9 9 13 33 100 100 79 100 87 83 98 100 100
23 23 20 15 7 5 5 4 4 3 3 3 3 3 2 2 2 2 1 1 1 1 1 1 2 2 3 4 6 7 8 8 8 9 9 8 10 14 74 100 86 99 100 100 98 100 100
26 23 20 12 7 6 5 5 4 3 3 3 3 3 2 2 2 2 1 1 1 1 1 1 1 2 2 4 6 7 8 9 9 9 8 9 8 11 15 100 100 91 99 100 100 100 100
25 25 18 12 9 6 6 5 4 3 3 3 3 3 3 2 2 2 1 1 1 1 1 1 2 2 3 4 7 10 8 10 10 10 8 9 9 9 11 33 100 88 98 100 100 100 100
28 27 18 15 10 7 5 5 4 3 3 3 3 3 3 3 2 2 2 1 1 1 1 1 2 3 4 5 7 12 12 10 10 11 9 9 10 9 10 13 82 100 100 100 100 100 100
29 22 22 22 12 7 6 5 4 4 4 3 3 3 3 3 3 2 2 1 1 1 2 2 3 3 4 5 8 10 13 11 11 11 11 11 10 9 10 13 31 100 100 100 100 100 100
28 23 25 29 15 8 7 6 4 4 4 4 3 3 3 3 3 3 2 2 2 2 2 2 3 4 5 6 7 12 12 14 13 13 11 11 10 10 10 11 16 64 100 100 100 100 100
26 29 28 30 15 8 7 6 5 4 4 5 4 4 4 3 4 3 4 2 2 2 3 3 4 4 5 6 8 10 14 16 15 15 14 14 13 11 11 11 17 22 95 100 100 100 100
25 28 29 33 21 10 6 7 5 5 5 6 5 5 5 4 4 4 5 3 2 4 4 4 5 6 6 6 8 16 21 28 27 20 18 14 12 13 13 12 15 20 34 100 100 100 100
27 23 31 30 22 12 7 8 6 6 6 6 7 6 5 5 5 4 6 6 3 4 6 5 6 6 9 11 19 24 26 22 18 20 19 16 14 14 14 12 13 17 20 42 100 100 100
22 24 30 37 22 14 8 7 7 7 6 7 7 8 6 6 6 6 5 9 6 7 8 8 7 8 11 15 21 26 23 23 23 18 18 18 17 15 14 12 12 17 19 22 48 100 100
21 26 36 34 31 16 9 6 6 7 7 7 8 9 8 7 7 7 6 10 8 13 12 12 12 11 12 13 13 19 21 21 22 22 21 19 17 16 14 13 14 19 20 21 25 44 100
22 25 29 29 31 23 13 6 8 7 7 8 8 9 9 9 8 8 8 11 11 16 15 15 16 16 15 18 19 17 18 19 22 21 18 16 16 13 12 13 15 17 20 20 22 29 40
30 24 25 35 40 25 16 8 6 8 7 7 8 8 10 9 8 8 9 11 14 22 19 20 19 22 23 23 24 24 22 21 20 18 18 15 14 14 13 14 14 17 18 21 23 30 52
29 26 26 34 42 34 22 10 7 8 7 6 8 8 10 9 9 9 10 10 17 23 26 24 26 24 26 27 26 26 25 24 24 23 23 24 22 18 20 17 17 17 20 20 21 25 33
25 25 25 30 37 40 26 13 7 6 6 6 8 8 8 10 9 9 10 12 12 21 30 34 28 26 28 27 29 27 27 26 28 27 23 26 25 22 28 32 22 22 20 20 22 27 60
23 30 26 26 32 53 40 18 6 5 7 5 6 8 7 8 9 9 10 12 14 16 22 37 46 49 45 49 51 45 39 35 35 31 28 24 26 33 29 38 45 36 26 22 20 23 26
28 30 25 22 32 42 38 16 8 5 6 5 6 7 7 8 8 10 10 10 14 16 23 34 46 53 60 66 73 78 71 53 46 37 31 33 29 30 40 53 53 52 46 28 27 33 33
36 23 20 20 29 41 41 18 8 6 5 5 5 6 6 6 7 8 9 9 12 14 16 25 35 51 56 65 72 73 66 51 43 44 42 44 38 35 33 42 73 70 78 77 46 46 68
35 31 23 23 36 30 33 18 8 5 4 5 5 6 6 6 6 7 9 10 10 13 16 16 24 42 53 60 62 70 68 63 56 48 48 49 46 46 44 45 46 66 88 99 100 79 77
35 28 22 21 33 25 26 12 7 6 4 5 5 5 6 6 6 7 8 9 10 11 14 16 16 22 39 59 75 80 76 64 58 57 51 60 56 52 52 52 50 54 55 84 83 95 97
32 29 23 19 21 24 24 10 7 6 5 4 5 5 6 5 6 6 8 9 10 10 12 15 17 19 23 40 49 75 80 69 58 61 70 66 62 61 57 48 44 53 51 51 70 87 96
32 27 27 21 24 18 17 7 6 5 5 4 4 5 5 5 5 6 7 9 11 11 12 14 16 17 19 25 36 50 74 70 66 59 64 74 75 73 71 69 70 54 53 55 66 75 81
22 20 24 28 16 17 14 6 5 5 4 4 4 5 5 5 5 6 7 8 9 11 11 12 14 16 18 20 22 31 57 79 74 68 62 64 76 85 82 84 78 75 75 67 68 75 79
23 14 15 18 12 12 12 6 5 4 4 4 4 5 6 6 6 6 7 8 9 10 11 12 13 15 16 18 22 26 31 62 84 71 72 74 73 70 88 93 94 93 91 86 86 92 85
20 17 19 16 15 14 12 7 4 4 3 3 4 5 7 6 6 6 7 8 9 10 12 12 12 14 14 17 19 22 26 32 69 81 72 75 93 89 81 83 93 95 96 98 100 98 92
14 13 17 12 14 10 10 9 4 4 3 3 4 5 6 7 6 6 7 7 9 10 12 12 15 16 14 16 17 20 24 28 34 67 70 76 82 90 95 80 84 86 93 94 98 94 100
10 12 14 11 12 10 11 8 4 4 3 4 4 5 5 6 7 7 7 8 9 10 12 12 13 15 16 19 19 18 22 29 29 42 74 73 77 86 87 97 82 77 87 96 100 100 100

GFSGBSN_250_rhum_042.txt.gz
RH
27 22 26 17 12 6 4 5 5 4 3 3 3 3 2 2 2 2 2 1 1 1 1 2 1 2 2 5 7 8 8 9 9 9 9 9 11 13 80 100 90 100 100 63 51 55 88
25 26 28 20 13 8 5 5 5 4 3 3 3 3 2 2 2 2 2 1 1 1 1 1 1 2 2 4 6 7 7 9 10 10 9 10 10 12 19 97 100 100 100 87 50 52 90
28 35 25 19 14 9 6 5 5 4 3 3 3 3 3 2 2 2 2 1 1 1 1 1 1 2 2 3 5 9 7 9 10 11 10 11 10 10 14 46 100 100 100 94 62 67 99
34 35 22 23 18 13 7 5 5 4 3 3 3 3 3 2 2 2 2 1 1 1 1 1 1 2 2 3 4 8 8 8 10 11 10 10 10 10 10 14 99 100 100 81 77 88 100
32 36 26 22 20 15 10 6 5 4 3 2 3 3 2 2 2 2 2 1 1 1 1 1 1 2 2 3 3 6 9 8 9 11 12 10 10 10 10 12 40 100 100 84 86 98 100
32 37 35 21 24 17 10 6 5 4 3 3 3 3 3 2 2 2 2 2 1 1 1 1 2 2 2 3 3 5 10 10 10 12 10 11 10 10 9 10 12 94 100 100 95 82 100
32 42 41 24 27 17 13 8 5 4 4 3 3 4 3 3 2 3 2 2 2 2 2 2 2 2 2 2 4 7 11 12 12 19 11 12 10 10 11 10 13 13 100 100 100 93 88
36 46 42 27 25 23 13 8 5 4 4 4 4 4 4 3 3 3 3 3 2 2 2 2 3 3 3 3 4 6 12 14 14 12 13 13 12 11 10 9 9 11 45 100 100 90 93
31 45 41 27 28 34 14 11 6 4 4 4 4 5 4 4 3 3 4 3 3 2 3 3 4 4 4 4 4 6 10 17 17 17 15 15 14 11 10 10 9 10 13 90 100 100 100
28 41 30 32 25 31 17 13 7 5 4 4 5 6 5 4 4 4 4 4 4 2 3 4 4 5 5 7 7 8 11 17 20 19 16 13 12 11 10 11 10 9 11 16 97 100 100
33 38 33 33 25 31 28 15 10 6 4 5 5 6 6 5 4 4 4 4 5 4 4 4 5 5 7 9 13 15 17 21 24 21 19 15 13 11 11 12 12 11 10 13 21 96 100
38 43 34 37 40 31 38 19 13 8 4 5 6 6 6 6 5 4 5 5 6 5 7 6 7 6 8 10 14 16 21 26 27 25 20 18 16 16 15 14 13 13 11 12 14 20 77
36 39 35 45 42 38 42 27 16 9 5 5 6 6 6 6 6 5 6 6 6 8 10 10 11 12 11 9 11 15 19 21 20 20 18 17 17 17 16 15 15 14 14 12 12 15 18
35 32 38 39 36 37 38 29 20 12 6 5 6 7 7 7 6 6 7 7 7 8 12 14 12 14 18 18 16 14 15 15 18 20 22 18 16 16 16 16 15 14 14 13 12 13 15
39 33 36 37 37 36 40 35 17 13 7 5 5 6 7 7 6 6 6 8 9 9 15 16 16 15 18 25 27 23 20 19 18 18 18 18 19 18 15 15 14 14 15 13 12 13 15
38 37 34 37 34 34 38 39 26 16 8 5 5 6 7 6 7 6 6 8 10 11 15 23 21 21 20 20 24 27 35 33 32 33 30 26 22 20 18 17 17 15 15 13 13 12 15
38 37 36 41 29 35 36 39 27 17 9 6 5 5 6 6 7 6 6 7 9 11 14 19 30 26 25 26 26 27 32 33 36 37 38 35 36 30 25 23 20 18 17 15 14 14 16
42 33 34 43 33 32 34 52 33 17 9 6 5 4 5 6 6 6 6 8 8 10 15 19 29 37 38 34 26 28 29 30 29 26 33 40 30 32 33 28 25 19 18 16 16 16 18
33 28 35 39 49 36 40 51 33 21 10 6 4 4 5 6 6 6 6 7 8 9 12 14 19 30 40 50 50 47 40 38 37 35 28 26 32 31 33 40 32 23 19 19 18 20 21
32 32 34 36 44 48 39 53 35 22 11 6 5 4 4 5 5 6 6 6 7 9 11 13 14 21 34 43 50 63 67 58 47 40 40 37 29 30 36 46 48 35 31 24 21 22 24
32 27 34 35 40 49 42 45 40 19 11 6 5 4 4 5 5 6 6 6 8 8 10 13 15 16 21 37 48 59 69 68 61 53 39 36 30 32 34 37 52 51 46 40 41 29 23
34 29 40 44 34 45 50 42 34 23 12 6 4 4 4 5 5 5 6 6 7 8 9 10 13 16 17 23 40 57 57 61 60 57 58 42 35 34 38 29 32 56 55 58 59 55 51
35 33 39 42 37 36 33 26 26 17 10 6 4 4 4 5 5 5 6 6 7 8 8 10 12 14 15 18 24 35 46 59 61 57 50 55 40 43 46 44 43 46 52 65 69 81 81
31 43 37 38 35 43 37 20 20 14 10 6 4 4 4 5 5 5 6 7 7 8 8 9 11 13 15 16 18 23 34 43 56 59 54 58 61 50 49 55 62 40 50 51 64 70 81
34 39 33 27 28 40 35 18 16 13 8 6 4 3 4 5 5 6 7 8 8 9 8 9 11 13 15 17 18 19 23 30 48 57 61 53 64 75 71 67 58 70 65 58 56 60 71
32 44 44 30 25 34 30 17 14 13 7 6 4 3 3 4 5 6 7 8 9 10 10 10 10 13 16 19 20 20 21 23 31 32 59 62 55 64 79 80 89 69 70 66 66 70 74
21 43 40 35 27 27 28 24 12 10 6 5 4 4 3 4 4 5 7 8 9 11 12 11 10 13 14 16 19 22 23 24 28 30 41 66 64 54 60 80 94 80 78 76 87 74 72
24 27 36 27 23 27 23 18 11 10 6 5 4 5 3 3 4 5 7 9 10 12 13 12 12 13 13 15 16 16 22 23 25 27 32 48 73 67 61 62 70 78 83 86 82 75 84
25 19 30 25 22 20 20 18 12 10 5 5 6 4 3 3 4 5 7 9 11 13 13 14 13 13 15 15 20 18 18 28 27 28 29 39 64 80 80 74 64 68 77 88 85 81 82

GFSGBSN_250_rhum_045.txt.gz
RH
33 29 30 30 38 26 14 8 4 4 3 2 2 2 2 2 2 2 2 2 1 1 1 1 2 2 2 2 6 5 6 8 9 11 10 10 10 11 13 31 100 100 96 80 67 63 64
40 26 30 28 42 34 16 8 4 4 3 2 2 2 2 2 2 2 2 2 1 1 1 1 1 2 2 2 5 7 6 6 10 12 12 10 10 12 13 16 91 100 100 82 54 78 64
37 23 39 34 42 32 18 10 5 4 3 2 2 2 2 2 2 2 2 2 2 1 1 1 1 1 2 2 4 8 6 6 10 12 14 12 11 11 11 15 32 100 100 95 49 82 87
36 35 48 38 40 32 22 13 8 4 3 3 2 2 2 2 2 2 2 2 2 1 1 1 1 1 2 3 3 4 6 7 8 11 14 14 11 11 11 13 16 98 100 82 82 70 96
40 56 48 42 38 30 26 16 9 5 3 3 2 2 3 2 2 2 2 2 2 2 1 1 1 2 2 3 3 4 6 8 9 14 14 14 12 11 11 12 15 19 100 82 100 99 89
44 64 54 41 37 32 26 18 10 6 4 3 3 3 3 2 3 2 2 2 2 2 2 2 1 2 2 2 3 4 8 11 12 17 12 14 13 10 11 12 14 18 100 100 100 100 90
51 62 54 40 38 32 28 22 11 7 4 4 3 3 3 2 3 3 2 3 3 2 2 2 2 2 2 2 2 3 8 15 10 10 10 12 13 12 14 12 12 14 24 100 100 99 99
58 54 50 35 40 28 29 30 13 8 6 4 4 3 4 3 3 4 3 3 3 2 2 2 3 3 2 2 3 4 7 14 11 11 10 11 13 14 13 11 11 11 15 66 79 97 89
59 55 46 45 41 33 29 34 16 12 7 6 4 4 4 4 3 4 3 4 4 3 2 3 3 4 3 2 4 4 5 11 17 15 13 9 12 15 12 12 11 11 13 20 45 95 100
56 68 46 53 40 30 31 40 33 15 10 6 4 4 4 4 4 4 4 3 4 4 4 3 3 4 5 4 3 4 7 17 21 19 16 12 13 13 14 12 10 11 10 12 16 78 100
60 81 46 52 38 28 32 54 41 20 14 6 5 5 4 4 4 4 4 3 5 4 6 4 4 6 6 6 5 5 7 13 27 24 16 15 15 16 13 13 11 10 10 10 13 30 100
62 74 49 57 38 30 33 48 50 24 20 8 6 5 5 4 4 4 4 4 4 5 6 6 4 6 8 8 7 8 10 12 14 23 19 19 15 14 13 13 12 12 11 11 12 14 54
68 66 68 54 43 32 34 59 65 24 18 10 6 5 5 5 4 5 5 4 5 7 7 9 8 6 9 13 12 11 12 17 24 29 26 19 19 18 16 14 14 14 15 14 13 12 15
61 59 63 51 42 32 34 58 70 46 18 11 7 6 5 5 5 5 5 4 5 6 7 9 11 10 9 14 20 19 16 20 24 27 26 26 23 21 18 17 17 16 16 15 14 13 13
62 57 64 52 42 32 36 53 65 58 26 16 7 6 6 5 5 5 6 5 5 6 8 8 14 15 12 14 17 21 25 27 28 30 33 33 30 28 24 21 17 15 15 17 16 14 12
62 64 68 48 42 34 36 50 66 56 40 17 8 5 5 5 4 5 6 6 5 5 7 9 10 16 16 15 17 19 25 30 33 32 32 36 32 25 20 18 17 17 15 16 15 14 13
61 69 63 47 41 32 32 43 59 61 42 15 9 6 6 6 5 5 6 7 6 5 7 8 10 13 20 18 18 18 18 23 29 34 36 37 31 36 33 26 20 17 16 15 14 14 13
58 66 60 49 38 29 34 38 49 53 40 19 9 6 6 6 6 5 5 7 6 6 8 10 10 12 18 25 22 22 23 24 28 29 27 30 32 32 32 29 25 20 17 15 14 14 14
66 68 54 35 31 31 32 36 54 43 40 18 8 6 6 6 6 5 5 6 7 6 7 9 10 13 15 22 35 39 32 29 30 32 32 34 32 35 31 26 24 24 21 17 16 14 14
66 61 50 32 28 32 32 36 40 52 37 33 11 9 7 6 6 6 4 6 7 7 7 9 11 13 17 17 22 37 41 41 39 32 28 29 31 37 47 38 31 24 20 21 21 18 16
61 51 40 35 28 30 30 33 44 48 35 18 12 8 6 5 5 6 5 5 7 7 7 7 10 13 16 20 20 28 40 46 47 43 43 34 28 26 31 41 42 38 28 22 22 20 17
56 43 36 29 28 28 34 31 39 48 40 20 13 9 6 6 5 5 4 5 6 8 7 7 8 11 14 17 20 22 28 41 58 56 53 46 35 34 29 25 40 44 42 38 24 20 19
46 40 33 30 30 31 31 31 34 44 36 16 12 13 7 8 5 4 4 5 6 8 8 8 8 9 11 15 18 21 26 30 45 54 63 59 50 48 39 30 30 37 37 41 37 30 24
39 39 33 30 31 33 35 28 30 40 42 22 11 10 10 9 5 4 4 5 6 8 8 9 9 9 12 16 18 21 23 24 28 33 43 61 55 52 47 47 39 32 36 42 43 41 53
38 35 33 30 36 38 40 25 23 34 36 22 19 16 12 8 5 4 4 4 5 8 9 9 10 9 10 13 16 19 22 22 22 26 33 46 67 54 56 55 48 43 42 42 37 38 45
38 39 38 34 37 42 37 21 21 30 32 26 16 13 16 7 6 4 4 4 6 8 10 10 10 10 10 11 13 16 19 21 23 23 28 37 59 71 57 63 56 40 51 54 50 50 46
30 38 42 47 46 43 30 23 18 24 24 21 16 14 19 11 5 4 5 5 5 8 10 10 12 11 11 11 12 14 17 19 23 25 28 29 46 71 79 62 58 56 59 60 59 51 56
32 37 43 55 50 38 31 21 20 20 21 20 15 14 15 22 5 3 5 7 6 8 10 11 13 12 11 11 13 14 16 18 18 24 26 28 32 44 82 81 69 60 76 67 54 58 66
37 41 47 60 56 40 28 19 19 18 19 21 20 12 15 16 6 4 5 7 8 8 10 11 13 14 14 13 15 16 18 24 24 23 25 31 32 31 48 78 81 76 68 75 74 65 66

GFSGBSN_250_rhum_048.txt.gz
RH
32 29 27 26 21 21 22 13 9 7 6 4 3 2 2 2 2 2 2 2 2 1 1 1 1 2 1 2 4 7 7 7 7 9 9 9 10 10 9 14 17 49 100 100 100 99 100
32 29 28 26 22 21 23 17 10 8 6 4 3 2 2 2 2 2 2 2 2 1 1 1 1 1 2 2 2 5 8 7 9 10 10 10 11 12 9 11 15 30 100 100 100 99 100
35 28 28 25 29 17 29 24 12 10 6 4 3 2 2 2 2 2 2 2 2 1 1 1 1 1 1 2 2 3 5 8 8 11 12 11 12 11 11 10 14 21 100 100 89 97 100
34 32 28 21 32 20 32 32 20 13 7 4 2 3 2 2 2 2 2 2 2 2 1 1 2 1 1 2 2 3 3 8 9 13 13 13 12 12 12 10 12 18 59 79 95 95 100
30 31 30 27 35 23 36 40 25 20 9 5 3 3 2 2 2 2 2 2 2 2 1 2 2 1 1 2 3 4 4 7 12 14 14 14 10 13 12 10 11 16 25 96 100 100 100
29 31 30 32 33 25 40 43 34 28 14 7 4 2 2 2 2 2 3 2 2 2 2 2 2 2 2 2 3 3 4 6 13 15 13 13 12 10 13 11 12 17 22 100 100 100 100
33 31 30 36 39 29 44 44 37 33 20 9 4 3 3 2 3 3 3 3 2 3 2 2 2 2 2 2 2 3 3 6 14 14 13 11 12 12 18 15 12 17 20 100 100 100 92
33 33 28 37 34 30 39 44 41 38 24 11 7 3 3 2 3 3 3 3 3 3 3 2 3 3 2 3 3 3 4 9 15 18 13 12 16 14 14 16 13 14 19 50 100 87 62
33 32 28 37 36 37 41 43 40 45 25 15 8 4 3 3 3 3 3 4 3 3 3 3 3 3 2 3 4 4 4 8 17 20 18 16 17 16 15 18 15 13 17 22 100 97 64
32 30 30 38 42 39 37 45 35 52 33 26 13 6 4 4 3 4 4 4 4 3 4 4 3 4 3 2 3 5 5 8 16 20 20 16 14 14 15 16 16 14 13 18 24 100 99
37 31 29 37 49 51 44 45 41 46 36 25 15 9 6 5 4 5 4 4 5 4 5 5 4 3 5 4 4 4 5 5 11 13 10 8 12 13 14 16 17 15 13 14 20 24 99
42 33 30 37 40 48 39 41 46 46 44 34 22 11 6 6 5 4 5 4 5 4 4 5 6 5 5 6 5 5 7 7 7 10 12 13 12 13 13 15 15 15 13 14 14 18 21
46 35 31 38 50 49 45 43 44 43 46 34 32 14 9 8 6 5 5 4 5 6 5 5 7 7 7 8 8 7 8 8 13 16 18 18 16 17 16 14 15 16 15 13 12 13 16
44 37 36 38 47 41 45 38 40 44 46 38 44 22 10 9 7 5 4 5 5 7 5 7 8 9 8 9 11 10 10 9 13 18 19 22 22 20 22 16 16 17 17 17 14 13 15
50 31 38 36 44 42 42 40 38 42 49 38 40 35 15 9 7 6 5 4 4 7 7 7 8 11 11 9 12 15 15 15 16 19 22 26 30 34 32 33 28 23 23 20 19 16 15
52 34 33 41 39 45 42 38 32 40 47 40 36 39 25 12 9 6 5 4 5 5 7 7 8 10 15 13 12 15 21 24 28 32 36 39 36 34 30 28 25 22 18 16 18 19 18
48 37 34 43 39 41 41 37 33 38 48 41 35 33 27 14 10 8 6 5 6 5 6 6 8 10 18 20 17 14 17 27 36 42 45 44 41 40 37 36 32 25 21 18 17 18 19
40 35 39 40 43 37 39 31 29 37 46 48 38 29 20 12 10 9 5 6 5 6 5 6 7 8 11 19 22 20 20 24 26 30 35 38 40 40 40 33 29 27 24 18 15 14 16
41 41 39 43 44 35 33 28 24 35 52 54 53 35 23 14 11 13 5 6 6 6 6 6 7 8 11 13 20 33 22 22 22 28 32 32 32 35 36 32 33 28 22 18 17 15 14
43 42 38 42 37 29 31 25 24 25 47 61 52 36 21 15 8 11 7 4 6 6 7 7 7 8 9 12 16 28 43 40 26 23 23 26 28 33 32 30 26 27 24 20 17 17 15
46 44 48 43 36 32 23 24 20 21 36 52 46 39 20 21 7 9 8 4 5 5 8 8 8 8 8 9 15 17 29 48 61 59 41 29 27 28 30 34 36 26 24 22 21 17 17
44 46 54 43 36 33 23 21 19 23 31 49 44 46 19 10 6 9 7 4 4 5 6 8 9 9 9 9 13 13 18 27 39 58 68 68 55 39 33 33 38 34 29 24 21 21 18
40 43 53 48 40 27 23 20 20 24 29 42 39 43 26 12 6 7 8 4 4 5 6 8 9 10 10 10 12 16 20 23 29 36 49 68 75 69 52 37 32 44 26 26 24 28 23
36 45 50 43 35 28 22 21 21 24 27 41 43 34 23 23 6 6 7 5 4 4 6 7 10 12 12 11 12 14 16 19 21 23 30 43 60 73 61 60 44 31 28 37 29 27 41
41 46 39 37 32 29 23 28 24 25 24 32 40 32 26 22 7 8 8 6 5 5 6 7 9 12 13 12 11 11 13 17 19 20 21 27 37 53 65 63 56 43 38 37 36 36 34
51 40 38 33 34 38 32 26 28 25 23 29 33 28 30 18 11 10 7 5 5 5 6 7 11 13 14 14 13 13 13 15 18 22 23 24 31 36 52 70 63 58 58 47 43 42 39
45 40 36 39 45 45 41 34 31 26 28 26 31 26 32 26 11 11 7 5 5 6 6 7 10 13 16 16 15 15 15 17 19 20 24 25 26 28 34 51 68 73 77 67 51 45 48
40 37 42 49 48 42 41 38 34 31 30 33 28 17 26 33 12 12 8 6 6 6 7 8 10 12 14 16 16 16 20 22 21 24 24 25 27 30 36 36 55 72 75 74 78 69 57
28 39 44 40 52 44 46 44 40 29 27 29 26 16 27 33 15 7 8 6 6 7 8 9 10 11 13 14 14 15 16 22 23 30 34 30 28 28 31 34 42 56 77 79 82 92 82

GFSGBSN_250_rhum_051.txt.gz
RH
81 56 46 27 22 22 23 21 20 16 12 8 6 6 3 2 2 2 2 2 2 1 2 1 1 2 2 2 2 3 4 5 5 5 6 8 10 9 10 14 13 15 22 60 86 100 100
87 60 53 36 23 23 21 22 23 20 11 10 7 5 3 2 2 2 2 2 2 2 2 1 1 2 2 2 2 2 3 6 6 7 8 9 12 11 11 15 14 14 18 50 90 100 100
88 78 49 42 26 25 25 28 24 23 19 15 9 5 4 2 2 2 2 2 2 2 2 1 2 2 2 2 2 2 3 6 8 7 10 11 13 13 12 14 14 13 16 37 74 96 100
81 86 62 46 34 24 26 27 32 30 28 20 9 6 4 3 2 2 2 2 2 2 2 1 2 2 1 1 2 2 3 4 9 7 12 10 11 13 12 13 15 13 14 20 64 87 100
77 68 85 65 39 25 26 25 32 31 39 28 12 7 4 2 3 2 2 2 2 2 2 1 2 2 1 1 2 2 3 3 10 9 12 12 12 12 12 13 15 13 12 18 44 96 100
81 97 93 65 42 26 25 26 30 37 45 31 14 9 4 3 3 2 2 2 2 2 2 2 2 2 1 2 2 2 3 4 10 13 11 12 11 10 12 10 14 17 14 19 36 87 100
88 80 99 75 45 32 28 27 30 40 47 30 15 9 5 5 3 3 2 2 3 2 2 2 2 2 2 2 2 3 4 5 12 16 12 14 10 12 14 16 16 18 15 17 27 100 100
69 82 89 96 55 32 23 25 33 52 48 33 19 14 7 6 3 3 3 2 3 3 2 3 2 2 2 2 2 2 4 5 11 18 16 15 11 14 14 16 16 19 16 16 20 53 100
70 76 93 94 62 40 27 28 34 48 45 34 28 15 11 8 5 4 3 3 2 3 3 3 3 3 2 2 3 3 4 5 10 17 20 15 14 12 15 17 17 20 18 16 19 22 100
62 72 84 77 66 51 29 29 33 44 43 34 34 17 12 11 8 5 4 3 3 4 3 3 4 3 3 2 3 5 5 5 6 16 20 16 12 13 18 18 20 18 19 16 16 20 100
64 74 80 72 60 58 26 28 35 50 41 34 42 26 12 15 10 6 4 3 3 4 4 3 4 4 4 4 3 4 5 5 8 13 14 14 15 16 19 17 20 21 20 19 16 18 32
71 74 76 79 59 60 26 31 33 45 39 36 37 34 13 21 14 8 5 4 4 4 5 4 4 5 4 4 4 4 5 8 10 9 17 20 17 17 18 18 20 20 20 20 18 16 20
70 70 73 77 60 49 25 29 33 48 39 33 36 44 21 20 20 8 6 5 4 4 5 6 4 6 6 5 6 5 6 8 11 14 13 15 16 16 16 18 18 20 20 19 19 16 17
80 76 82 69 57 41 24 30 37 44 36 33 39 40 28 18 22 10 7 5 4 4 5 6 6 6 8 8 6 8 8 8 8 12 13 11 12 13 18 18 18 20 20 20 20 18 19
78 84 77 72 54 38 24 29 38 46 35 30 35 38 42 20 18 13 7 5 5 5 4 7 7 6 10 9 9 9 10 11 13 15 17 19 21 22 26 20 18 18 19 19 19 20 19
72 83 78 70 52 42 24 30 37 45 32 31 33 42 43 22 18 14 8 6 4 5 6 6 8 8 8 12 11 11 13 16 16 19 25 25 32 34 34 36 35 34 34 30 26 24 24
80 78 83 74 59 46 29 32 38 40 31 29 34 38 41 40 18 19 10 6 4 4 6 7 7 8 11 12 15 13 14 16 21 25 29 37 45 48 38 45 52 49 38 31 29 27 26
90 82 87 66 68 45 37 31 38 38 28 28 30 35 43 47 20 13 9 6 5 5 4 7 8 8 10 16 21 19 17 17 21 22 23 31 37 43 38 42 39 38 33 30 24 23 23
92 82 82 66 73 48 40 35 38 34 22 24 26 35 39 48 33 9 10 6 4 4 5 5 8 8 9 14 25 30 23 23 24 25 26 30 34 37 35 31 29 27 24 22 20 18 19
98 78 83 73 72 50 37 40 37 32 19 21 25 31 39 44 38 12 9 8 4 4 5 5 8 8 9 10 18 34 44 36 28 28 30 34 34 33 30 32 30 32 24 20 17 19 18
100 85 83 78 66 49 35 46 37 28 19 22 27 29 38 38 48 20 8 7 4 4 5 6 7 9 9 10 12 16 26 47 56 49 38 38 34 33 40 37 37 33 27 25 27 21 20
98 91 87 77 60 48 40 46 38 24 21 22 29 29 39 39 40 22 7 8 5 4 4 5 8 9 10 10 12 15 22 34 49 60 68 71 59 41 42 40 38 34 30 30 24 25 27
100 84 84 67 52 45 48 50 36 24 24 23 28 31 44 41 42 20 7 7 6 4 4 6 8 10 11 11 13 16 23 26 34 50 62 74 75 79 73 72 57 51 32 32 30 28 24
100 86 79 67 52 47 53 43 34 24 27 28 32 31 40 43 37 27 8 5 6 4 4 5 8 10 12 12 14 14 17 19 24 31 42 46 66 84 76 80 87 70 48 44 41 36 36
100 86 87 72 46 54 51 43 32 29 34 36 31 28 37 37 39 42 8 6 5 4 4 5 8 9 13 14 14 14 14 18 21 22 27 32 38 51 60 70 66 62 69 71 63 34 37
97 96 86 60 48 51 40 44 33 30 36 41 36 31 31 39 42 45 11 7 6 4 4 5 8 9 11 14 15 16 15 17 21 23 24 28 28 29 35 48 59 62 60 68 65 53 56
92 97 77 51 49 42 40 53 42 36 42 41 39 36 33 40 41 47 17 10 7 5 5 5 7 10 12 14 16 18 17 18 22 23 26 27 28 27 28 33 34 53 60 55 67 69 66
99 86 67 60 53 51 54 58 55 41 44 40 38 43 31 36 34 47 26 12 9 7 6 7 8 9 11 13 13 15 18 17 18 20 21 23 24 27 32 32 33 39 53 62 59 69 79
95 73 59 59 53 59 58 68 58 48 48 42 37 45 36 36 28 35 40 29 17 6 7 8 8 10 12 13 14 18 20 23 23 24 30 31 31 31 34 29 30 38 49 62 71 63 66

GFSGBSN_250_rhum_054.txt.gz
RH
82 83 73 69 61 67 60 37 28 20 25 24 19 9 7 4 4 2 2 2 2 2 2 1 1 1 2 1 2 2 4 4 4 5 6 7 7 11 13 14 16 14 13 13 16 14 40
66 78 83 70 59 69 47 48 24 24 28 27 19 16 8 5 4 3 2 2 2 2 2 2 2 1 2 2 2 2 2 4 5 6 7 6 7 9 14 16 16 16 14 14 16 19 37
68 75 84 69 68 71 56 46 32 30 28 33 24 22 13 6 4 4 2 2 2 2 2 2 2 1 2 2 2 2 2 3 6 6 6 7 8 8 12 16 16 19 17 15 16 19 18
73 78 84 71 59 73 56 48 35 30 26 31 28 27 16 7 4 4 2 2 2 2 2 2 2 2 2 2 2 2 2 3 6 8 7 8 8 10 11 16 17 18 18 16 17 24 21
62 65 71 68 66 69 58 49 34 29 29 32 36 28 27 10 5 4 2 2 2 2 2 2 2 2 2 2 2 2 3 3 4 8 9 9 10 10 11 14 16 16 18 18 19 18 37
60 64 68 63 68 67 61 46 40 29 28 33 34 34 26 15 6 4 3 2 2 2 2 2 2 2 2 2 2 2 3 3 4 7 11 10 9 10 10 11 16 22 21 22 21 19 46
68 72 65 61 76 66 62 48 43 38 29 40 38 37 28 15 7 4 3 2 2 2 2 2 2 2 2 2 2 2 2 3 4 6 12 12 11 12 13 14 17 18 21 25 24 21 19
75 79 66 63 82 73 63 57 51 37 28 45 42 36 28 18 10 5 4 2 3 2 2 2 2 2 2 2 2 2 2 3 4 8 8 11 11 10 12 12 15 18 18 23 22 21 19
82 88 72 73 88 74 64 56 50 33 28 42 45 35 28 26 13 5 4 2 2 3 3 3 2 3 2 2 2 2 2 4 5 7 7 11 14 12 13 13 15 18 19 22 25 21 20
88 86 71 79 86 82 69 67 51 40 32 44 46 35 28 30 15 6 6 3 2 3 3 3 3 3 2 2 3 3 3 4 6 11 10 12 17 18 16 15 20 20 19 19 21 21 20
93 90 73 89 86 85 76 65 56 42 32 37 47 35 32 30 18 8 5 4 2 3 3 3 3 3 3 3 3 4 4 4 6 8 7 13 18 21 16 16 19 21 20 19 20 22 22
100 92 86 96 92 83 79 65 56 40 30 35 52 35 34 29 22 10 6 6 4 3 3 3 4 4 4 4 4 4 5 6 7 12 11 13 16 17 15 16 16 18 20 21 20 21 23
100 96 94 95 99 79 78 61 52 47 28 35 48 38 37 32 25 12 6 6 4 3 4 3 3 4 5 5 4 4 6 7 8 11 12 11 11 16 22 18 18 18 20 20 20 20 24
100 93 93 90 100 81 78 65 55 49 31 37 53 36 39 35 34 13 7 6 5 3 4 4 4 4 5 6 6 6 7 7 9 10 12 10 11 14 20 23 21 21 22 21 21 22 26
100 92 92 88 100 83 81 72 59 52 32 40 46 39 31 35 37 18 5 6 6 4 4 4 4 5 6 6 7 7 9 10 12 12 14 18 21 21 23 26 24 23 21 22 22 23 23
100 93 86 93 100 90 80 72 63 55 32 41 38 34 30 40 48 34 6 6 5 5 4 4 4 6 7 6 7 8 9 14 18 19 22 25 27 31 33 29 26 23 22 22 23 25 24
100 97 81 96 100 89 85 73 66 58 38 43 40 30 32 40 42 41 10 6 5 6 5 4 4 5 7 8 8 10 11 14 19 19 24 32 42 44 53 68 65 49 39 30 28 28 26
100 91 85 100 100 94 85 77 69 55 41 44 40 28 32 45 44 48 22 6 6 4 4 5 5 6 8 8 9 10 11 14 18 22 22 24 24 46 54 59 77 86 96 82 67 74 59
100 97 93 97 100 94 80 72 71 54 46 45 39 25 36 45 44 50 46 8 6 5 4 4 5 6 8 10 11 13 13 14 16 20 23 26 29 36 39 40 53 47 46 46 48 40 34
100 99 94 98 100 97 81 78 69 51 47 43 34 25 30 46 41 49 40 25 8 5 4 4 6 7 10 12 12 13 17 19 18 19 20 25 26 31 31 36 32 32 27 29 29 27 25
98 95 100 100 100 95 84 80 74 46 49 41 30 23 32 39 40 49 47 55 13 8 5 4 5 6 8 13 16 16 20 27 28 28 24 26 27 31 31 29 31 33 30 28 28 24 23
100 100 100 100 100 90 83 83 72 51 56 39 29 24 28 39 40 45 54 52 35 13 6 4 4 6 8 12 15 20 23 26 34 40 44 39 30 31 35 34 38 38 34 30 28 25 27
100 100 100 100 94 98 88 80 68 53 56 40 27 27 28 36 44 47 51 58 48 15 10 5 4 6 8 10 14 18 21 24 30 36 44 51 60 65 68 55 43 57 34 34 42 36 29
100 100 100 100 99 100 83 88 66 50 54 37 29 26 27 35 47 48 53 60 52 18 11 6 5 5 8 10 14 17 18 20 20 26 35 41 53 73 74 91 99 86 55 58 59 44 37
100 100 100 100 100 99 91 97 74 58 51 39 40 35 34 36 44 48 51 66 58 22 10 5 5 5 8 10 13 16 18 19 22 24 30 35 38 45 57 74 91 90 91 85 87 53 62
100 100 100 100 100 96 95 92 75 60 50 38 39 42 49 44 40 42 46 67 53 16 10 6 5 5 8 9 12 14 19 19 22 21 23 30 32 31 38 40 50 45 67 86 80 72 78
100 100 100 100 100 99 94 93 71 63 44 40 48 47 52 42 35 42 43 55 65 24 10 8 6 6 7 10 12 14 18 21 21 21 22 23 31 32 32 41 32 39 45 52 70 72 69
95 100 100 100 99 100 96 75 70 64 44 51 53 50 57 39 38 42 44 47 67 41 11 7 6 7 8 9 11 13 16 21 22 24 26 25 24 32 37 38 28 33 30 38 46 70 74
92 100 100 100 100 96 90 69 76 60 50 59 56 54 51 41 41 40 39 46 58 81 19 10 10 9 10 10 11 13 14 18 22 24 28 30 28 28 30 31 29 36 37 33 37 47 68

GFSGBSN_250_rhum_057.txt.gz
RH
49 44 43 38 58 63 65 63 50 45 47 41 30 17 14 10 8 5 4 4 3 2 2 2 2 2 2 2 2 2 3 3 4 4 4 6 6 7 11 12 12 14 14 16 20 19 15
57 50 47 43 44 63 68 64 51 49 52 50 29 16 16 17 8 5 4 4 3 2 2 2 2 2 2 1 2 2 2 3 4 4 4 6 6 8 8 16 13 15 15 16 18 19 16
55 45 44 50 52 64 66 72 58 55 59 48 38 21 19 17 13 5 4 3 3 2 2 2 2 2 1 2 2 2 2 2 4 4 4 6 8 9 8 14 16 15 16 15 19 18 19
59 46 49 52 46 80 72 70 63 62 65 46 44 19 19 14 11 9 5 4 3 2 2 2 2 2 1 2 2 2 2 3 3 5 6 6 8 10 10 11 18 18 17 14 16 17 19
64 62 62 55 53 76 87 60 63 61 58 58 45 22 23 27 17 12 6 4 3 2 2 2 2 2 1 2 2 2 2 3 4 4 7 8 9 10 10 10 15 19 19 18 16 17 21
75 68 68 46 53 70 96 59 77 70 66 62 50 27 23 24 22 14 7 4 3 2 2 2 2 2 2 2 2 2 2 3 4 3 10 8 7 8 9 10 12 19 21 20 18 18 19
77 66 64 44 59 76 95 66 74 77 59 62 52 33 32 33 24 14 8 3 3 2 2 2 2 2 2 2 2 2 2 2 4 4 10 11 7 8 9 12 13 21 28 29 22 21 21
79 70 55 43 59 86 96 73 77 77 62 60 50 34 37 39 29 17 8 4 3 2 2 2 2 2 2 2 2 2 2 2 5 5 7 11 9 10 12 12 15 20 26 27 21 21 21
80 58 43 43 61 98 96 73 82 71 60 64 60 36 38 40 27 19 9 4 3 2 2 2 2 2 2 2 2 2 2 2 4 5 6 13 11 11 12 12 12 16 22 28 30 23 21
68 56 41 38 67 100 98 81 88 69 67 68 59 39 44 42 31 20 11 5 3 2 2 3 2 2 3 3 2 2 2 3 5 6 5 11 14 16 15 13 14 16 19 21 24 24 22
66 47 45 51 81 100 95 85 83 72 70 69 69 43 47 40 33 24 12 6 3 2 2 3 3 3 3 3 2 2 3 3 4 6 5 6 10 18 16 14 15 16 17 17 21 21 23
77 63 44 73 98 100 97 89 80 79 78 74 75 51 52 40 33 22 12 6 3 2 2 3 3 3 3 4 3 3 4 5 5 5 4 5 8 18 21 20 16 16 17 16 19 21 22
98 87 67 80 100 100 100 87 80 84 82 73 73 50 51 38 32 25 18 7 4 3 3 3 4 4 4 5 4 3 4 5 5 6 6 6 13 21 24 24 19 18 18 17 17 19 25
100 100 82 84 100 100 100 95 86 85 83 84 78 57 56 37 36 28 27 12 5 3 3 3 4 4 4 5 6 4 4 5 6 8 10 10 12 14 18 23 24 20 17 18 19 24 30
96 94 100 93 100 100 100 99 90 88 80 83 79 52 50 36 33 31 26 21 6 4 2 3 4 4 5 5 8 6 5 6 7 8 10 14 18 20 25 25 25 26 22 20 22 24 26
88 91 100 100 100 100 100 96 92 90 77 83 83 57 54 34 34 38 35 21 10 4 4 3 3 5 5 6 8 10 7 8 10 11 14 20 23 26 30 37 36 31 28 22 22 25 25
99 98 100 100 100 100 100 94 94 85 79 77 92 60 55 32 31 42 39 32 15 7 3 3 4 4 5 7 7 12 12 10 11 14 19 22 32 38 38 44 40 38 34 30 28 27 28
100 100 100 99 100 100 97 93 96 85 80 78 84 59 56 30 32 44 45 40 20 8 4 3 4 4 6 6 8 8 15 12 13 14 18 23 25 41 45 61 65 68 50 48 42 39 36
100 100 100 100 100 100 95 92 100 85 75 73 85 60 52 28 35 45 42 58 20 15 5 4 4 5 6 7 9 8 13 17 14 18 21 25 30 36 49 62 66 65 82 85 65 52 51
100 100 100 100 100 100 99 97 97 88 78 70 84 60 57 28 40 38 46 67 59 15 8 5 4 5 6 8 9 10 9 16 23 19 19 23 24 28 31 36 52 67 72 61 55 52 56
100 100 100 100 100 100 100 100 88 84 78 74 73 54 52 28 40 42 48 60 57 33 9 9 4 5 6 6 9 12 12 12 18 26 24 23 24 23 28 32 34 41 40 40 42 44 37
100 100 100 100 100 94 100 100 87 81 75 78 70 56 45 27 38 46 46 60 62 46 24 14 5 5 6 8 9 10 12 14 16 26 30 30 25 22 25 28 31 34 32 30 31 32 33
100 100 100 100 100 100 100 100 86 86 81 72 83 56 41 28 38 45 45 52 72 59 47 22 7 5 6 7 10 11 12 15 17 18 27 32 43 47 36 29 30 32 26 28 30 31 35
100 100 100 100 100 100 100 98 90 84 77 79 67 67 40 31 38 45 45 48 50 87 82 34 13 6 5 7 9 12 14 16 19 22 24 27 38 47 48 63 62 45 34 33 33 26 29
100 100 100 100 100 100 100 96 100 80 77 82 72 64 37 35 42 48 43 51 52 69 76 57 28 8 4 6 8 12 16 16 17 21 27 30 40 40 41 47 58 60 61 64 64 54 57
100 100 100 100 100 100 97 100 98 85 84 89 67 60 37 34 40 46 43 44 50 55 78 75 40 15 6 6 7 9 14 18 19 20 21 22 27 37 45 48 47 50 58 66 67 72 71
100 100 100 100 100 100 99 100 100 81 92 81 69 58 36 35 39 39 39 43 55 49 66 73 42 23 14 7 7 8 9 15 18 20 23 24 25 30 44 44 29 36 37 37 34 43 52
100 100 100 100 100 100 100 100 92 90 90 80 71 55 36 40 39 45 42 41 55 51 59 81 56 43 17 10 8 8 10 12 16 19 23 24 24 25 27 29 28 29 31 33 39 35 32
100 100 100 100 100 100 100 100 93 95 87 77 69 50 39 43 44 46 46 43 52 56 50 75 64 66 31 15 12 10 10 11 12 16 20 24 26 28 31 29 32 32 40 42 34 33 32

GFSGBSN_250_rhum_060.txt.gz
RH
50 69 65 73 69 74 79 74 59 48 49 48 45 33 33 33 21 7 4 4 5 3 3 2 2 2 1 2 2 2 2 2 2 3 3 4 4 5 8 11 11 12 12 15 13 14 17
48 50 84 91 74 83 80 77 58 50 46 44 45 36 34 22 23 10 5 4 4 3 2 2 2 2 1 2 1 1 1 2 2 3 3 5 5 6 9 11 11 14 11 13 14 15 17
80 80 95 96 66 72 71 75 58 51 48 53 36 41 34 27 22 14 5 4 4 3 2 2 2 1 2 2 1 1 2 2 2 4 3 4 5 6 9 12 13 14 12 12 15 17 18
89 88 100 89 78 67 61 69 61 56 54 64 43 43 32 22 20 16 7 4 6 4 2 2 2 1 2 2 1 1 2 2 2 3 4 4 6 7 8 11 15 16 13 11 15 18 18
99 97 99 81 76 78 68 69 71 64 58 71 47 50 37 27 25 15 8 4 6 4 3 2 2 1 2 2 1 2 2 2 3 3 5 4 5 7 9 9 13 16 16 13 12 19 20
94 89 84 74 60 78 71 68 72 71 63 77 48 49 42 36 26 17 8 4 5 5 3 2 2 1 2 2 1 1 2 2 3 3 3 7 5 6 8 9 10 16 18 16 15 19 21
95 88 75 74 66 75 74 69 83 78 76 80 56 50 45 36 32 16 15 6 5 5 3 2 2 2 2 2 2 1 2 2 2 3 4 9 7 8 10 12 11 13 21 23 21 21 22
83 74 62 61 77 64 62 78 90 87 87 77 55 56 48 43 37 24 18 9 4 6 4 2 2 2 2 2 2 2 2 2 2 4 6 9 11 9 10 10 13 14 18 23 21 21 21
72 63 63 54 60 57 65 76 88 94 90 82 62 65 55 42 42 32 22 11 6 5 4 2 2 2 2 2 2 2 2 2 2 5 7 10 11 10 9 10 12 13 16 23 24 22 21
61 57 56 50 53 47 49 85 88 99 94 85 68 73 60 48 41 37 33 17 11 6 4 2 2 2 2 3 2 2 2 2 3 6 7 9 9 11 10 12 14 15 15 19 23 23 22
56 46 57 48 59 43 52 94 96 97 95 82 73 70 67 46 43 50 39 18 12 7 4 3 2 3 2 3 3 2 2 2 3 8 7 6 6 13 14 15 16 16 17 19 20 21 23
48 50 47 56 45 43 71 94 100 97 99 82 78 73 64 47 51 50 39 20 13 7 4 3 3 3 3 3 4 3 3 3 4 6 6 6 8 12 18 17 16 17 19 19 20 21 22
41 40 38 43 54 48 72 95 100 100 100 88 77 76 65 63 58 55 36 28 15 8 4 3 3 3 3 4 4 4 3 3 4 6 7 7 8 16 20 20 18 18 19 20 20 22 27
42 46 40 43 70 72 76 98 100 100 98 98 80 84 69 75 62 53 37 28 16 7 4 4 4 3 3 4 4 5 4 4 5 6 7 8 10 15 21 24 22 21 19 20 20 24 30
46 54 58 76 84 72 92 100 100 95 99 93 86 77 65 72 64 51 36 25 20 8 5 4 4 4 4 4 5 7 5 5 6 6 9 12 17 24 25 25 25 25 23 22 22 22 25
51 62 78 97 87 86 100 100 100 94 93 88 88 78 67 71 64 43 37 28 22 9 6 4 4 4 4 5 6 5 8 7 7 9 13 15 16 21 27 29 29 28 26 24 22 24 24
66 75 84 93 92 98 100 100 100 100 98 92 88 78 63 73 59 42 40 34 25 12 8 5 4 4 5 5 7 5 9 10 9 11 15 21 24 21 20 26 30 34 34 34 31 26 24
68 69 92 100 100 100 96 100 100 100 95 97 89 76 64 78 57 38 45 38 23 20 9 6 5 4 5 6 8 7 6 11 12 12 16 22 34 41 41 42 41 44 45 43 39 34 31
72 78 100 100 100 100 99 100 100 100 93 95 91 68 75 81 56 39 41 40 33 32 12 10 6 5 5 6 8 10 8 10 13 12 14 17 24 32 41 55 69 81 66 60 48 44 44
67 94 100 100 100 100 100 100 100 100 94 90 83 72 76 70 53 37 39 45 42 39 15 13 8 8 6 5 8 11 12 10 12 16 15 16 18 31 37 43 56 54 48 57 54 60 59
70 98 100 100 100 100 100 100 100 99 100 83 78 76 82 65 54 36 37 46 55 50 29 19 11 8 8 7 6 9 12 13 13 18 18 18 20 27 31 38 51 48 43 49 60 53 64
68 95 100 100 100 100 100 100 100 100 99 79 80 76 87 69 50 38 40 57 59 69 48 27 22 12 10 8 7 7 10 13 14 14 18 22 22 24 26 29 36 42 44 45 40 31 29
56 71 100 100 100 100 100 100 100 100 95 76 78 85 79 64 47 39 37 51 59 70 53 42 36 30 15 10 7 7 9 11 13 15 18 23 30 29 29 27 28 40 38 40 42 39 43
47 75 100 100 100 100 100 100 100 100 90 82 79 86 74 67 46 37 39 51 55 80 63 54 40 36 27 13 8 7 8 10 13 17 18 19 25 35 42 41 33 26 29 34 32 33 37
54 92 100 100 100 100 100 100 100 100 86 89 86 83 67 71 47 35 40 44 53 72 57 60 53 46 27 25 14 10 8 9 11 12 15 19 20 25 28 34 37 34 40 58 58 54 45
62 100 100 100 100 100 100 100 100 99 94 95 86 78 65 75 50 37 41 47 52 72 62 61 58 54 43 31 27 17 11 9 11 14 14 17 21 25 30 28 32 38 43 46 45 69 84
46 95 100 100 100 100 100 100 100 98 99 99 86 78 79 83 54 39 43 48 49 64 62 65 65 63 53 44 30 22 16 12 10 12 18 18 19 24 29 29 32 46 65 59 45 53 50
31 70 100 100 100 100 100 100 100 100 100 97 94 71 85 80 55 43 44 52 52 50 62 65 61 65 63 57 42 29 22 16 12 10 12 16 20 22 25 28 30 36 47 55 66 57 45
42 69 100 100 100 100 100 100 100 100 99 100 95 75 82 78 59 48 50 48 53 49 56 55 63 65 66 59 48 35 25 21 23 16 11 14 18 22 25 27 29 32 34 39 46 55 52

GFSGBSN_250_rhum_063.txt.gz
RH
51 50 72 48 63 75 94 88 77 70 74 69 56 47 40 23 18 17 29 9 5 4 4 4 3 2 2 2 1 1 2 2 2 2 3 3 3 4 5 8 9 16 15 12 10 13 15
49 58 80 67 86 78 91 85 69 79 81 70 50 43 44 33 22 20 30 9 6 3 3 4 4 2 2 2 2 2 2 2 2 2 2 3 3 4 6 7 9 16 18 14 11 16 16
44 83 89 99 97 72 82 87 70 78 69 79 63 45 43 41 28 18 30 15 5 4 3 4 3 2 2 2 2 2 2 2 2 2 3 3 3 4 6 7 11 14 24 16 13 17 16
46 49 90 95 80 60 86 85 67 67 76 97 54 50 52 48 34 25 34 21 6 5 3 4 4 2 2 2 2 2 1 2 2 2 3 3 4 4 5 8 11 14 24 23 16 18 16
32 44 44 94 95 61 89 81 67 60 76 81 60 56 60 48 37 36 32 22 7 5 4 4 3 2 2 2 2 2 2 2 2 2 3 4 4 4 6 8 10 15 24 17 15 16 17
61 58 39 52 96 67 91 89 70 57 64 76 63 53 63 47 39 42 40 25 9 5 5 4 3 2 2 2 2 2 2 1 2 2 3 4 6 4 7 9 9 13 17 17 16 14 14
73 57 50 54 98 90 88 80 74 57 63 59 69 64 63 52 34 56 44 26 10 6 5 4 3 2 2 2 2 2 2 1 2 3 3 5 6 4 6 10 11 16 25 23 21 15 16
71 66 55 80 87 95 86 72 67 57 59 57 58 74 57 53 42 63 41 43 10 8 7 4 4 2 2 2 2 2 2 1 2 2 3 4 6 6 7 9 11 12 14 21 20 20 20
100 99 74 100 100 76 74 68 61 57 62 55 50 65 63 60 57 64 47 46 13 10 7 4 4 2 2 2 2 2 2 2 2 3 4 4 5 8 7 9 11 14 15 22 24 26 20
100 96 96 92 86 62 57 65 61 51 68 58 65 64 69 64 73 67 49 54 16 12 9 5 3 2 2 2 2 2 2 2 2 3 5 6 7 10 10 11 12 15 15 19 29 28 24
98 100 90 64 55 44 46 57 56 52 57 65 74 73 70 61 82 71 53 45 31 13 9 7 4 2 2 3 2 2 2 2 2 5 8 8 9 16 14 15 16 14 14 15 22 31 22
53 73 63 58 57 36 44 50 50 61 59 87 72 81 72 70 88 75 58 49 34 12 10 6 4 3 3 3 3 2 2 2 3 6 7 8 9 17 16 15 16 17 15 15 17 18 22
65 55 67 58 49 50 52 59 69 64 78 94 78 90 75 85 94 69 67 54 38 14 11 6 4 3 3 3 4 3 3 3 4 5 6 7 10 16 17 16 14 16 15 15 15 15 19
70 71 61 56 52 46 55 66 80 87 100 93 89 94 84 87 94 68 71 51 39 14 12 6 5 3 4 4 5 4 3 3 5 7 8 8 8 12 21 23 19 18 18 19 18 18 20
61 50 74 71 66 64 70 72 84 100 100 95 95 94 89 88 81 76 73 54 40 16 12 7 5 4 4 4 5 6 4 4 5 6 8 10 13 18 27 31 29 23 19 21 21 23 24
33 70 53 73 55 73 77 75 100 100 100 99 100 96 93 84 69 84 74 51 35 18 13 8 6 5 4 4 5 7 7 5 6 6 11 14 17 20 26 29 30 28 24 24 23 26 29
50 54 83 61 64 67 73 98 100 100 96 100 97 95 95 78 71 90 68 43 31 19 12 9 8 4 5 5 6 6 9 7 7 7 8 13 19 22 25 28 29 29 29 27 27 28 25
62 75 88 71 74 82 89 94 100 100 98 100 98 94 92 74 76 93 67 41 32 21 11 10 7 5 6 5 5 7 8 10 10 10 11 12 13 19 21 25 29 33 32 29 25 27 26
66 85 78 75 82 73 99 94 100 99 100 100 92 89 91 70 82 90 57 41 36 25 15 13 9 8 7 7 6 7 8 11 12 12 13 16 22 24 25 29 34 38 38 38 36 35 31
85 84 89 74 88 87 98 100 100 100 100 100 88 97 84 70 90 83 56 42 35 35 26 13 14 10 9 10 8 7 10 11 12 14 16 16 17 20 25 26 36 38 43 46 46 47 44
74 79 96 84 82 88 97 100 100 100 100 100 94 97 78 70 91 83 55 42 40 48 42 28 17 11 12 12 12 9 9 11 14 16 16 18 23 22 31 39 40 46 49 54 59 55 58
90 93 92 66 82 94 99 100 100 100 100 100 96 92 76 72 96 80 56 41 45 50 59 43 28 24 14 14 15 14 10 9 12 15 19 18 19 19 22 27 39 45 43 45 46 45 54
56 70 81 66 90 100 100 100 100 100 100 100 97 93 74 71 94 83 60 39 42 46 58 68 36 29 22 15 15 16 15 10 10 13 15 17 23 23 23 27 34 41 41 43 47 43 46
87 84 75 68 88 99 100 100 100 100 100 100 87 91 74 73 95 83 65 42 39 43 49 73 72 42 42 27 16 18 15 15 11 11 14 16 17 19 24 26 25 27 30 45 53 52 52
92 87 70 69 84 100 100 100 100 100 100 100 86 82 85 80 85 85 63 48 39 46 53 59 76 78 53 38 31 23 19 16 17 15 12 13 17 19 20 22 32 34 31 32 34 43 47
84 56 67 77 100 100 100 100 100 100 100 100 88 88 89 92 81 84 72 52 42 43 50 58 68 81 72 52 44 35 26 23 19 16 16 15 17 20 24 22 21 36 39 51 54 58 62
97 63 70 83 100 100 100 100 99 100 100 99 90 96 94 94 76 88 79 52 46 40 44 49 62 81 86 75 53 45 44 34 24 22 20 18 14 16 21 25 28 46 40 36 33 58 70
46 72 72 89 100 100 100 100 100 100 100 100 96 98 97 94 82 82 81 56 52 44 43 47 55 66 80 89 76 63 50 39 38 28 26 22 18 15 16 21 29 31 34 33 38 45 53
64 66 74 85 100 100 100 100 100 100 100 100 100 100 99 83 88 93 84 62 53 48 44 42 53 54 71 73 86 74 56 44 38 29 27 25 22 20 18 17 18 23 27 29 32 40 45

GFSGBSN_250_rhum_066.txt.gz
RH
82 67 64 76 50 31 38 41 36 52 76 69 84 79 71 61 51 47 36 26 22 10 7 4 4 3 3 3 2 2 2 2 2 2 2 2 2 3 3 5 6 7 10 16 14 14 16
95 74 84 70 60 38 50 34 38 46 76 86 91 82 72 64 55 46 35 27 22 12 7 4 4 3 2 2 2 2 2 2 2 2 2 2 3 3 3 5 7 9 13 16 16 18 26
91 100 90 74 52 52 48 40 42 43 66 99 97 78 71 67 52 43 35 34 28 13 6 5 4 3 3 2 2 2 2 2 2 2 2 2 3 3 3 4 9 10 13 13 15 20 16
42 52 67 77 57 68 55 46 49 45 65 100 100 74 71 68 61 46 36 38 26 13 7 5 4 4 3 2 2 2 2 2 2 2 2 2 3 3 4 5 9 14 13 13 17 24 24
65 64 64 66 65 87 65 59 58 53 81 100 100 76 60 70 60 50 38 39 36 13 6 6 4 4 3 2 2 2 2 2 2 2 2 2 3 3 4 5 7 11 12 14 19 24 20
93 90 81 92 70 80 79 85 72 69 98 100 100 80 54 56 52 45 46 43 35 13 6 7 5 4 3 2 2 2 2 1 1 2 2 2 4 4 4 5 7 10 10 13 20 33 30
100 100 100 100 98 90 92 100 84 98 100 100 100 73 58 58 50 48 54 39 40 13 7 6 6 4 3 2 2 2 2 1 1 2 2 3 4 4 4 7 11 16 18 21 22 31 38
63 100 97 100 100 100 100 100 97 100 98 100 100 64 59 60 59 53 54 43 43 10 8 8 6 4 3 2 2 2 2 2 1 2 2 3 5 6 5 7 10 14 13 19 28 42 42
98 81 100 100 99 100 100 99 100 100 100 100 89 66 70 74 79 69 48 48 50 13 10 8 6 5 3 2 2 2 2 2 2 2 2 3 5 8 8 8 9 11 11 15 25 42 26
94 78 63 85 93 77 100 100 100 100 89 100 71 70 79 84 90 69 54 66 51 14 10 9 6 6 3 2 2 2 2 2 2 2 2 4 6 7 8 7 11 12 15 13 20 24 24
60 66 75 100 77 69 95 86 86 89 73 100 76 74 81 93 90 72 62 68 41 15 10 10 6 4 2 2 2 2 2 2 2 2 3 4 4 5 9 9 10 11 14 14 19 24 20
27 60 80 87 97 57 70 93 74 87 77 91 76 80 86 100 86 71 78 72 54 16 11 10 6 4 3 2 3 3 2 2 2 2 3 5 5 6 9 11 10 12 12 15 19 18 18
12 28 53 84 75 64 58 98 100 84 96 93 91 94 96 100 85 72 83 61 54 15 12 10 6 5 3 2 3 3 3 2 2 3 4 6 8 9 14 16 14 14 15 16 16 16 23
12 14 21 43 59 51 57 63 98 100 100 100 91 94 100 100 82 77 83 63 54 17 14 11 6 4 3 3 3 4 4 3 4 4 5 6 9 13 21 19 17 17 18 19 18 19 29
10 14 18 26 46 42 63 78 82 97 100 90 88 100 100 98 75 85 77 67 59 24 18 13 7 5 4 3 3 4 5 4 4 6 8 8 10 14 21 22 20 18 16 19 19 20 20
10 11 14 22 58 57 84 86 89 91 92 88 98 100 100 96 74 88 70 66 55 43 17 17 8 6 4 4 4 5 6 6 5 6 9 10 11 12 15 20 21 18 19 19 21 22 21
9 9 12 20 41 67 100 91 93 98 95 95 100 100 100 95 77 89 71 61 57 44 17 16 11 7 5 4 4 6 7 8 6 5 7 9 12 21 22 24 26 24 21 20 22 22 20
7 9 13 24 70 88 100 96 83 100 94 100 100 100 100 96 85 83 66 68 56 42 24 16 13 8 7 8 5 7 7 9 10 8 7 9 11 14 15 22 26 29 27 22 19 21 22
5 13 25 33 82 100 100 92 88 88 96 100 100 100 100 97 86 75 64 67 56 41 31 17 13 9 7 9 11 6 8 8 10 12 11 9 9 12 18 16 22 28 28 24 21 20 22
5 13 42 50 88 100 100 93 90 87 100 100 100 100 100 100 87 81 63 68 59 46 34 22 14 12 9 8 11 11 8 9 11 13 14 14 13 13 16 18 22 21 26 32 32 32 26
6 30 65 88 100 100 90 94 90 93 100 100 100 100 100 96 84 81 61 70 56 49 38 30 16 14 14 9 11 14 14 10 9 12 14 15 16 16 13 14 16 26 30 29 37 36 38
24 53 72 100 100 99 76 74 84 100 100 100 100 100 100 95 86 81 67 64 59 50 45 33 29 17 17 14 10 13 18 19 16 13 14 18 21 19 19 18 19 20 22 30 33 32 38
29 92 100 92 99 98 87 75 89 100 100 100 100 100 100 95 86 85 70 61 65 51 49 45 46 30 34 27 16 14 13 19 24 22 15 15 21 28 30 29 29 29 26 27 29 31 36
84 78 99 100 99 98 85 74 93 100 100 100 100 100 100 100 93 91 74 72 61 54 48 51 49 57 62 40 34 23 18 18 20 24 25 20 15 17 23 33 34 39 43 49 48 48 49
46 100 100 100 100 96 82 72 99 100 100 100 100 100 100 100 95 94 74 70 69 58 42 48 49 60 71 71 61 50 26 21 22 25 22 28 26 17 15 20 31 41 40 44 50 60 61
100 100 100 100 100 100 85 80 95 100 100 100 100 100 100 100 100 99 83 78 67 59 42 42 43 51 67 75 68 72 48 34 22 23 25 26 26 28 24 17 19 38 33 35 44 51 50
100 100 100 100 100 100 97 97 97 100 100 100 100 92 100 100 100 100 90 82 74 61 49 42 40 43 52 64 68 78 63 54 43 37 30 27 28 27 26 27 22 26 24 24 29 48 71
100 100 92 100 92 93 93 100 93 96 98 100 100 98 100 100 100 100 89 85 79 63 57 46 44 41 44 50 57 70 82 83 68 39 41 31 27 25 25 31 29 26 22 20 24 30 43
100 100 100 100 100 94 100 100 100 95 91 100 100 93 100 100 100 100 86 91 78 72 66 51 51 39 36 41 48 54 64 71 71 76 57 39 36 33 28 20 38 37 30 26 26 30 34

GFSGBSN_250_rhum_069.txt.gz
RH
62 95 71 68 62 65 63 48 54 53 77 73 63 67 61 62 70 85 86 76 47 33 12 11 8 7 5 4 2 2 2 2 2 2 2 2 2 2 3 3 4 6 6 8 9 13 16
77 63 42 42 48 50 50 60 70 71 66 67 69 74 72 75 75 94 85 75 51 37 14 11 9 6 5 3 2 2 2 2 2 2 2 2 2 2 3 3 4 8 7 10 9 12 16
62 64 76 50 53 46 51 68 73 80 70 76 75 82 84 72 93 97 86 76 45 36 15 9 10 5 4 2 2 2 2 2 2 2 2 2 2 2 3 3 4 7 8 11 13 17 19
88 77 59 56 69 53 59 75 73 92 94 88 95 84 100 80 100 100 98 87 57 37 13 9 10 5 4 2 2 2 2 2 2 2 2 2 2 3 3 3 5 6 9 11 12 14 24
70 62 57 68 80 62 77 88 80 97 100 95 100 99 100 96 100 100 95 75 63 36 12 13 8 6 3 2 2 2 1 2 2 2 2 2 2 3 3 4 4 5 7 10 12 14 18
98 84 94 95 81 73 68 80 83 91 100 100 100 100 100 100 100 100 84 78 54 37 13 14 7 6 2 2 2 2 2 2 2 2 2 2 2 3 4 4 4 5 6 10 11 13 16
100 100 100 95 90 88 86 79 69 94 100 100 98 100 100 100 100 100 84 71 69 34 14 13 7 4 2 2 2 2 2 2 2 1 2 2 3 3 4 5 5 6 10 11 15 20 26
18 34 43 26 49 97 99 94 95 65 93 100 100 100 100 100 100 100 81 69 65 37 16 11 7 4 2 3 2 2 2 2 1 1 2 2 3 4 5 5 6 7 7 12 19 21 22
12 12 12 16 19 43 94 92 100 78 76 92 100 100 100 100 96 92 93 75 62 40 21 11 8 4 2 3 2 2 2 2 1 1 2 2 3 4 6 6 6 7 11 16 13 23 31
9 10 11 15 16 19 59 57 74 98 96 81 95 100 100 100 100 97 97 77 64 44 20 10 9 5 3 3 2 2 2 2 1 2 2 2 3 5 6 6 8 9 13 17 14 23 36
7 8 10 11 17 20 22 32 57 92 100 97 100 96 100 100 100 100 97 77 64 42 18 11 9 6 4 3 2 2 2 2 1 2 2 3 4 7 10 10 10 10 12 16 22 27 34
5 6 7 9 14 20 20 55 45 73 86 100 100 100 100 100 100 100 86 80 69 48 15 13 7 7 4 4 2 2 3 2 2 2 3 4 5 5 9 9 9 12 16 23 28 26 28
4 5 6 9 10 21 19 59 45 86 87 100 100 100 100 100 100 92 93 78 74 45 15 13 7 7 4 4 2 3 3 2 2 3 4 4 5 6 9 11 11 13 17 29 18 20 22
4 5 6 7 9 16 22 38 39 63 81 100 100 100 100 100 100 96 94 84 63 46 19 12 8 6 4 4 3 3 4 3 3 4 5 5 6 7 8 13 13 13 13 16 18 21 20
3 4 5 6 7 12 20 28 36 82 86 100 100 100 100 100 100 100 90 83 61 52 21 12 8 7 5 4 3 3 4 4 3 5 6 7 8 10 12 17 19 16 14 16 18 16 20
2 3 4 7 11 11 20 19 38 66 65 100 100 100 100 100 100 100 83 76 60 56 23 14 9 6 5 5 3 3 4 5 5 4 6 7 9 10 14 20 21 20 18 19 21 20 22
3 4 5 9 8 10 12 13 40 50 93 99 100 100 100 100 100 98 84 68 61 64 23 16 11 7 6 5 5 4 5 6 7 6 6 7 9 9 10 12 19 21 20 18 18 23 22
3 4 5 8 6 11 14 43 40 65 91 100 100 100 100 100 100 94 82 69 66 60 24 17 14 8 6 6 6 8 6 6 8 9 9 7 7 10 11 13 16 20 21 22 20 20 23
3 3 4 6 8 12 20 40 59 98 100 100 100 100 100 100 100 92 80 68 71 57 33 19 17 12 8 8 8 9 11 8 8 9 12 13 12 10 8 10 14 19 21 22 20 20 21
2 3 4 6 7 14 43 40 76 100 100 100 100 100 100 100 100 94 81 64 78 52 43 23 16 16 10 9 9 9 12 14 12 9 10 12 13 15 14 17 17 20 22 24 24 22 21
3 3 4 6 11 36 65 77 100 100 100 100 100 100 100 100 97 96 77 74 75 52 45 34 17 14 14 15 11 9 12 16 19 21 16 12 13 14 17 16 17 17 21 27 32 25 28
3 4 4 5 17 51 87 100 100 100 100 100 100 100 100 100 100 98 74 80 73 52 45 40 27 18 12 16 17 13 12 14 18 24 29 23 17 14 18 19 21 20 20 23 30 37 38
4 4 5 11 55 80 98 100 100 100 100 100 100 100 100 98 100 100 82 81 73 52 46 42 38 33 34 26 21 20 18 16 15 20 25 28 29 21 18 18 21 24 26 24 21 28 36
4 5 9 42 94 95 97 100 100 100 100 100 100 100 100 98 100 100 94 90 76 54 54 44 42 43 48 40 42 29 25 21 19 19 18 25 26 28 28 24 20 22 27 30 35 36 33
5 6 44 92 100 100 100 100 100 100 100 100 100 98 97 98 100 99 96 98 86 60 60 47 39 44 46 52 53 62 59 42 38 34 25 22 21 26 32 35 31 23 24 32 35 34 36
7 35 92 100 100 100 100 100 100 100 100 100 100 99 98 100 100 98 94 98 86 67 64 55 40 40 43 46 52 64 73 71 78 54 58 60 51 38 32 34 38 39 33 26 25 39 37
9 37 77 90 100 100 100 100 100 100 100 100 100 98 99 100 100 100 91 100 83 74 70 59 44 39 37 42 46 54 56 63 78 75 60 60 59 56 57 46 42 38 35 38 34 32 34
15 38 92 100 100 100 100 100 100 100 100 100 95 93 99 100 100 98 85 96 87 77 73 75 58 47 36 34 37 45 49 56 59 67 70 60 46 39 43 43 55 50 42 37 36 30 30
45 78 100 100 100 100 98 100 100 100 100 100 96 99 100 91 100 100 100 90 99 77 85 86 69 59 47 37 31 33 38 44 54 54 63 67 58 52 46 41 36 40 44 43 41 39 33

GFSGBSN_250_rhum_072.txt.gz
RH
40 37 36 34 52 61 63 63 91 76 90 67 63 83 79 90 77 90 84 100 83 55 51 39 22 8 6 8 6 5 3 3 2 2 1 2 2 2 2 2 2 4 5 5 7 7 11
42 48 44 45 55 80 87 68 66 70 60 58 58 79 83 98 95 100 100 100 82 53 59 41 21 7 8 7 6 4 3 2 2 1 1 2 2 2 2 2 3 5 6 6 7 7 11
87 93 99 84 73 71 94 88 68 69 64 56 70 84 87 89 86 100 100 96 65 64 64 42 19 7 8 6 5 4 3 2 2 2 2 2 2 2 2 2 3 4 5 5 6 9 9
57 69 84 95 99 99 86 98 60 66 67 68 72 88 95 98 95 100 100 94 72 74 58 37 13 8 9 7 5 3 3 2 1 2 2 2 2 2 2 2 3 4 5 5 7 8 11
12 11 26 27 54 71 94 88 72 76 73 53 86 95 98 90 80 93 100 89 69 66 54 32 10 11 8 6 4 3 2 1 1 1 2 2 2 2 3 3 3 4 5 6 7 10 14
10 12 12 11 11 16 38 56 94 67 66 62 58 98 94 97 98 94 90 76 72 66 54 23 9 16 7 6 3 2 2 2 1 2 2 2 2 2 2 3 3 4 6 6 8 12 10
11 11 9 11 11 13 14 15 35 39 54 60 56 62 87 100 100 100 85 82 73 85 46 17 14 9 6 4 3 2 2 1 2 2 1 2 2 2 3 3 4 5 6 7 9 13 12
15 14 12 11 9 11 14 13 15 28 41 52 37 30 58 100 100 100 86 84 82 74 38 14 20 11 6 3 2 2 2 2 2 1 1 2 2 3 4 4 4 5 6 7 9 12 16
10 9 8 11 10 8 9 12 14 14 18 23 20 24 75 94 100 100 99 92 93 78 32 22 16 8 6 3 3 2 2 2 1 1 1 2 2 3 4 5 6 7 6 8 10 13 14
11 7 6 6 8 7 7 11 15 18 16 14 14 29 72 78 100 100 100 100 92 64 34 27 17 8 6 3 3 2 2 2 1 1 1 2 2 2 4 5 6 9 10 11 18 21 23
10 8 6 5 5 6 8 9 13 15 15 16 16 59 81 100 100 100 100 100 92 61 33 27 18 7 4 3 3 2 2 2 2 1 2 2 3 4 6 7 8 10 13 16 15 20 25
8 5 4 5 5 5 6 8 9 12 16 13 22 68 96 100 99 100 100 99 89 58 32 25 16 7 4 3 3 2 2 2 2 2 2 2 3 4 6 7 9 12 14 10 9 16 20
4 4 3 4 4 5 6 7 9 12 14 11 33 98 100 100 100 100 100 100 89 48 30 23 14 6 4 3 3 2 3 3 2 2 3 3 4 5 8 10 10 10 14 12 12 16 18
3 2 2 3 3 4 6 8 8 10 15 12 50 100 100 100 98 100 100 99 83 46 31 20 13 6 5 4 4 3 3 3 3 3 4 4 4 7 13 14 12 13 14 18 16 10 17
2 2 2 2 3 5 6 6 6 12 13 20 98 100 100 99 100 100 100 98 76 48 30 20 12 6 5 4 4 3 3 4 4 4 5 5 6 10 13 13 12 13 14 17 20 12 13
1 1 2 2 3 4 5 7 8 10 15 54 100 100 100 98 100 100 100 92 78 53 25 21 12 8 5 4 4 4 4 4 4 5 5 6 9 11 16 16 16 14 16 18 19 16 11
1 1 2 2 3 4 5 5 5 7 20 97 100 100 98 100 100 100 99 89 82 53 26 21 12 9 6 5 5 6 5 5 5 6 6 6 7 9 15 29 23 19 18 20 21 22 20
1 2 2 2 2 4 5 6 6 13 41 100 100 100 100 100 100 100 94 90 80 49 30 18 13 10 9 6 5 6 8 6 7 8 8 8 8 8 9 10 16 20 20 21 23 25 21
1 2 3 3 4 5 6 7 9 20 86 100 100 100 100 100 100 99 93 90 72 59 31 19 13 11 9 10 6 6 7 9 9 8 11 12 12 10 10 10 12 13 17 21 24 24 23
2 3 3 3 4 5 6 9 14 42 99 100 100 100 100 100 100 96 94 82 68 57 37 22 13 13 11 12 11 8 8 11 14 15 11 12 13 14 14 14 14 15 18 21 21 24 24
3 3 3 3 5 8 9 13 34 98 100 100 100 100 100 100 100 97 97 74 68 58 48 29 17 15 13 12 13 12 10 10 11 14 18 18 12 13 15 16 14 16 19 21 23 25 26
4 4 4 5 6 9 10 19 81 100 100 100 100 100 100 100 100 100 93 71 62 57 57 41 33 24 20 16 16 14 14 14 14 12 12 14 17 21 21 15 17 18 18 19 21 25 28
4 5 5 6 7 9 12 52 100 100 100 100 100 100 100 100 100 100 93 71 62 58 60 46 43 44 38 33 30 31 27 20 22 27 23 20 16 19 20 21 24 20 20 21 21 20 19
5 6 6 8 8 11 40 98 100 100 100 100 100 100 100 100 100 99 98 73 66 64 56 44 37 41 44 44 41 37 40 34 35 39 46 48 44 36 32 32 33 27 26 26 22 21 22
7 7 7 9 16 31 74 99 100 100 100 100 100 100 100 100 100 95 96 77 70 67 52 44 44 39 39 43 43 45 55 52 46 47 45 41 41 46 50 45 40 35 37 38 35 30 28
7 7 10 15 22 68 97 100 100 100 100 100 100 100 100 100 100 96 85 79 73 71 68 56 52 38 33 36 37 47 47 50 54 51 60 56 55 54 44 40 40 49 45 43 43 45 42
8 8 11 19 65 82 100 100 100 100 100 100 100 100 100 100 100 96 88 88 78 75 74 61 60 55 44 42 36 38 43 46 48 50 56 59 59 60 56 54 56 47 39 42 46 46 40
8 7 10 28 52 100 100 100 100 99 100 100 100 100 100 100 100 84 88 96 84 80 75 73 72 66 62 58 52 43 46 48 46 43 44 51 55 57 59 55 54 46 49 38 42 47 47
9 12 23 30 54 100 100 100 100 90 100 100 100 100 100 100 99 81 91 99 86 81 78 84 84 73 67 66 66 62 59 55 45 43 47 45 47 47 52 53 54 48 47 51 40 39 48

GFSGBSN_250_rhum_078.txt.gz
RH
27 27 25 23 27 27 26 28 31 32 32 28 28 26 23 22 20 17 16 15 20 27 35 35 24 24 27 25 16 14 9 12 12 10 6 4 4 2 2 2 1 1 1 2 1 2 2
41 36 33 26 19 18 18 17 17 15 15 13 10 9 10 9 11 11 10 12 25 27 27 29 23 24 22 16 14 10 10 11 11 6 4 3 3 2 1 1 1 1 1 2 1 2 2
44 40 44 53 37 26 23 22 16 14 13 11 11 10 9 9 8 8 9 12 16 20 24 25 22 21 18 11 10 10 11 11 8 5 3 2 2 1 1 1 1 1 1 1 1 2 2
60 52 41 42 41 33 37 29 20 17 14 14 11 10 9 8 9 8 10 10 9 14 20 29 23 15 13 11 8 10 10 9 6 3 2 2 2 1 1 1 1 1 1 2 2 2 3
54 48 53 49 39 29 26 27 25 24 15 11 10 10 12 9 9 8 9 8 10 13 20 22 16 13 10 10 9 10 9 7 4 2 2 2 1 1 1 1 2 2 2 3 2 3 3
80 86 52 51 54 33 21 16 17 20 17 12 10 10 11 9 8 8 9 10 11 9 16 17 14 11 10 9 10 8 5 3 2 2 2 2 1 1 1 2 2 2 3 3 3 4 3
100 81 48 28 27 24 18 15 13 11 12 13 10 9 10 9 8 9 9 12 10 8 10 12 12 10 8 10 9 6 4 2 2 2 2 1 1 1 1 2 2 2 2 4 4 4 4
69 59 47 34 17 14 13 9 7 9 10 10 11 10 9 8 7 9 10 13 11 17 14 10 10 10 10 11 8 5 3 2 2 2 1 1 1 1 1 2 2 3 3 3 5 4 4
65 51 29 19 12 10 9 7 7 6 6 9 10 11 11 8 7 10 12 15 16 16 12 10 11 11 11 12 7 4 2 2 2 2 1 1 1 1 1 2 2 3 4 4 4 5 5
39 20 12 9 8 6 6 5 6 6 6 7 8 11 12 7 8 12 15 15 16 14 11 9 10 15 13 8 5 3 2 2 2 2 2 1 1 1 2 2 3 4 4 4 4 6 8
34 16 9 5 3 3 3 2 3 4 5 6 7 11 9 9 11 15 14 20 18 13 11 12 14 16 11 7 4 3 3 2 2 2 2 1 1 2 2 3 4 4 4 4 5 7 10
10 7 4 2 2 2 2 2 2 2 4 5 6 7 9 10 16 16 20 28 18 16 14 16 17 15 8 5 4 3 3 2 2 2 2 2 2 2 3 3 4 5 6 6 7 9 12
5 3 2 2 2 1 1 1 1 2 3 5 5 5 10 12 20 21 34 31 36 21 19 21 20 11 6 4 4 3 3 3 2 2 2 2 2 3 4 4 6 7 7 7 8 9 18
3 2 2 2 1 1 1 1 1 2 3 3 4 8 14 16 21 42 35 52 36 25 27 26 16 8 5 5 4 3 3 3 3 2 2 3 3 4 5 6 8 10 9 8 9 9 14
2 2 2 2 1 1 1 1 2 2 2 4 6 10 16 20 46 57 54 53 50 36 34 21 11 7 5 4 3 4 3 4 3 3 3 3 4 6 8 8 10 10 10 9 12 10 12
2 2 2 1 1 1 1 1 2 2 3 6 11 13 15 48 63 79 91 62 45 42 29 17 10 6 5 4 3 4 4 4 4 4 5 5 5 7 9 11 11 10 9 8 8 8 10
2 2 1 1 1 1 1 2 2 3 4 6 9 13 24 64 77 95 77 68 50 41 21 13 8 6 6 4 4 4 5 5 5 5 7 7 7 8 10 12 13 11 10 11 11 10 9
2 2 1 1 1 2 2 3 4 4 6 8 10 28 57 100 95 100 83 59 48 29 16 11 8 7 5 4 5 4 6 6 6 7 6 8 9 10 10 10 12 16 12 13 14 12 12
2 2 2 2 2 2 3 6 6 6 6 10 14 47 100 100 100 96 70 49 34 21 16 12 9 8 6 6 6 7 6 8 11 11 10 9 9 15 20 18 19 21 21 19 18 15 13
2 3 3 3 3 4 5 7 9 9 13 16 21 73 100 100 100 75 66 40 28 19 17 14 11 8 8 9 10 11 13 14 15 17 20 21 21 17 14 14 19 22 21 27 32 28 27
3 4 4 4 6 6 6 6 7 11 17 39 54 99 100 100 88 70 51 40 28 24 19 16 12 10 10 10 10 13 14 15 19 20 24 22 24 26 29 31 28 25 22 24 25 26 29
5 5 4 6 8 8 7 8 11 11 29 71 80 98 100 91 80 64 50 37 34 31 26 22 17 13 14 16 14 14 16 19 24 24 25 25 28 28 31 32 35 39 42 42 39 31 29
7 7 9 13 12 12 11 16 22 31 68 83 92 100 87 85 79 61 51 43 38 34 34 30 27 23 21 25 29 27 24 21 25 28 28 30 32 37 40 40 46 47 46 48 45 46 49
8 10 18 19 19 14 17 19 32 44 68 90 100 98 85 82 81 70 60 49 44 38 39 36 33 29 32 32 39 39 41 38 36 36 37 39 40 38 43 46 48 49 46 46 49 52 49
10 11 17 25 28 22 36 48 50 56 84 100 100 99 92 85 81 73 66 53 51 45 42 40 39 36 38 38 40 39 38 36 44 42 44 47 54 55 54 50 56 58 52 55 50 46 41
13 14 20 26 29 23 39 54 68 91 99 97 100 94 90 82 87 80 67 66 58 55 51 47 47 44 39 40 41 44 46 43 46 46 48 52 54 54 62 66 66 61 63 59 56 56 58
16 14 15 19 30 38 60 79 92 87 89 100 99 99 90 84 92 84 79 76 71 62 59 54 50 47 44 45 43 45 50 58 47 49 51 55 58 70 66 69 77 73 62 74 79 74 74
17 28 25 17 21 38 73 83 95 98 95 100 100 100 91 92 89 79 79 83 82 79 66 61 58 58 57 54 56 58 55 60 59 58 57 64 64 62 69 68 72 71 75 79 86 79 77
20 19 24 25 28 37 78 99 100 100 98 100 100 100 97 95 100 84 80 82 81 76 76 68 61 63 65 62 64 66 68 68 72 69 68 73 68 67 70 65 72 82 78 82 85 75 83

GFSGBSN_250_rhum_081.txt.gz
RH
26 29 30 30 32 33 33 32 36 29 26 21 18 14 11 12 11 11 10 11 10 11 10 8 7 7 9 8 9 12 13 13 12 10 10 10 11 8 7 5 3 3 3 2 2 2 2
53 49 49 44 41 46 40 41 35 32 34 30 21 16 12 12 11 13 11 9 7 6 6 7 6 6 6 6 9 10 10 10 10 10 10 10 10 6 5 4 2 2 2 2 2 2 2
69 78 85 99 80 68 53 48 44 35 32 32 26 16 12 12 9 11 11 9 7 6 7 7 6 5 4 6 8 7 6 9 9 9 9 10 7 4 4 3 2 2 1 1 1 1 1
58 66 91 100 100 100 76 60 46 44 38 42 27 20 13 10 10 8 12 10 8 6 8 7 6 5 5 5 6 6 7 8 8 8 9 7 6 4 2 2 1 1 1 1 1 1 1
59 64 57 69 96 79 76 61 45 30 24 25 26 18 12 10 10 10 12 11 9 6 8 8 6 5 4 5 5 6 6 7 8 7 7 6 4 2 2 1 1 1 1 1 1 1 1
57 57 64 70 75 77 63 50 32 21 15 13 12 12 11 10 10 10 13 11 8 10 8 7 6 5 4 4 4 6 7 7 6 7 6 4 2 2 2 1 1 1 1 1 1 2 2
55 74 82 77 71 51 40 24 15 13 11 10 8 8 8 10 10 10 10 10 9 8 7 7 6 5 4 5 4 6 6 6 5 5 3 2 2 1 1 1 1 1 1 2 2 2 3
53 54 46 46 27 24 14 10 7 7 6 6 6 6 7 11 12 10 10 8 10 8 8 8 6 5 5 5 6 7 5 4 4 3 2 2 1 1 1 1 1 1 1 2 2 2 2
31 22 14 12 8 5 4 3 3 3 3 4 4 5 7 9 10 10 9 9 8 9 8 7 8 8 7 8 7 6 5 4 3 2 2 2 2 1 1 1 1 1 2 2 3 3 4
15 10 8 4 3 2 2 2 2 2 2 2 3 4 6 8 9 11 10 11 8 9 9 10 11 15 13 9 7 5 4 3 2 2 2 2 1 1 1 1 2 2 3 3 3 3 4
9 6 4 3 3 2 2 2 1 1 1 2 3 4 5 7 9 9 11 9 10 8 10 11 17 17 11 8 6 5 3 2 2 2 2 2 1 1 2 2 2 3 4 3 4 4 6
5 4 3 3 2 2 2 2 1 1 1 2 2 4 4 4 5 10 11 11 9 11 12 27 20 14 10 6 5 4 3 2 3 2 2 2 2 2 2 3 3 4 4 4 4 6 7
4 4 3 2 2 2 2 1 1 1 1 2 2 4 3 4 7 9 9 9 11 13 28 22 16 11 7 5 5 4 3 2 2 2 2 2 2 2 3 4 5 6 6 6 6 7 9
5 3 2 2 1 1 1 1 1 1 1 2 3 3 3 5 6 8 10 13 25 32 21 16 11 8 6 6 4 3 3 2 2 2 2 2 2 3 4 4 6 7 7 8 7 8 7
3 2 2 1 1 1 1 1 1 1 2 3 3 4 4 5 7 13 13 45 34 24 17 12 8 7 7 5 4 3 3 3 3 3 3 3 3 4 5 6 6 7 8 9 9 8 8
3 2 2 1 1 1 1 2 2 2 3 4 4 5 5 8 12 27 53 43 29 17 12 9 8 8 6 4 4 4 3 3 3 3 4 5 4 6 8 9 9 9 8 9 9 8 8
4 3 2 2 2 2 2 2 3 4 4 4 5 6 8 13 37 54 57 30 17 14 11 9 8 7 6 4 3 3 4 4 3 4 5 6 8 9 12 14 14 13 13 13 14 14 14
3 3 2 2 3 3 4 4 4 5 5 7 7 9 14 31 64 50 29 19 15 12 9 9 8 6 5 4 4 4 4 4 4 5 5 7 8 10 11 13 15 18 18 21 20 19 22
4 3 3 4 4 5 6 7 8 6 7 11 12 14 32 59 57 28 21 18 15 12 11 9 8 7 6 6 6 6 6 7 7 8 9 10 10 11 10 11 12 16 16 20 21 22 25
6 5 5 5 6 7 8 11 18 16 16 16 19 30 51 60 35 26 23 23 18 16 13 10 10 9 9 8 8 10 12 13 14 11 12 16 18 22 24 23 25 25 25 21 20 20 24
8 11 10 10 21 10 12 14 23 22 29 31 29 42 54 38 29 25 25 23 19 16 13 13 12 13 13 14 14 15 17 18 20 22 24 27 28 28 28 34 35 32 29 26 28 32 29
8 19 26 32 29 23 25 44 41 42 44 57 67 58 43 32 26 28 27 28 25 20 15 14 15 14 15 17 19 20 23 22 23 24 27 32 43 52 52 55 53 51 58 62 67 58 46
11 12 21 19 21 24 28 34 39 49 51 76 72 55 44 35 31 34 34 35 33 28 24 21 20 20 21 20 21 23 22 25 29 33 37 44 42 45 49 49 56 64 65 63 63 62 61
14 13 19 18 17 23 24 46 60 64 78 76 68 57 50 43 36 38 41 39 37 34 31 28 28 28 30 31 33 31 32 34 34 38 43 48 48 47 47 48 51 49 48 48 51 50 52
18 15 17 18 18 24 48 62 83 84 84 81 76 64 57 54 48 47 45 46 42 38 36 35 34 35 38 39 40 43 41 43 43 42 44 45 49 50 53 52 50 58 55 56 51 54 45
22 20 18 25 24 43 50 84 100 99 94 91 84 76 68 61 57 55 51 52 48 46 40 37 39 43 46 44 45 49 49 51 48 49 51 54 54 55 57 60 61 60 64 61 60 69 56
27 22 22 26 36 52 58 88 100 100 100 97 90 89 81 77 70 64 59 54 50 50 47 47 44 47 52 56 59 57 59 58 59 61 60 57 56 59 62 61 63 62 66 66 70 69 87
33 32 25 31 48 44 74 90 96 100 100 100 95 98 86 82 78 70 69 63 60 54 53 57 55 55 57 62 67 71 73 68 65 67 65 64 64 66 69 70 71 67 67 66 73 78 78
36 43 48 32 40 56 74 82 90 100 100 100 98 100 99 87 85 86 84 72 64 65 60 62 68 66 71 72 70 69 66 65 66 70 70 67 62 62 73 70 78 75 74 76 90 86 92

GFSGBSN_250_rhum_084.txt.gz
RH
63 63 60 61 69 68 71 72 79 66 75 81 91 88 42 32 27 26 17 14 12 9 9 8 6 6 6 8 7 7 6 6 5 5 6 6 7 6 7 9 10 10 9 8 6 6 6
61 76 66 76 82 78 77 92 95 99 97 100 100 91 71 51 34 29 25 14 12 9 9 9 8 6 7 7 6 5 4 4 4 4 5 5 5 5 8 9 9 8 7 6 5 5 4
88 100 96 99 74 81 93 76 83 89 87 94 97 100 77 49 44 32 29 15 12 10 8 9 9 6 8 6 5 4 4 4 3 3 3 4 5 7 8 7 6 5 5 5 4 3 3
100 100 87 81 74 74 82 84 73 96 77 56 60 71 65 51 32 29 28 15 12 9 8 9 8 8 7 5 5 4 3 3 3 3 4 4 5 6 7 6 5 4 3 2 3 2 2
100 99 85 75 49 34 46 57 43 43 44 46 34 29 34 38 26 17 19 16 10 9 9 10 7 8 7 5 4 4 4 3 3 3 3 4 5 6 5 5 4 2 2 1 1 1 1
100 100 86 52 20 17 13 19 21 21 14 15 16 14 11 11 11 10 12 12 10 10 10 7 10 7 5 4 4 4 3 3 3 3 4 5 5 5 4 2 2 2 1 1 1 1 1
100 71 26 10 7 7 6 6 6 6 5 5 5 5 5 6 7 9 10 9 10 10 8 8 8 6 5 5 5 4 3 3 3 4 4 5 4 4 3 2 1 1 1 1 1 1 1
19 8 7 7 6 5 4 4 3 4 3 3 2 2 3 4 5 7 8 9 11 10 10 7 7 7 6 7 5 4 3 3 4 4 4 4 3 2 2 1 1 1 1 1 1 1 1
7 8 7 5 5 4 4 3 2 2 2 2 2 2 2 2 4 6 7 10 8 8 8 6 6 7 8 7 5 4 4 4 4 4 3 2 2 1 1 1 1 1 1 1 1 1 1
9 8 5 4 3 2 2 2 2 2 2 2 2 1 2 2 4 5 7 7 7 7 6 6 8 9 11 9 6 5 4 4 3 3 2 2 1 1 1 1 1 1 1 1 2 2 2
8 5 4 2 2 2 1 1 1 1 1 1 1 1 2 3 4 5 5 6 6 5 7 10 11 17 13 10 7 5 3 3 2 2 2 2 2 2 1 1 1 1 2 2 3 3 3
5 4 3 2 2 1 1 1 1 1 1 1 1 2 2 3 3 4 6 5 5 8 11 11 20 15 10 7 6 4 3 2 2 2 2 2 2 2 2 2 2 2 3 4 4 4 4
4 3 2 2 1 1 1 1 1 1 1 1 2 2 2 2 3 6 4 5 7 10 15 17 15 12 7 5 5 3 3 2 2 2 2 2 2 2 2 2 3 4 5 5 4 5 5
3 2 2 1 1 1 1 1 1 1 1 2 2 2 3 4 5 5 6 7 11 18 21 15 10 8 6 5 4 3 3 3 3 2 2 2 3 3 3 4 4 5 6 6 6 6 6
4 3 2 2 1 1 1 1 2 2 2 3 3 4 5 6 6 6 10 22 20 16 11 9 9 7 5 4 3 4 4 4 3 3 3 3 5 5 6 7 6 7 7 7 8 7 8
5 4 2 2 3 3 3 3 3 4 4 6 6 6 7 6 9 21 22 17 12 10 10 8 6 5 4 4 4 4 4 4 3 3 3 4 5 8 10 10 10 11 13 15 12 13 12
6 4 4 4 3 5 6 6 6 5 6 8 8 7 10 20 19 15 12 11 11 8 7 6 5 4 4 4 4 4 4 4 4 4 5 6 6 7 9 12 12 14 18 20 21 27 32
12 10 8 7 10 10 11 11 10 10 10 15 22 25 20 14 14 13 12 10 8 7 6 6 6 5 5 5 5 5 4 4 5 5 5 5 6 8 9 10 14 14 16 21 31 36 42
22 30 29 18 18 16 16 21 32 49 44 36 32 24 16 13 11 10 8 8 8 8 9 8 7 7 6 6 6 6 5 6 8 9 8 8 7 7 9 10 14 14 19 21 20 21 38
15 19 27 33 26 47 59 69 69 59 37 26 21 18 13 10 10 10 10 10 11 12 10 8 9 8 9 10 11 12 11 12 12 13 13 14 14 13 13 12 15 19 20 25 30 28 22
18 19 22 24 37 50 75 89 70 51 32 24 19 16 15 17 17 18 17 16 14 12 11 11 11 11 12 13 14 14 16 18 19 18 17 17 17 16 18 17 17 25 38 44 43 40 34
27 22 20 17 22 32 62 70 56 38 29 23 21 23 23 22 23 21 20 20 15 12 12 12 14 14 17 20 22 24 25 27 27 29 29 33 41 40 34 31 35 45 47 46 55 56 57
40 38 42 36 42 45 55 60 42 31 28 28 28 30 28 24 26 24 23 23 21 20 20 21 21 22 24 26 25 26 27 31 31 35 38 42 42 42 37 40 48 48 47 51 47 46 42
72 52 58 60 59 59 62 57 45 36 33 34 34 37 36 32 31 31 29 31 33 32 33 34 31 30 30 30 35 35 38 42 43 44 47 42 39 43 43 44 45 49 47 48 46 38 42
100 84 62 58 71 76 68 64 66 53 48 46 43 46 47 45 42 42 40 40 43 42 40 40 39 42 41 42 43 44 44 47 50 50 49 49 51 50 50 50 49 48 47 53 54 52 47
100 100 94 96 100 76 91 87 76 72 64 60 53 49 48 50 51 49 45 44 45 46 45 45 46 46 44 46 49 52 52 53 52 53 54 53 52 56 58 57 54 53 60 60 58 55 48
95 98 100 87 100 100 100 94 96 87 82 76 69 57 52 51 51 49 49 50 50 50 49 52 50 48 49 50 50 53 57 58 60 60 59 61 67 70 73 75 70 68 76 67 75 69 69
100 92 95 100 99 100 100 100 100 97 87 84 81 76 67 61 61 57 59 57 54 53 55 54 58 56 57 56 57 60 62 69 73 73 72 68 67 74 74 77 79 76 83 83 81 78 72
100 100 43 65 100 85 100 100 100 100 100 89 92 90 87 82 76 74 72 72 70 64 64 64 63 63 63 64 70 74 76 70 68 72 77 82 76 73 81 86 86 91 85 85 93 84 76

GFSGBSN_250_rhum_087.txt.gz
RH
99 100 100 100 100 100 100 100 100 100 100 85 93 80 84 91 65 55 49 47 35 23 22 17 13 9 9 6 6 6 6 5 6 8 7 7 8 8 7 7 6 6 6 6 5 6 7
100 100 100 100 100 100 100 100 96 76 64 66 74 72 66 76 72 59 61 59 52 37 25 18 17 13 7 7 6 6 5 5 5 5 4 4 3 4 4 5 4 4 4 5 5 6 5
100 100 100 100 100 100 100 100 100 67 28 31 38 50 44 64 83 59 56 57 51 43 26 19 18 12 8 6 6 7 5 5 4 3 3 3 3 3 4 3 3 3 4 4 6 6 5
100 100 100 99 78 58 35 15 9 9 9 11 16 20 25 31 56 61 53 46 52 44 27 22 14 11 8 7 8 6 5 4 3 3 4 3 3 3 3 3 3 3 4 4 4 4 4
100 99 57 25 12 10 9 8 8 6 6 6 6 8 11 15 23 40 46 37 38 27 19 26 20 13 8 10 6 6 5 4 3 3 3 3 3 2 3 3 3 3 3 4 4 3 3
70 27 11 11 10 9 8 8 8 7 7 5 4 4 5 6 11 14 19 17 22 19 20 21 18 13 11 7 6 6 5 4 3 3 3 3 2 2 2 3 3 3 3 3 3 2 2
12 13 10 8 6 6 6 5 5 4 5 5 4 3 3 3 5 8 8 9 14 12 12 13 13 11 7 6 7 6 4 3 3 3 3 3 2 3 3 3 3 3 2 2 2 2 2
10 8 7 5 4 4 4 4 3 3 3 4 3 2 2 2 3 4 7 8 8 9 10 11 10 10 6 7 7 4 4 3 3 3 4 3 3 3 3 3 2 2 2 2 1 2 2
5 5 4 3 2 2 2 2 2 2 2 2 2 2 2 2 2 2 4 5 6 9 10 9 9 10 7 6 6 5 4 4 4 5 5 3 3 3 2 2 2 2 1 1 1 1 1
4 3 2 2 2 1 1 1 1 1 2 2 2 1 2 2 2 2 3 4 5 8 8 8 10 8 6 7 5 4 6 8 7 4 4 2 2 2 2 1 1 1 1 1 1 1 1
4 3 2 2 1 1 1 1 1 1 2 2 1 1 2 2 2 2 3 5 5 6 7 9 8 11 7 6 9 8 9 6 4 2 2 2 2 2 2 2 1 1 1 1 1 1 1
5 3 2 2 1 1 1 1 1 1 1 1 1 1 1 1 2 2 3 4 5 6 8 9 9 7 12 16 11 7 4 2 2 2 2 2 2 2 2 2 2 2 2 2 2 2 2
6 4 2 2 2 2 1 1 1 1 1 1 1 1 1 2 2 3 4 5 6 8 8 7 9 18 16 9 6 4 3 3 3 2 2 2 2 2 2 2 2 3 3 3 3 3 3
6 6 4 4 4 3 3 3 3 3 3 3 3 3 3 3 4 4 5 6 7 5 7 16 18 10 6 6 5 4 4 2 2 2 2 2 2 3 3 3 3 4 4 4 4 4 4
10 9 7 5 5 5 4 4 4 4 4 4 4 3 4 4 4 5 5 5 8 11 16 10 7 6 6 6 5 4 3 3 3 3 2 3 3 4 4 4 5 5 5 6 6 7 7
17 19 15 12 9 9 9 6 7 7 6 7 6 5 5 5 5 6 10 12 11 10 7 6 5 6 6 5 4 4 4 3 3 3 4 3 3 4 4 6 5 6 7 8 10 10 10
55 25 23 27 30 27 22 26 24 18 16 12 20 17 10 10 13 13 10 7 6 5 5 5 6 6 4 4 5 4 4 4 4 4 4 4 4 5 6 5 5 6 8 10 13 13 14
77 64 49 43 30 30 26 24 22 23 21 16 15 15 11 9 8 6 6 5 5 5 6 5 5 5 5 5 4 4 4 4 4 5 5 6 6 6 7 6 7 8 9 12 17 20 23
85 99 77 66 48 25 19 16 14 13 12 11 9 10 9 8 7 6 6 6 6 6 5 5 7 6 6 6 6 6 7 7 7 6 6 7 7 7 9 8 10 10 12 15 16 19 20
88 91 92 72 48 35 22 16 13 11 11 11 11 13 12 11 9 8 7 7 8 8 8 9 8 9 9 10 10 11 11 11 11 12 12 8 8 10 11 12 12 16 22 21 20 21 24
100 99 100 71 56 37 27 20 17 16 15 16 15 16 17 15 13 12 12 11 11 11 12 12 11 12 14 14 16 18 19 21 22 23 20 14 13 16 20 26 30 38 38 38 40 30 27
74 100 100 97 96 59 31 24 22 19 20 20 21 22 21 22 20 18 17 16 15 14 14 14 13 14 16 18 23 28 28 27 28 26 25 25 25 31 37 41 41 46 46 47 46 43 38
71 76 100 100 100 97 69 39 30 27 26 25 25 25 26 25 25 24 21 19 20 20 18 19 23 27 30 32 31 32 32 30 31 32 31 32 32 35 35 38 44 46 46 42 40 40 40
100 69 70 100 100 100 98 82 50 38 34 35 32 32 34 32 32 33 29 28 28 31 32 34 35 38 41 41 40 39 40 41 40 43 45 46 48 49 50 47 48 47 42 41 44 42 39
100 100 77 74 100 100 100 100 91 62 46 42 42 41 42 40 38 38 36 36 35 36 40 42 46 48 46 46 45 46 46 46 47 44 44 44 42 43 44 47 50 56 49 47 48 46 46
100 100 100 68 74 100 100 100 100 96 74 54 50 50 50 49 49 47 43 45 45 44 48 50 51 50 49 49 49 50 52 56 53 52 54 53 51 50 52 50 48 48 51 52 48 50 52
98 100 100 90 39 76 99 100 100 100 99 88 73 58 54 53 54 51 48 53 55 56 54 53 53 53 51 51 50 54 59 59 58 57 59 61 66 65 64 61 59 62 62 57 53 55 50
67 89 100 100 79 31 78 96 94 100 100 100 100 92 79 68 65 62 59 55 55 58 58 54 56 59 63 64 63 62 65 68 70 70 70 71 73 76 80 83 80 76 77 73 70 69 68
81 82 99 100 100 75 32 74 97 80 100 100 100 100 99 94 86 78 71 69 61 65 68 67 69 71 75 78 77 78 80 79 80 80 86 91 94 94 88 87 90 94 94 88 76 69 72

GFSGBSN_250_rhum_090.txt.gz
RH
100 100 100 100 100 100 100 100 100 99 87 84 87 92 76 100 50 54 37 40 31 28 25 24 20 18 17 15 14 11 12 13 12 12 14 11 5 5 5 6 7 8 10 13 13 16 14
100 100 91 98 96 92 79 73 70 77 91 66 46 54 56 61 80 76 38 36 36 28 30 26 26 21 16 16 12 11 12 10 7 6 6 5 4 4 4 4 4 4 7 9 9 9 9
22 22 21 20 19 14 17 17 16 15 18 20 18 14 16 22 22 25 17 24 26 32 32 26 27 21 16 18 13 10 11 9 6 6 4 3 3 3 3 3 3 3 3 4 6 4 5
13 12 12 10 9 8 8 8 8 8 8 9 9 10 9 8 8 9 11 10 14 25 28 24 23 23 21 17 14 12 10 9 6 6 4 4 3 3 3 3 3 3 3 3 3 3 3
11 10 10 7 5 5 4 4 4 4 4 6 7 8 9 9 10 8 8 9 12 22 20 21 18 24 25 16 13 14 14 9 6 4 4 4 3 3 3 3 2 2 2 2 2 2 2
7 6 6 6 5 4 3 3 2 3 3 4 4 5 6 7 9 9 8 7 9 14 16 18 19 22 18 15 19 17 11 7 5 4 3 3 3 3 3 3 2 2 2 2 2 2 2
8 6 3 2 2 2 2 2 2 2 2 3 3 4 4 5 6 8 8 8 7 8 10 16 15 14 15 18 22 12 6 5 4 4 3 4 3 3 3 2 2 2 2 2 2 2 2
10 6 4 2 2 2 1 1 1 1 1 1 2 2 3 4 4 6 7 7 6 7 9 9 10 12 20 19 12 6 5 4 4 4 4 4 3 3 3 2 2 2 2 2 2 2 2
38 10 6 3 2 2 1 1 1 1 1 1 1 2 2 3 4 5 6 6 5 5 6 8 10 16 16 12 8 6 5 6 5 5 5 4 3 3 3 2 2 2 2 2 2 2 2
43 19 7 5 3 2 1 1 1 1 1 1 1 2 2 2 3 4 4 4 3 4 6 8 11 13 11 9 7 9 6 6 6 5 4 3 5 4 4 4 4 3 3 3 2 2 2
37 35 17 7 6 4 3 2 2 1 1 1 1 2 2 2 2 2 3 2 3 5 6 9 10 10 9 11 7 6 8 8 7 7 7 5 5 4 4 3 2 2 2 2 2 1 1
51 27 30 18 8 6 4 3 2 2 1 1 1 1 1 1 2 2 2 2 4 5 6 7 8 10 8 8 12 14 14 10 6 6 5 3 2 2 2 2 2 2 2 1 1 1 1
49 35 22 24 25 10 7 4 3 3 2 2 1 1 1 1 2 2 2 3 4 5 6 8 8 10 14 20 18 11 7 6 4 3 2 2 2 2 2 2 2 2 2 2 2 2 2
66 46 29 19 21 24 15 7 6 3 4 4 3 2 2 2 2 3 4 4 5 6 6 8 12 19 19 11 8 5 4 3 2 2 2 2 2 2 2 3 3 4 4 4 4 4 3
94 84 35 24 16 17 20 23 11 7 4 6 6 4 3 3 3 4 4 5 6 7 10 16 16 10 9 6 4 4 3 3 3 3 4 4 3 3 4 4 4 4 4 4 4 4 4
81 92 67 27 19 15 13 14 17 19 12 5 6 7 5 5 5 5 6 9 11 12 9 7 7 6 4 4 4 4 4 4 5 5 4 3 3 4 5 4 5 4 5 5 6 6 7
81 68 95 48 26 17 14 11 11 11 11 13 11 16 16 11 11 11 10 8 7 6 6 5 4 4 4 4 5 6 6 5 5 4 4 5 6 5 5 5 5 5 6 7 8 9 10
72 75 60 87 42 27 18 13 10 9 9 8 8 7 8 7 6 6 6 5 4 4 4 4 4 5 5 5 6 6 5 5 5 5 6 7 7 6 6 7 7 7 6 8 11 11 14
65 64 82 61 83 42 27 18 13 13 11 10 8 6 6 6 6 6 6 5 4 5 5 6 6 7 7 7 7 6 5 6 6 7 8 8 8 9 8 8 9 10 13 14 13 12 10
97 89 59 72 58 89 51 30 21 15 14 12 10 10 10 9 8 8 7 6 6 7 10 10 10 11 10 9 8 8 8 8 8 8 8 8 8 10 10 12 12 14 12 13 15 17 17
100 84 88 76 72 59 91 46 37 30 23 16 15 16 16 15 14 14 13 14 15 14 15 16 14 13 11 11 13 19 20 19 17 15 15 16 20 22 23 26 28 29 31 31 24 18 17
100 100 87 76 79 76 63 89 46 41 38 31 26 25 24 23 19 18 20 22 21 22 19 18 20 18 19 21 22 24 24 24 24 24 25 27 31 33 38 42 42 42 38 36 35 34 31
100 100 100 73 66 79 82 60 91 51 46 44 40 33 30 27 27 26 27 28 32 32 31 31 30 30 30 30 30 31 30 28 29 30 30 30 30 33 35 35 43 44 40 40 40 39 37
86 85 95 94 54 52 66 85 55 98 64 56 51 45 40 38 39 40 39 38 38 38 38 38 40 40 40 38 40 41 37 39 41 40 39 40 42 43 44 48 50 49 49 48 44 40 38
82 85 89 89 79 44 43 55 84 51 95 79 62 58 49 46 43 42 43 45 45 44 43 42 44 46 44 43 44 44 45 46 48 51 51 52 54 56 61 59 58 56 56 56 54 53 46
84 74 90 95 77 77 61 48 43 81 53 76 91 71 65 59 55 57 52 50 50 50 50 48 47 49 51 52 52 54 54 54 52 51 53 53 53 53 52 52 54 50 46 41 39 37 35
64 97 79 89 86 84 89 59 58 51 71 74 61 92 85 80 74 62 58 60 56 54 56 60 60 60 60 61 62 63 62 63 65 68 71 70 66 63 62 59 55 51 51 51 50 47 47
73 93 76 84 80 96 93 98 61 44 55 69 78 59 77 83 84 81 69 65 60 59 59 61 63 66 68 68 67 69 71 73 73 74 74 74 76 77 80 75 72 68 68 66 63 61 62
66 79 59 68 66 84 88 88 100 71 32 48 73 86 76 71 81 78 78 81 80 75 71 66 63 62 63 63 66 70 73 72 70 67 67 66 68 71 70 71 74 80 80 82 81 76 72

GFSGBSN_250_rhum_093.txt.gz
RH
62 51 47 16 10 7 8 10 13 15 16 16 22 41 59 96 91 95 100 90 59 41 49 40 31 30 19 17 14 12 12 12 11 10 8 6 8 10 14 20 21 26 18 12 12 12 13
46 41 54 12 8 5 4 5 7 7 10 13 13 13 20 41 62 69 79 84 86 70 76 54 40 29 21 20 22 15 12 12 10 9 9 8 10 8 7 7 9 10 16 14 12 10 10
32 30 26 8 7 6 3 2 3 4 5 6 8 9 9 11 17 31 43 57 72 58 56 54 35 35 38 36 24 20 15 13 11 10 9 9 11 10 6 4 4 6 7 8 7 7 7
28 29 37 10 5 4 3 2 2 2 2 3 4 5 5 6 9 12 16 31 50 50 51 53 35 29 39 31 32 20 17 14 10 9 9 9 9 7 6 4 3 3 4 4 3 3 3
27 26 41 13 7 5 3 2 2 2 2 2 2 3 4 5 6 11 13 11 14 27 34 27 38 30 26 27 22 20 16 14 10 11 11 9 6 6 4 4 3 3 3 3 2 2 2
23 21 31 12 9 4 3 2 1 2 2 2 2 2 2 4 5 7 11 13 12 12 13 12 12 13 14 16 13 15 15 12 13 13 11 7 5 5 4 3 3 3 2 2 2 2 2
24 20 24 16 7 5 3 2 1 1 1 1 2 2 2 3 4 5 7 10 12 13 11 9 8 10 10 9 13 13 13 15 16 12 8 5 5 5 4 3 2 2 2 2 1 1 1
25 22 17 19 8 4 4 2 1 1 2 2 1 1 2 3 4 4 6 10 12 13 9 10 9 7 8 11 13 12 14 15 11 7 5 6 6 5 4 3 3 3 2 2 2 2 2
43 26 18 15 14 6 4 2 1 1 2 2 1 2 2 2 3 4 6 8 10 10 8 6 6 7 8 12 12 14 13 10 8 6 8 8 6 5 4 3 3 2 2 2 2 2 1
60 28 23 15 14 8 5 3 2 1 1 1 1 1 2 2 3 4 5 5 7 6 6 5 6 9 11 12 12 13 9 6 8 11 9 7 5 4 3 3 3 2 2 2 2 2 2
57 44 25 16 12 13 6 5 3 2 1 1 2 1 2 2 2 3 3 4 6 6 6 6 8 13 12 12 12 8 8 10 9 7 7 6 6 5 8 7 6 4 4 4 3 2 2
43 54 28 23 14 10 12 6 5 2 2 2 2 2 2 2 2 3 3 3 5 4 5 7 8 10 9 9 8 10 11 12 12 10 11 10 9 7 5 4 3 3 2 2 2 2 1
36 47 36 30 18 12 10 14 8 5 3 3 2 2 2 2 2 2 2 3 3 4 6 7 7 8 8 12 16 17 19 17 11 6 5 4 4 3 3 2 2 2 2 2 2 2 2
35 37 43 32 26 16 12 9 13 11 5 4 5 4 3 3 3 3 3 4 4 5 6 7 9 13 18 22 18 10 6 5 4 3 3 3 3 3 3 3 3 3 4 3 3 3 3
34 37 38 34 35 23 15 11 8 9 14 6 5 5 5 5 5 5 6 6 7 8 9 14 17 21 14 7 5 4 4 4 4 3 3 3 4 4 4 5 5 4 5 4 4 5 4
40 34 40 35 36 36 22 14 9 7 6 9 7 10 8 7 6 6 6 6 8 11 14 12 8 6 5 5 4 5 4 4 4 4 5 6 5 6 5 6 6 5 4 4 4 5 4
43 34 37 37 39 40 42 23 14 11 8 7 5 7 8 9 10 10 9 10 8 7 6 5 6 5 5 5 6 5 6 5 6 7 8 9 8 6 6 6 5 5 5 5 6 5 4
42 30 24 42 34 36 44 48 25 16 13 10 7 7 6 5 5 4 5 5 5 5 5 5 6 7 7 7 8 8 8 8 7 8 8 9 7 8 9 9 8 8 8 8 7 6 8
68 51 32 26 51 44 34 45 51 32 21 13 10 11 9 8 8 8 7 6 6 7 7 8 8 8 8 10 9 9 9 9 8 8 8 8 9 9 9 10 10 10 10 9 11 12 12
84 63 50 26 31 52 64 38 48 54 38 29 25 19 18 17 14 12 10 9 10 10 9 9 8 8 10 9 11 12 10 9 9 9 9 10 9 12 16 15 13 14 12 12 11 12 14
85 77 54 39 24 31 58 72 42 57 54 42 36 36 38 28 26 21 17 17 15 14 14 14 15 16 20 23 22 20 21 20 20 18 17 19 21 23 24 26 25 24 23 20 19 19 16
57 72 76 80 63 30 30 54 74 52 59 56 51 43 39 38 37 32 30 26 23 22 22 22 22 24 22 21 20 23 24 24 24 26 27 27 28 29 34 31 31 31 28 29 30 30 24
66 50 74 79 79 63 34 28 46 72 69 62 66 59 51 46 43 40 39 39 36 32 31 31 30 29 30 32 31 31 31 32 31 33 35 37 38 39 43 41 38 39 36 36 36 33 33
81 47 55 68 78 81 56 37 30 40 60 70 63 64 67 60 54 51 48 46 44 44 41 41 41 40 40 41 42 42 40 40 40 41 42 42 44 44 43 41 39 40 39 38 39 38 40
99 58 46 44 68 81 92 76 34 31 27 51 62 67 57 73 68 57 53 53 51 51 51 51 53 55 56 57 58 58 58 57 58 57 56 55 52 52 53 54 54 52 51 48 47 45 46
100 88 53 59 55 66 90 74 74 32 34 27 42 60 62 66 66 72 62 57 55 55 55 58 59 58 58 56 55 55 54 57 60 62 60 60 62 66 63 60 59 59 55 53 53 55 52
99 97 73 71 59 66 82 80 92 72 42 43 33 31 61 60 64 68 71 72 65 61 59 59 58 62 65 66 67 68 66 65 66 63 64 63 65 57 54 58 60 60 60 64 66 64 60
97 100 94 54 73 44 63 78 92 100 95 48 37 36 23 56 66 66 70 63 69 73 73 70 66 63 62 65 70 73 71 68 66 65 65 65 65 63 62 61 61 62 64 68 72 72 73
86 96 100 84 73 64 52 48 73 90 100 98 55 35 39 25 50 68 68 68 74 68 64 71 75 71 67 69 68 66 63 66 66 64 62 61 62 60 59 59 63 64 63 63 71 67 64

GFSGBSN_250_rhum_096.txt.gz
RH
34 26 20 19 19 27 28 18 7 6 5 4 4 5 6 11 20 52 80 98 100 100 97 80 67 72 41 43 36 24 20 17 14 12 11 14 20 26 27 28 28 32 30 24 18 18 16
26 22 19 18 20 24 10 5 4 3 2 2 3 3 4 7 13 17 43 49 87 100 99 98 92 61 57 56 32 31 23 20 16 15 15 13 12 12 11 9 9 12 14 14 12 10 11
22 21 15 15 23 12 5 4 3 2 2 1 2 2 3 6 9 13 14 24 33 51 74 100 99 96 80 63 40 29 30 23 17 16 13 12 11 10 8 7 6 7 6 5 5 6 8
21 18 13 14 16 7 4 3 2 1 1 1 1 2 2 4 6 10 14 14 20 34 57 71 90 92 69 70 50 39 32 29 25 15 14 12 10 9 9 8 8 7 6 5 4 3 3
21 17 12 13 9 7 4 2 1 1 1 1 1 1 2 2 5 7 10 15 19 23 42 68 66 73 93 74 67 56 34 27 24 23 18 16 11 9 8 10 9 8 6 5 5 3 2
19 18 12 11 10 6 3 2 1 1 1 1 1 1 2 2 2 5 8 13 18 20 28 55 80 68 66 64 56 54 45 32 22 20 18 17 12 14 14 13 9 5 5 5 4 2 1
20 19 15 10 12 5 3 2 2 2 2 1 1 1 1 2 2 4 6 8 16 15 19 34 61 82 72 47 46 50 44 43 29 19 16 14 13 15 15 7 5 5 4 3 2 2 1
25 22 16 11 10 7 4 2 2 2 2 1 1 1 1 2 2 3 5 7 11 24 19 28 35 39 29 27 38 24 28 23 19 16 15 13 12 11 7 6 5 4 3 2 2 2 2
32 23 19 14 8 9 5 3 2 2 2 2 1 2 2 2 2 3 4 6 8 12 13 15 15 18 21 20 22 19 14 10 11 11 13 12 9 8 8 7 5 3 3 2 2 2 2
32 28 23 17 11 7 7 5 3 1 2 2 2 2 2 2 3 3 4 5 6 8 9 10 11 14 15 15 12 9 9 10 12 12 10 9 10 8 7 6 5 4 4 3 3 2 2
40 31 26 21 15 7 8 10 7 3 1 2 2 2 2 3 3 3 4 4 6 7 9 10 13 15 11 10 8 9 11 12 10 10 9 9 8 8 7 6 6 6 7 6 4 3 3
33 39 29 29 19 11 6 8 12 6 3 2 2 2 2 2 3 4 5 6 7 7 9 11 13 10 9 10 10 10 9 9 9 9 9 8 9 10 10 12 9 6 4 4 3 2 2
20 36 33 33 26 14 10 7 7 11 6 3 3 3 3 3 3 3 4 4 5 7 7 7 7 9 8 8 9 9 10 10 11 10 13 17 13 9 7 5 4 3 3 2 2 2 2
28 29 41 33 30 24 19 10 9 7 6 8 6 4 4 4 4 4 4 4 5 5 6 7 7 8 9 8 8 12 17 19 14 9 7 6 5 5 5 4 4 3 4 4 4 3 3
29 23 31 42 31 29 27 20 13 12 7 5 5 9 8 6 5 5 5 5 6 7 8 8 10 16 20 16 16 9 7 6 6 5 5 5 5 5 5 5 5 5 5 4 4 4 4
47 27 25 31 40 29 32 33 22 20 14 8 5 5 6 10 13 15 15 15 15 15 15 13 11 9 8 7 7 6 6 6 5 6 6 6 6 6 6 7 6 6 5 6 5 5 5
44 48 24 24 30 39 32 33 40 39 27 13 11 9 6 5 5 6 7 8 8 8 8 8 8 7 6 7 6 7 7 7 7 8 9 9 10 9 10 8 9 8 7 7 8 7 7
49 44 46 22 24 28 41 38 38 46 40 28 20 17 11 9 7 6 6 6 6 6 6 6 6 6 6 5 6 6 8 10 11 10 10 14 12 12 10 8 9 8 7 8 8 8 8
62 50 52 37 21 29 30 40 42 40 47 38 35 29 23 18 14 11 8 7 7 6 6 8 8 8 9 10 9 10 10 12 12 12 14 12 10 10 10 9 9 8 8 8 8 10 9
51 66 47 51 31 21 31 35 42 47 51 46 41 39 33 28 24 17 15 13 13 11 14 15 17 17 16 16 17 18 18 17 16 16 16 16 18 18 20 19 18 18 18 16 14 12 12
56 68 58 52 53 36 28 34 35 47 54 54 46 46 44 39 39 33 28 26 25 23 23 23 24 23 24 25 25 24 22 21 22 22 22 23 24 25 26 24 25 25 23 24 22 22 21
50 89 58 61 54 63 48 20 28 33 47 57 66 58 50 49 44 42 40 38 35 34 31 31 32 31 31 31 33 33 32 30 29 30 26 27 30 29 28 29 29 30 31 33 38 32 26
47 100 54 60 64 57 60 48 28 28 32 40 60 74 74 62 56 50 47 44 45 45 43 40 39 39 38 38 37 36 35 34 35 37 38 38 37 38 36 36 37 36 38 38 39 40 41
38 92 86 60 76 60 59 57 61 56 31 31 38 54 72 83 75 65 58 53 51 49 47 47 46 45 44 43 43 45 47 47 47 48 47 46 46 44 44 44 47 48 49 48 50 48 50
50 51 98 78 65 68 64 54 58 65 61 40 31 30 38 59 69 74 74 68 62 62 61 59 56 55 51 50 51 50 49 46 46 46 49 50 52 55 59 60 62 63 64 66 66 63 58
77 47 72 89 65 59 79 70 52 67 64 69 47 31 28 31 43 58 62 68 72 69 65 65 69 72 69 65 63 59 55 53 53 52 51 50 50 50 54 59 62 67 67 68 67 70 68
83 67 79 95 75 64 70 89 62 56 93 76 62 63 34 29 31 36 49 55 60 66 69 66 66 64 65 70 72 70 66 63 60 59 58 56 53 54 55 56 56 55 55 58 61 60 58
100 78 64 100 81 77 68 68 68 64 68 74 66 62 70 64 41 36 33 43 57 61 67 67 66 67 65 64 64 67 67 69 69 66 64 61 59 57 57 56 54 56 57 59 60 60 57
93 96 63 66 65 77 84 72 71 56 57 57 67 88 65 67 72 53 49 46 40 38 50 77 82 75 69 67 67 66 68 64 66 68 66 67 65 62 59 62 61 58 60 57 59 60 65

GFSGBSN_250_rhum_099.txt.gz
RH
24 20 16 10 10 13 16 9 7 7 7 6 6 7 9 16 26 28 31 37 30 36 96 100 82 62 99 80 63 53 37 28 25 21 25 36 51 60 64 66 47 49 50 41 40 30 29
26 24 13 8 11 14 7 4 3 3 3 3 4 4 4 6 8 18 25 28 30 25 47 100 100 93 92 93 89 79 59 52 42 33 22 18 15 15 15 34 49 41 37 28 28 31 28
27 21 10 7 11 8 4 2 2 2 1 1 2 3 3 4 5 7 10 10 14 15 19 100 100 100 85 80 73 72 77 70 61 39 38 33 20 14 12 10 9 8 11 12 12 14 17
26 21 9 6 12 8 3 2 2 1 1 1 1 2 2 3 3 4 6 8 9 11 15 59 100 100 100 92 86 92 84 70 60 55 48 34 27 21 14 13 11 10 8 7 7 6 6
25 23 14 6 10 6 2 2 2 2 2 1 1 1 2 2 2 3 4 7 8 10 12 36 94 100 100 100 100 85 67 71 80 75 51 39 30 20 14 15 12 12 10 9 7 6 6
29 25 18 7 8 6 3 2 2 2 2 2 1 1 1 1 2 2 4 6 8 10 13 30 50 52 88 98 92 88 89 86 89 70 52 36 25 18 18 18 16 14 10 8 8 7 6
33 26 20 11 6 8 4 2 2 2 2 1 1 1 1 1 2 2 4 7 9 10 19 28 47 54 51 74 86 87 93 97 91 69 57 35 28 21 17 16 16 13 11 10 7 5 4
32 29 20 18 8 7 7 3 2 2 2 2 2 1 2 2 2 2 4 8 11 12 21 27 26 26 38 57 59 74 86 83 77 66 51 41 33 26 18 16 12 12 11 6 4 3 3
24 33 24 23 13 7 8 5 2 2 2 2 2 2 2 2 2 2 4 6 10 14 20 26 33 29 28 25 30 57 68 67 60 52 44 40 28 17 12 12 9 7 6 5 4 3 3
23 26 30 24 20 11 6 7 4 2 2 2 3 3 3 2 2 2 4 6 6 8 10 16 26 23 25 28 26 29 36 41 38 31 24 15 12 12 10 9 9 6 5 5 5 4 4
23 23 28 28 25 14 9 4 5 4 2 2 2 3 4 3 3 4 4 5 6 8 8 10 18 28 23 26 29 29 25 23 23 16 13 11 9 9 10 8 7 6 6 6 6 6 5
32 25 21 32 25 23 14 9 5 6 5 3 3 3 3 4 5 6 6 6 7 10 12 14 17 16 19 20 18 17 15 12 10 9 9 11 12 11 8 8 8 12 15 9 4 3 3
32 26 22 23 32 25 26 16 8 6 6 9 6 4 4 4 5 6 8 9 10 12 13 13 14 15 14 14 12 10 9 10 11 10 9 9 10 9 12 17 13 7 5 4 4 3 2
36 38 22 20 28 34 26 31 18 10 8 6 6 9 6 5 5 5 6 6 7 6 7 9 10 9 8 9 10 10 9 9 10 16 19 20 18 12 7 6 6 7 6 6 4 4 4
50 38 28 24 20 30 33 31 33 20 13 8 7 6 7 12 14 14 11 10 9 9 10 11 13 15 14 11 14 19 17 14 8 6 6 6 6 6 8 8 8 9 10 8 7 6 4
51 51 35 24 26 23 30 33 40 34 25 18 11 8 7 6 5 6 8 11 11 11 11 10 9 8 8 7 7 6 7 8 8 8 8 8 8 9 10 11 10 13 11 7 8 8 7
51 64 51 41 32 29 24 30 34 40 38 32 25 20 14 9 8 7 7 8 8 8 9 10 10 9 9 9 10 10 10 8 8 8 9 10 13 14 14 12 10 9 8 8 10 10 9
54 68 62 52 44 38 40 25 30 39 42 37 33 34 26 20 17 14 10 8 8 8 7 7 9 10 8 7 6 6 7 9 13 14 14 13 13 12 11 12 11 10 9 10 12 16 16
51 58 67 58 46 57 36 31 26 29 39 43 45 41 33 32 35 33 26 20 17 14 14 13 12 11 11 11 13 13 14 16 16 16 19 20 20 20 18 16 13 12 13 14 15 18 22
41 67 69 69 60 57 56 39 26 21 27 40 48 51 50 41 40 38 40 35 29 27 28 26 24 26 27 27 27 27 28 28 28 28 27 26 26 27 26 24 22 21 18 17 16 17 19
71 44 61 62 61 63 55 55 51 25 27 32 39 51 52 56 57 49 45 42 42 41 37 32 34 33 33 34 30 28 28 30 29 30 29 30 32 34 35 34 30 26 25 25 25 27 28
94 70 50 62 56 66 56 51 57 54 35 26 26 36 48 59 61 64 65 58 54 49 46 44 44 43 40 38 38 33 30 29 29 30 30 30 32 32 31 32 34 31 31 34 35 36 33
92 97 67 48 52 59 84 66 53 71 54 43 29 27 30 39 50 59 63 66 69 67 62 59 54 49 47 48 46 44 42 40 41 43 44 44 42 42 43 44 45 41 42 40 40 39 35
68 99 84 60 47 45 88 79 65 61 57 62 45 34 29 27 32 39 45 50 56 57 60 61 60 61 60 60 57 54 52 50 48 46 46 47 48 48 46 46 49 50 53 52 53 54 54
72 65 87 84 59 58 49 98 74 68 45 44 52 48 58 46 37 33 32 35 39 50 47 56 58 60 62 62 60 57 56 55 55 56 56 56 57 58 60 58 53 54 56 56 58 59 59
83 74 85 83 83 67 60 70 77 62 74 51 42 46 55 62 69 67 45 36 36 37 48 41 47 58 60 58 58 57 55 56 56 55 54 54 54 56 57 58 60 62 65 65 64 64 71
72 91 100 100 79 85 80 63 83 73 56 59 58 48 44 40 43 55 71 66 57 49 51 49 46 52 54 56 52 59 65 68 63 59 59 59 55 53 51 54 55 58 64 68 70 67 68
99 73 87 98 100 70 89 79 72 82 62 55 51 57 59 48 58 46 50 56 66 80 82 77 67 58 56 45 55 59 60 67 84 84 78 67 65 64 61 55 51 52 55 57 59 63 61
87 74 59 69 99 100 79 83 99 69 63 57 65 60 50 60 44 46 51 56 44 58 56 76 64 73 68 68 68 58 53 62 63 77 78 83 82 70 67 62 61 56 54 56 60 66 68

GFSGBSN_250_rhum_102.txt.gz
RH
42 30 16 8 7 12 6 4 3 2 2 2 2 3 4 8 13 16 17 20 27 39 35 59 98 100 100 91 93 82 70 35 30 23 20 17 22 50 72 85 86 76 65 64 58 49 47
39 26 15 7 8 7 4 2 2 2 1 2 2 2 2 5 8 14 18 21 28 32 44 45 54 92 100 100 98 94 94 67 37 30 27 21 20 20 22 32 45 52 62 64 59 48 44
36 23 17 8 7 4 3 2 2 2 2 2 2 2 2 2 5 7 15 20 27 31 46 48 44 45 95 100 100 100 100 89 78 60 44 30 25 22 18 15 14 13 20 37 49 50 56
34 23 17 7 6 4 2 2 2 2 2 2 2 1 1 2 3 5 9 14 27 32 39 47 49 51 51 61 85 99 100 100 100 94 76 57 54 51 35 23 19 14 13 11 9 9 10
33 25 16 10 7 4 2 2 2 2 2 1 1 1 1 2 2 4 7 9 25 32 37 50 48 47 45 42 59 91 100 99 98 100 100 94 92 85 58 43 29 20 16 13 10 10 10
32 28 17 16 8 10 4 3 3 2 2 1 1 1 1 1 2 3 5 7 21 37 40 42 43 45 55 59 52 81 100 91 91 99 88 79 72 70 62 46 42 34 26 24 16 10 10
28 34 20 17 8 8 8 3 3 2 2 1 1 1 2 2 2 2 4 4 10 35 50 55 54 54 61 70 62 70 100 100 98 93 89 76 72 74 66 57 50 38 28 18 16 13 13
22 33 27 15 13 5 7 3 2 2 2 2 1 1 1 2 2 2 3 4 7 18 34 42 45 67 84 66 53 44 73 100 91 68 65 55 58 52 52 55 48 32 23 18 19 13 8
24 26 32 23 18 8 5 6 3 2 2 2 2 2 2 2 2 2 2 3 6 10 23 35 37 28 28 21 22 36 50 63 69 64 67 75 73 72 57 47 35 27 26 21 13 9 8
27 22 32 33 22 17 7 5 7 3 3 3 3 2 3 2 3 3 3 3 5 7 10 12 17 18 16 14 18 25 40 45 52 59 61 67 63 55 38 33 37 36 24 13 9 8 6
31 31 20 34 32 28 17 7 5 7 3 3 3 3 4 4 5 5 5 5 6 8 9 10 12 12 13 19 20 24 33 34 36 43 40 43 40 40 37 30 15 10 8 10 7 5 5
32 26 20 20 37 31 35 17 8 7 7 5 4 4 4 5 6 8 8 10 10 9 11 12 14 16 22 22 23 27 32 28 26 24 24 21 16 14 9 7 9 10 12 10 8 10 6
30 32 24 21 22 39 31 37 22 14 9 8 8 5 5 5 6 7 8 10 12 17 22 26 23 22 21 21 16 13 13 11 10 9 9 9 9 10 10 11 12 14 19 10 6 6 5
37 45 40 24 22 24 40 32 40 30 20 11 9 9 10 8 7 7 7 9 10 11 12 16 19 19 16 18 15 13 11 10 10 10 11 11 11 12 21 28 16 8 8 10 7 8 7
41 29 44 39 28 23 25 38 33 38 39 25 17 10 10 10 11 15 15 13 10 9 9 8 8 8 9 10 12 12 17 24 20 22 23 26 18 11 8 7 8 9 8 10 11 10 9
53 34 42 45 32 25 23 23 37 36 35 44 36 27 17 11 11 11 10 10 10 10 10 12 16 17 16 16 14 11 10 10 9 9 9 10 11 10 10 8 8 8 13 14 14 14 14
45 48 29 48 44 35 27 24 22 35 40 38 43 48 40 28 21 16 12 12 12 11 10 10 10 10 11 12 14 13 11 10 10 10 11 11 10 10 10 10 12 17 12 13 18 16 15
61 50 51 33 52 44 34 28 26 24 29 42 42 50 51 49 47 41 31 22 20 17 13 13 14 12 11 9 9 9 11 13 15 16 15 14 14 15 15 15 14 13 14 19 21 16 20
62 48 53 48 36 54 42 36 38 24 27 29 28 42 42 41 49 55 54 48 44 35 26 22 21 21 22 24 24 24 22 23 24 24 24 25 27 28 27 23 21 24 26 27 22 23 26
82 46 63 59 46 45 53 44 43 49 30 30 32 36 32 38 47 51 55 57 56 57 56 52 45 38 34 32 31 31 32 32 32 34 34 30 26 26 27 26 26 29 32 34 30 25 23
69 75 52 55 70 46 52 46 43 44 42 37 32 28 30 32 32 35 40 44 51 59 60 62 60 60 58 54 47 43 41 39 37 37 37 36 39 37 37 37 38 35 31 30 31 34 35
70 77 75 42 48 72 48 48 44 46 50 40 39 38 32 31 41 38 38 40 43 42 43 47 51 53 54 54 56 60 58 56 54 51 49 49 48 47 48 47 44 43 43 42 41 38 34
85 66 62 91 32 30 66 53 42 46 43 44 37 38 39 40 36 37 33 37 36 43 44 46 46 43 44 46 49 52 54 55 55 57 58 57 55 54 52 51 49 48 45 45 46 47 47
86 86 56 79 45 39 41 76 49 38 45 39 46 39 44 40 43 40 38 36 40 39 38 43 45 51 48 49 48 45 44 45 49 54 55 54 52 52 51 50 49 50 51 52 49 47 48
91 99 70 52 38 39 29 55 78 48 44 40 45 51 39 39 39 45 43 44 44 44 56 54 54 47 44 39 42 44 49 46 45 43 44 46 54 58 55 51 50 50 52 52 53 57 56
100 95 100 76 60 40 84 25 98 84 67 52 40 55 51 42 37 32 43 40 40 37 38 43 54 55 52 52 45 46 42 42 44 40 42 45 50 57 61 64 61 53 52 52 56 64 61
97 97 100 100 75 61 84 36 34 97 93 81 73 50 47 50 51 44 37 35 37 40 44 50 49 54 50 64 71 68 60 53 43 45 48 48 46 41 58 68 65 66 61 54 55 57 64
86 78 96 100 78 80 59 28 36 76 94 90 82 86 65 54 46 54 54 57 48 45 52 58 62 56 61 60 62 72 63 56 52 44 48 42 43 36 31 34 62 64 68 70 62 57 60
100 90 100 100 79 92 67 50 36 43 60 84 94 97 99 94 77 64 49 41 57 63 63 59 71 70 59 54 51 48 47 52 44 59 50 48 42 44 36 26 24 51 73 69 72 67 64

GFSGBSN_250_rhum_105.txt.gz
RH
34 25 11 5 5 5 3 3 2 2 2 2 2 2 2 3 7 11 11 12 13 23 33 45 39 54 50 62 67 64 63 61 50 43 30 24 25 28 67 92 97 97 88 74 84 56 71
36 23 11 6 5 3 2 3 3 3 2 2 2 2 2 2 3 6 11 11 12 17 25 36 41 49 36 55 90 77 75 80 70 64 51 39 36 28 21 19 20 33 41 66 79 82 82
33 24 11 6 7 4 2 2 2 2 2 2 2 2 2 2 2 3 7 13 12 14 21 32 37 47 55 45 51 98 96 90 88 90 78 62 56 52 32 24 22 18 20 26 46 59 59
30 25 13 6 6 4 3 2 2 2 1 1 2 2 2 2 2 3 4 12 13 15 20 29 36 43 48 49 68 100 100 100 97 100 100 86 78 57 46 33 23 18 16 14 13 13 14
30 25 17 10 5 5 3 3 2 2 1 1 1 2 1 2 2 3 4 10 16 16 19 27 36 38 50 69 55 60 100 100 100 100 98 96 91 69 57 44 33 29 26 22 16 13 12
23 29 22 15 6 6 4 4 3 2 1 1 1 1 2 1 2 2 5 10 19 17 20 26 33 39 57 75 45 46 80 100 100 100 100 100 100 100 86 65 56 52 50 38 27 24 17
25 30 27 20 12 5 6 4 3 2 2 1 1 1 1 2 2 3 5 10 20 20 22 26 30 42 59 59 54 51 53 91 97 100 100 100 99 83 84 82 90 84 72 53 44 34 31
28 24 29 25 21 8 4 5 4 3 2 2 2 2 1 2 2 3 6 14 22 24 25 29 33 42 45 46 67 67 58 55 55 61 70 81 83 82 89 90 85 71 68 55 45 35 28
24 24 31 33 23 20 8 5 6 4 3 3 3 3 2 2 2 3 5 11 14 21 26 29 32 37 42 44 60 65 57 50 50 52 50 54 66 75 81 79 74 62 56 51 52 40 26
26 28 26 36 34 30 20 8 5 7 4 4 4 4 5 3 3 3 4 6 12 18 24 34 38 41 43 46 51 51 48 48 49 56 63 51 44 48 58 58 51 49 54 51 33 26 20
37 30 22 35 43 38 36 21 10 6 8 5 5 5 4 5 6 5 5 5 8 13 22 26 34 46 49 48 49 50 52 48 40 38 27 23 28 35 44 54 57 49 29 27 21 15 9
41 29 34 23 36 47 47 41 28 14 6 7 8 6 6 6 7 7 7 8 9 10 11 17 26 34 44 45 38 27 28 17 17 21 26 36 42 50 57 48 37 35 24 13 12 11 13
31 37 27 36 27 32 45 49 45 39 22 12 8 10 10 8 8 9 10 11 12 13 12 14 14 15 16 16 18 21 22 21 19 21 23 20 21 24 25 22 20 13 12 13 15 16 10
34 34 36 28 35 26 27 42 48 47 51 32 20 11 10 10 13 12 10 9 10 13 14 15 17 19 19 21 20 17 16 17 18 16 15 15 14 12 11 12 13 17 20 11 9 11 10
28 35 28 33 33 31 26 27 40 49 46 56 50 28 19 11 11 11 14 20 15 12 11 12 12 12 12 12 12 14 18 19 16 14 16 20 20 22 21 16 10 8 12 12 12 10 12
36 24 27 25 30 34 28 25 28 35 42 49 52 57 48 31 26 19 14 13 14 14 14 14 13 13 13 12 13 13 11 10 9 9 9 9 9 10 10 11 12 12 11 11 11 12 14
50 32 22 31 24 26 38 28 28 29 36 36 40 54 52 56 51 38 33 29 25 23 22 22 22 21 19 18 18 16 14 14 14 14 14 14 12 10 10 11 12 13 16 14 14 17 20
59 38 28 25 33 27 26 34 27 23 24 34 38 45 41 44 44 56 59 56 47 36 33 32 31 32 31 31 31 28 25 24 23 21 19 18 15 15 16 20 24 24 23 19 19 20 28
71 52 34 23 25 36 36 25 33 32 27 24 23 32 35 36 37 41 47 52 55 55 56 55 54 53 52 50 47 44 41 39 39 38 36 35 33 30 27 26 26 24 22 22 23 26 29
93 74 55 37 26 35 48 35 28 33 28 31 27 27 28 29 31 38 39 36 38 43 43 45 48 51 54 57 58 59 60 58 58 58 56 53 48 44 43 43 40 35 34 36 32 29 26
100 91 68 57 47 32 58 53 33 29 28 33 31 29 31 33 30 30 35 32 33 34 36 42 43 42 44 46 46 48 48 53 55 56 56 58 59 59 59 57 54 53 50 49 48 45 39
100 100 80 68 70 40 37 80 51 35 36 32 35 34 29 31 39 38 29 33 35 34 37 38 40 37 38 40 44 48 49 46 44 46 50 54 58 58 56 54 56 60 60 57 55 54 53
96 100 83 70 76 64 37 42 87 57 36 23 37 41 34 28 29 40 44 42 37 34 36 36 37 38 37 37 40 46 40 40 38 36 33 30 30 37 49 54 52 49 48 49 54 56 55
100 82 100 50 63 71 57 29 46 80 78 60 28 32 38 33 26 22 31 38 46 49 43 40 35 37 41 42 49 46 48 54 49 49 43 39 36 34 31 32 47 58 59 53 48 47 49
86 76 97 80 50 57 64 35 59 43 67 92 66 44 36 43 36 28 24 23 32 38 42 48 43 37 33 43 43 54 50 52 55 51 56 53 54 49 46 37 37 45 53 57 63 59 55
96 65 100 100 62 70 55 54 48 56 37 79 100 75 76 66 51 40 36 33 31 30 28 38 37 44 46 44 52 49 48 44 49 57 59 58 60 56 54 49 44 31 38 59 60 64 62
93 100 94 100 95 76 74 70 58 73 46 48 100 90 49 84 77 57 50 45 42 38 38 42 53 49 45 47 51 64 63 59 59 53 50 54 55 54 67 78 61 53 44 37 30 40 65
96 100 100 100 99 100 77 75 72 64 69 56 50 100 84 44 66 72 69 79 69 60 46 43 52 54 52 48 53 62 70 71 60 51 50 45 52 64 55 65 80 77 63 56 46 35 22
100 100 100 100 100 98 88 81 100 81 87 85 51 61 94 68 59 71 66 86 96 64 65 67 57 62 72 66 53 50 62 66 64 65 61 46 50 70 66 60 64 68 73 69 60 53 43

GFSGBSN_250_rhum_108.txt.gz
RH
33 21 7 4 4 2 2 2 2 2 2 2 2 2 2 2 3 5 8 7 8 12 17 28 30 38 34 24 39 34 36 34 33 27 31 43 50 70 100 100 100 100 97 85 96 89 81
30 18 6 5 4 3 2 2 2 2 2 2 2 2 2 2 2 3 7 10 9 10 15 23 36 43 42 35 38 31 33 46 43 34 40 46 37 45 52 42 69 100 100 100 100 99 99
31 18 6 4 4 3 2 2 2 1 1 1 1 2 2 2 2 2 4 10 12 8 15 36 42 44 42 43 38 40 43 54 58 61 49 54 45 42 34 29 26 45 79 84 86 96 100
29 21 8 4 5 3 3 2 2 1 1 1 2 2 2 2 2 2 4 9 13 10 12 26 37 49 51 37 31 37 36 49 71 59 77 80 56 54 49 42 31 22 19 17 17 26 32
20 25 15 6 5 4 3 3 2 1 1 1 2 2 2 2 2 2 4 10 17 13 12 18 40 48 41 29 31 39 44 51 62 81 100 100 96 87 81 83 64 43 34 22 17 14 16
21 27 21 10 6 5 4 3 3 2 1 1 1 1 2 2 2 2 2 8 17 16 13 17 30 36 30 25 25 35 47 61 77 100 100 100 100 100 95 88 71 68 54 44 33 27 20
24 22 25 17 10 6 5 4 3 2 2 2 1 2 2 2 2 2 3 8 16 16 14 18 18 28 29 23 24 37 47 57 74 79 84 98 100 94 87 90 82 76 61 45 40 47 33
25 27 27 23 13 9 6 4 4 4 2 2 2 2 2 2 3 3 4 9 19 20 15 14 17 22 18 22 30 37 46 59 70 71 84 88 91 94 88 79 75 69 64 68 59 49 44
29 31 27 28 23 15 11 7 6 6 5 3 3 3 3 4 4 5 6 11 17 16 16 16 18 20 22 27 33 38 48 63 61 54 52 58 80 78 70 62 60 52 52 51 53 53 47
23 29 29 26 28 25 17 11 7 7 7 6 5 4 5 8 10 11 12 16 18 16 16 19 21 24 27 31 35 43 55 63 65 60 55 57 55 57 64 67 62 52 52 52 56 48 43
27 26 28 30 28 29 25 20 14 7 9 8 8 6 5 7 14 14 16 17 20 19 19 21 24 26 28 31 37 45 50 59 62 59 58 54 49 46 43 43 43 44 41 33 28 33 40
23 26 27 29 29 30 32 28 24 17 9 10 10 10 8 8 9 12 18 17 21 24 24 26 29 32 35 37 40 42 44 46 48 45 43 41 41 40 40 38 38 36 33 33 35 41 39
28 28 23 27 32 31 31 38 34 31 21 13 10 12 9 10 11 10 9 13 13 18 24 26 28 32 34 36 37 38 39 40 43 41 35 29 24 31 32 24 24 21 18 20 21 19 16
31 32 24 23 30 34 32 32 42 40 39 26 24 16 12 12 13 10 11 13 13 13 13 14 15 16 17 18 19 20 19 19 20 20 18 18 19 16 14 14 15 14 12 12 13 16 24
46 34 31 22 26 27 32 35 33 40 46 43 40 31 30 23 17 15 14 13 14 15 14 14 15 15 15 16 14 15 14 14 13 13 12 11 12 12 14 13 15 18 20 19 14 13 19
64 39 40 26 25 23 28 32 35 36 37 39 45 52 41 39 39 38 34 36 31 26 24 22 22 19 18 17 15 14 13 13 13 13 13 14 13 14 14 12 12 13 15 14 14 16 16
70 46 44 39 22 21 21 25 36 37 34 36 41 52 54 48 46 44 59 60 58 56 55 54 54 54 50 46 42 40 37 34 30 27 24 21 19 18 18 16 18 19 18 20 23 23 17
71 63 45 40 35 25 21 20 23 30 39 40 33 37 35 35 35 48 48 48 47 48 50 54 57 60 62 62 62 63 65 62 60 57 57 52 47 39 32 29 29 27 24 24 25 26 26
57 79 49 40 44 36 36 26 19 18 21 22 38 37 35 36 35 34 35 37 36 36 38 39 38 38 39 42 44 47 48 48 51 53 55 57 57 61 59 55 54 51 45 42 39 35 30
100 63 78 45 39 47 31 43 26 26 22 19 19 22 37 34 34 34 34 36 34 31 31 34 38 39 36 35 33 32 34 38 43 49 53 56 60 60 62 66 65 66 64 60 55 50 47
100 78 64 39 45 38 42 40 35 30 29 31 26 22 18 22 29 28 26 26 29 32 34 39 40 43 50 51 53 52 50 46 45 45 39 36 38 48 53 53 54 56 58 63 65 65 61
56 95 74 63 42 38 42 42 44 43 38 28 42 35 33 25 18 18 22 21 20 29 30 33 30 32 34 38 42 51 52 57 64 66 62 60 54 42 32 31 40 52 54 51 53 55 58
70 74 86 83 52 54 55 44 35 62 54 37 38 44 48 38 35 29 23 24 33 30 28 28 32 39 38 31 30 31 35 41 44 52 57 61 63 66 66 63 53 42 36 39 49 53 53
98 69 63 94 73 54 34 70 47 39 80 52 44 37 47 52 52 50 39 32 32 29 32 32 30 38 46 47 42 40 36 38 48 55 60 64 66 65 69 82 84 62 56 47 37 29 46
100 100 81 92 100 82 46 64 85 54 46 59 45 59 50 55 63 73 61 46 43 45 43 41 41 41 46 53 55 51 49 51 53 53 63 68 66 68 79 75 72 79 84 67 54 55 39
84 90 100 97 100 100 83 60 67 94 78 55 57 42 45 55 74 81 91 83 68 58 52 48 47 54 58 60 64 62 56 48 51 56 55 49 58 66 74 87 84 72 80 86 75 64 50
100 100 88 100 92 100 100 94 71 84 96 93 87 76 41 52 55 79 75 87 82 86 83 77 62 50 45 52 57 61 55 59 54 54 45 55 66 72 80 81 88 90 74 73 71 76 71
100 100 100 100 100 79 100 100 100 72 98 100 42 100 99 74 68 42 85 92 96 90 81 83 89 79 65 60 65 81 65 76 66 64 72 76 72 77 69 74 76 86 92 87 78 70 70
100 100 100 100 100 100 94 100 100 98 64 100 97 100 87 62 87 97 48 70 84 100 99 77 81 80 86 79 74 85 87 69 86 84 82 70 73 65 60 56 57 65 66 78 76 73 70

GFSGBSN_250_rhum_111.txt.gz
RH
32 21 7 4 3 3 2 2 1 1 1 2 2 3 3 3 3 4 7 9 9 21 33 31 35 31 25 19 19 20 35 37 97 100 100 100 100 98 90 89 78 86 79 69 68 67 63
26 20 7 4 4 3 2 2 1 1 1 1 2 2 2 3 3 3 4 8 13 12 26 30 32 37 35 27 23 25 30 34 29 53 95 100 100 100 100 96 89 79 81 72 78 84 78
25 22 9 4 4 4 2 1 1 1 1 2 2 2 2 2 2 2 3 5 14 11 14 23 34 38 38 34 32 30 24 31 28 25 32 70 96 100 100 93 99 100 100 98 90 79 85
26 28 13 4 4 4 3 2 2 1 1 2 2 2 2 2 2 2 3 5 14 13 12 16 28 35 42 37 31 36 36 40 44 39 32 26 26 38 48 33 53 57 63 93 90 81 79
24 33 18 6 5 5 3 2 2 2 2 2 2 2 2 2 3 3 3 4 12 13 12 14 29 41 40 35 31 38 38 40 38 35 37 34 29 24 23 24 27 24 22 24 21 21 19
21 29 27 10 6 5 5 2 3 2 2 2 2 2 2 2 2 2 3 5 10 15 11 12 24 41 41 42 37 32 37 38 44 42 42 39 34 34 34 26 34 34 35 31 22 25 18
24 24 34 20 8 6 6 4 3 4 4 3 2 2 2 2 2 2 3 7 16 15 14 14 22 38 40 38 37 29 30 40 46 53 54 64 75 74 68 61 64 67 66 57 42 36 38
26 23 27 33 15 8 7 7 4 5 9 6 5 4 3 3 3 4 6 17 22 20 12 12 17 24 31 28 25 25 32 42 46 57 62 53 52 51 50 70 77 84 78 77 57 55 53
25 29 26 33 29 12 8 7 7 5 9 15 11 7 6 6 5 7 16 25 25 19 15 11 11 13 18 18 15 23 31 41 48 52 56 59 62 57 70 89 86 91 90 79 63 60 49
23 36 30 25 34 27 13 10 8 8 7 10 20 21 17 17 14 15 16 18 20 17 15 15 13 12 13 16 19 26 34 40 46 51 52 54 54 65 65 63 62 78 76 59 51 48 49
20 28 35 32 25 34 28 16 10 9 8 7 9 17 24 22 22 23 20 18 17 16 16 16 16 18 18 20 24 29 34 41 45 48 50 53 61 61 60 54 55 64 68 72 71 64 53
23 20 23 32 32 28 33 33 20 14 10 9 8 10 15 21 25 23 23 23 21 20 21 24 23 23 22 23 26 32 36 40 42 44 48 56 57 57 58 54 52 49 46 44 44 42 40
30 23 20 22 27 34 29 31 36 24 18 13 11 10 9 8 12 18 26 30 29 31 29 29 29 27 28 28 31 33 37 42 48 54 60 62 56 48 44 41 40 38 33 27 23 20 20
35 30 25 21 22 30 35 34 31 35 29 28 23 20 14 12 11 12 12 12 16 25 34 42 41 39 39 39 39 39 40 40 40 40 40 35 28 21 16 16 16 18 18 18 16 14 12
32 27 33 27 23 22 31 36 36 36 31 34 36 32 27 24 21 22 19 18 19 18 18 18 19 20 20 20 20 19 19 19 18 18 18 17 16 14 14 14 15 14 14 16 16 15 12
25 31 25 33 26 26 28 29 28 27 35 34 33 42 39 35 35 32 30 38 36 37 39 38 36 33 30 30 31 28 26 23 23 22 21 22 22 21 18 17 15 16 16 17 16 14 16
34 25 26 29 32 28 25 26 24 24 24 29 38 41 38 37 35 36 43 45 43 43 42 43 45 47 49 52 55 56 54 51 48 44 43 42 41 41 38 36 36 33 29 29 28 28 27
44 36 34 25 31 33 31 27 33 31 29 24 24 31 40 36 35 36 37 35 37 40 42 42 41 40 41 41 41 40 40 40 41 41 42 44 45 45 46 46 48 50 51 49 45 43 42
55 46 40 33 30 33 39 35 30 38 36 34 29 24 23 24 32 37 34 34 38 41 42 44 50 54 58 60 56 44 41 38 36 37 40 43 42 42 41 42 42 42 44 45 44 47 51
40 62 47 37 35 40 29 31 36 34 41 44 38 31 33 30 25 27 26 28 31 31 31 34 40 45 53 59 62 64 67 69 72 72 68 65 61 54 48 48 47 45 45 44 43 42 42
59 42 61 45 34 35 43 32 29 40 44 40 56 50 36 32 41 36 36 34 34 33 37 36 32 36 38 38 48 56 64 67 73 79 85 91 82 87 84 78 80 76 57 48 46 51 49
88 62 67 84 73 51 54 56 39 26 49 47 51 61 59 51 47 39 43 43 44 43 42 42 42 44 47 43 40 39 42 48 58 66 76 85 84 86 91 86 85 88 79 74 62 49 36
94 87 53 81 97 91 49 41 42 50 43 34 55 61 62 58 52 51 52 44 43 47 45 47 50 49 51 46 47 40 42 48 61 71 65 64 75 78 75 72 73 78 88 87 77 63 64
95 100 81 82 89 100 80 59 54 45 70 58 47 52 67 72 60 61 50 51 50 43 41 47 49 59 53 63 56 59 56 57 69 74 70 60 58 59 63 62 65 72 76 74 70 68 74
73 100 84 66 92 100 94 83 83 80 67 62 44 59 50 78 94 90 57 50 50 56 51 47 54 57 69 63 63 55 56 62 57 58 52 54 52 52 55 63 66 62 62 67 68 64 68
96 100 100 90 56 100 100 100 99 86 94 82 33 86 54 58 60 87 100 82 80 60 56 56 52 56 68 72 62 63 70 66 64 62 48 51 55 56 64 47 43 44 48 45 50 53 61
100 100 100 98 100 69 72 60 100 89 91 100 99 76 77 66 49 77 76 77 100 100 80 53 56 52 59 74 60 55 55 62 67 67 76 65 65 60 63 50 54 47 43 46 45 48 57
100 100 100 100 100 100 97 94 95 91 90 87 100 100 100 95 86 62 89 40 100 100 81 92 81 87 67 72 62 50 39 51 51 53 57 66 61 57 55 52 47 51 64 42 44 44 41
100 100 100 100 100 95 100 100 98 100 100 63 99 88 98 100 100 99 90 80 47 100 100 80 100 81 82 72 80 88 81 73 50 62 61 53 54 54 60 55 57 50 53 51 40 39 38

GFSGBSN_250_rhum_114.txt.gz
RH
30 17 6 5 4 3 2 2 1 1 2 2 2 2 2 2 3 4 7 8 24 28 30 35 28 29 22 17 20 29 51 86 100 100 100 100 100 99 96 100 97 99 95 82 72 73 82
29 21 8 5 4 3 3 2 1 1 2 2 2 2 2 2 3 4 5 8 11 21 36 45 37 30 24 25 20 17 18 36 98 100 100 100 100 87 98 88 100 100 98 86 79 72 67
25 28 14 6 5 3 4 2 2 2 2 2 2 2 2 2 3 3 5 6 10 10 29 37 41 28 27 31 29 23 19 20 55 77 84 81 99 100 100 100 100 100 95 93 91 84 72
22 30 22 8 6 5 4 4 2 2 2 2 2 2 2 2 3 3 4 5 8 12 15 27 33 41 34 33 36 31 21 17 19 19 22 30 92 99 94 100 100 100 100 89 100 88 86
24 27 29 15 7 6 4 5 4 2 2 2 2 2 2 2 3 3 3 3 5 10 16 17 40 40 26 32 37 36 33 30 24 24 24 22 76 54 44 88 99 100 100 100 100 99 98
25 24 34 27 8 6 5 5 6 4 2 2 2 2 3 2 3 3 4 4 5 11 15 16 15 24 27 42 39 34 34 38 38 32 28 26 26 23 32 37 39 68 90 90 83 78 66
25 25 28 38 20 8 6 6 6 8 5 3 2 2 3 3 3 4 4 5 9 14 18 16 15 16 27 30 28 33 38 38 42 42 38 34 28 22 25 27 22 19 22 26 42 28 23
24 25 27 34 36 14 9 7 7 10 10 8 5 4 4 3 3 4 4 6 8 15 17 18 16 16 18 29 33 32 34 38 41 41 44 44 44 42 34 29 31 31 31 31 24 21 21
26 22 25 27 36 32 14 10 7 8 13 13 14 12 12 9 10 12 14 16 17 16 15 14 11 11 12 19 26 27 35 41 44 42 39 45 44 47 50 51 48 44 39 36 33 30 23
22 24 20 22 26 37 34 15 11 7 9 16 14 14 17 18 20 20 16 15 13 13 12 12 12 11 11 17 28 25 28 36 41 39 41 43 47 51 50 48 46 44 40 38 36 32 28
28 21 25 23 25 26 37 37 17 12 9 8 14 16 17 17 16 15 15 16 17 15 18 16 15 14 14 14 18 28 30 32 37 40 40 40 46 54 54 55 52 50 50 50 46 43 39
23 31 25 30 25 26 27 36 39 28 14 12 9 10 13 16 20 21 23 24 24 22 25 26 28 28 28 28 26 27 29 32 36 41 45 47 49 52 53 51 50 51 54 49 41 35 37
19 30 30 25 33 27 28 28 30 37 38 26 14 12 10 10 15 20 22 24 28 29 28 26 28 28 31 31 33 40 42 44 41 44 47 49 49 49 50 48 49 49 43 39 33 32 33
16 21 40 28 30 30 30 26 32 29 30 42 42 27 18 14 11 10 12 18 28 28 30 29 26 25 23 24 26 29 32 35 36 38 42 44 44 42 40 40 37 40 37 24 18 17 17
17 25 22 35 33 36 32 34 27 26 27 30 30 39 43 34 25 21 21 15 13 14 15 17 21 27 29 28 28 28 28 29 31 33 35 38 38 36 26 19 16 14 14 14 14 13 13
20 18 29 21 27 39 44 34 37 32 33 30 34 34 28 33 41 44 45 40 34 31 29 27 25 22 20 19 19 20 19 20 20 21 22 22 23 22 23 24 23 22 22 25 22 19 17
25 23 26 28 21 26 39 49 42 41 37 36 34 34 34 40 43 43 49 44 46 49 50 50 50 48 46 43 39 38 36 38 38 41 43 44 43 43 42 38 36 34 33 32 32 32 34
38 32 31 35 28 24 23 26 55 46 49 43 38 40 38 36 36 43 54 61 74 72 65 73 73 71 62 58 48 47 44 43 42 41 38 37 35 35 34 32 33 34 35 36 36 38 38
47 49 41 40 37 30 28 22 25 46 55 52 45 38 34 40 40 42 38 40 48 50 57 62 65 66 62 63 60 56 52 53 51 49 50 49 44 43 46 48 46 40 37 31 28 29 32
62 59 52 42 39 38 29 36 28 25 38 42 54 51 43 34 36 42 44 42 37 35 36 39 42 46 50 54 60 63 60 58 59 62 62 62 64 63 60 51 48 51 54 51 45 40 41
91 65 52 60 56 41 36 34 45 37 30 34 28 44 48 46 36 33 43 43 40 38 36 31 30 33 34 38 43 46 54 57 54 52 54 56 60 62 61 60 60 62 60 58 53 51 50
86 92 64 72 84 74 50 45 53 39 43 41 37 36 40 43 43 46 39 32 30 30 34 41 41 36 33 34 36 35 38 41 40 52 55 48 43 46 51 49 46 47 58 60 60 61 66
75 91 93 75 84 100 83 61 60 59 37 52 39 54 50 46 47 52 60 47 41 38 36 33 32 37 37 36 39 39 38 34 32 30 33 34 37 38 34 33 37 38 41 40 39 38 41
100 89 82 85 77 72 100 95 92 72 62 41 73 47 49 45 74 69 63 90 64 52 51 50 47 42 35 30 29 33 35 38 37 37 37 38 35 30 35 32 32 33 33 32 34 36 34
85 100 66 99 86 81 100 100 100 100 64 76 57 84 58 50 62 79 75 74 100 83 73 69 67 60 52 38 42 36 34 35 39 40 36 36 34 33 36 38 40 40 41 44 46 54 63
100 98 95 74 100 97 86 91 76 100 62 77 95 85 100 93 82 100 61 55 82 100 69 68 93 86 81 65 62 58 62 74 50 37 51 50 44 45 44 34 46 45 55 63 68 60 70
100 100 100 100 97 98 78 88 99 99 100 63 71 82 65 98 100 93 100 90 76 75 100 95 98 88 95 100 69 93 84 88 75 60 77 55 74 54 55 54 43 42 50 60 61 73 73
97 74 84 100 100 100 100 100 100 100 100 100 97 91 82 82 78 54 96 100 100 67 67 99 100 80 98 100 62 93 100 84 92 68 69 76 91 95 94 78 71 72 65 69 74 81 86
92 93 99 100 100 100 100 100 100 100 100 100 100 100 100 100 100 97 88 73 69 100 99 65 99 100 100 100 100 61 100 100 100 100 93 50 95 100 99 93 93 86 92 96 91 80 82

GFSGBSN_250_rhum_117.txt.gz
RH
17 18 7 5 4 5 3 2 2 1 1 1 1 2 2 2 4 4 6 8 28 35 29 30 30 24 22 20 16 36 53 96 100 100 98 99 80 98 100 100 100 90 87 71 57 68 87
18 19 13 5 5 6 4 2 2 2 2 2 2 1 2 2 3 4 5 7 11 25 31 31 32 31 24 25 19 17 18 34 89 100 100 100 97 84 97 100 100 100 99 80 83 95 89
20 17 19 7 6 6 6 3 2 2 2 2 2 2 2 2 2 3 4 6 7 11 21 33 32 30 32 22 26 22 18 17 24 57 98 100 100 100 100 92 90 97 88 85 74 78 70
20 18 22 12 6 6 9 5 2 2 2 2 2 2 2 2 2 2 3 5 7 8 16 25 36 34 30 30 28 23 20 19 20 24 35 46 90 100 100 100 100 99 95 93 80 83 79
18 21 19 21 8 7 8 8 4 2 2 2 2 2 2 3 3 3 3 4 6 9 10 21 35 34 28 30 30 31 33 32 27 25 26 23 28 94 94 98 100 100 100 94 94 85 74
19 23 19 21 17 8 8 11 8 4 3 2 2 2 3 3 3 3 3 4 6 9 11 21 31 30 23 24 31 34 32 31 29 28 26 23 22 48 64 69 95 96 96 98 93 90 90
21 22 23 19 23 14 8 11 12 8 7 4 3 3 3 3 4 4 4 5 6 10 13 15 20 20 18 20 31 40 42 36 35 37 39 35 26 23 18 18 33 79 84 73 60 87 85
22 22 24 23 20 26 13 8 13 14 9 12 9 8 5 4 4 5 5 5 7 11 15 15 15 17 17 14 29 38 41 43 41 39 39 44 38 30 23 20 20 18 17 15 21 72 42
21 24 26 24 23 21 26 13 9 16 14 12 12 11 13 14 8 6 6 5 7 13 18 18 17 17 20 14 18 39 46 42 42 40 39 39 40 40 37 33 32 32 29 24 21 21 20
22 25 26 27 26 25 23 28 16 10 12 15 13 13 12 12 14 16 15 15 17 16 16 15 15 17 19 17 17 30 42 40 42 45 44 42 40 42 41 43 48 48 43 41 40 38 35
17 22 27 29 28 27 26 25 28 23 11 12 16 15 14 11 11 12 15 17 17 18 18 17 17 18 18 15 14 18 33 46 47 48 43 42 42 40 38 42 48 47 44 44 43 41 36
14 16 21 30 29 31 30 29 27 28 27 17 11 14 18 18 17 16 15 16 14 19 22 24 24 27 24 21 16 16 22 30 32 34 35 36 38 37 39 44 44 44 44 40 35 32 31
20 18 19 20 31 34 34 32 28 29 30 35 34 17 12 12 19 23 22 20 21 27 22 19 19 20 14 14 18 21 25 29 33 34 36 38 38 38 39 39 38 37 35 35 35 35 35
23 21 18 20 20 29 36 41 36 30 27 30 31 38 34 19 14 15 21 26 26 25 25 24 24 21 18 19 19 19 22 27 31 33 34 36 39 38 37 33 33 37 39 37 36 30 23
36 24 22 19 21 21 30 25 40 42 36 32 33 32 34 36 40 38 32 20 16 17 22 27 28 25 25 24 22 22 23 24 26 29 32 32 32 32 36 39 34 25 20 18 17 15 15
44 36 26 24 20 19 21 28 24 32 46 40 40 37 36 40 35 34 41 44 45 39 31 26 23 21 23 27 28 31 31 32 33 34 34 33 30 29 28 32 33 32 33 33 28 24 23
38 42 37 27 28 22 19 19 28 28 29 36 39 42 40 40 43 45 49 43 39 42 38 43 45 44 42 35 29 30 29 31 36 38 42 47 47 46 43 40 34 31 30 29 29 29 30
52 44 44 39 32 32 32 20 21 24 28 35 29 28 28 29 32 37 42 43 51 51 52 57 57 54 44 44 36 39 42 41 43 46 45 43 42 40 37 36 35 34 32 32 32 33 32
81 59 50 46 50 46 39 44 22 22 21 26 36 36 29 26 23 30 30 32 35 40 43 49 52 51 52 50 47 48 49 49 49 46 45 41 41 40 39 38 39 42 42 41 41 41 43
86 90 63 56 58 47 53 45 48 32 26 24 27 42 45 39 33 32 29 26 27 29 32 29 30 28 30 32 37 36 36 34 32 34 32 33 37 37 38 36 38 41 41 40 40 42 42
64 93 85 66 63 65 56 61 46 48 52 29 26 34 40 61 52 43 34 35 31 31 30 26 25 26 25 25 30 30 27 26 27 26 27 29 31 34 36 38 44 52 60 64 63 59 58
97 77 90 76 73 62 60 80 62 59 68 55 34 38 37 52 68 66 53 49 47 40 41 34 34 34 31 30 28 30 30 28 30 29 26 25 26 28 30 36 36 41 41 46 52 55 57
100 100 100 73 77 97 64 98 74 85 70 80 50 50 49 46 52 45 88 74 62 47 58 49 42 45 44 42 53 46 33 30 36 42 46 49 50 47 42 45 48 42 47 43 45 51 48
62 100 91 78 67 98 99 92 50 62 100 90 87 70 62 67 74 58 47 75 87 83 66 70 64 72 51 76 71 76 72 60 49 46 45 63 73 64 68 66 65 70 71 76 73 74 68
96 84 90 67 96 70 57 100 60 74 65 61 86 99 88 60 75 87 79 70 60 79 60 72 84 68 90 70 80 77 89 81 81 77 83 69 69 93 90 82 75 79 81 90 96 99 91
100 100 100 93 71 100 94 98 100 100 92 80 72 89 84 100 98 72 84 79 65 66 36 58 80 74 50 99 91 79 99 100 100 98 90 83 58 86 89 96 83 87 99 100 100 100 92
98 83 99 100 100 100 100 94 100 67 100 99 100 98 92 100 100 100 99 85 83 81 67 52 53 45 54 41 89 97 78 78 100 100 100 100 100 98 83 87 76 74 93 100 100 100 88
91 88 87 100 100 100 100 100 100 76 100 98 99 100 100 100 100 100 100 100 100 99 100 100 94 76 64 56 41 76 100 68 44 62 66 57 100 100 87 76 98 73 88 96 91 85 85
100 100 100 88 82 78 74 78 100 100 100 100 100 100 100 100 100 100 100 100 100 100 100 100 96 84 100 87 100 100 99 97 87 70 91 82 83 83 80 73 95 100 99 100 100 100 100

GFSGBSN_250_rhum_120.txt.gz
RH
16 16 8 5 6 5 4 2 1 2 2 2 2 1 1 2 3 3 4 9 18 30 29 28 21 15 18 14 14 17 19 33 78 100 100 90 73 100 100 100 100 97 100 86 84 98 99
16 16 13 5 6 7 6 3 2 2 2 2 2 2 2 2 2 3 4 7 18 29 32 18 26 20 19 18 17 16 16 19 27 50 81 100 96 87 100 100 100 95 82 77 82 96 98
14 16 17 6 6 9 9 4 2 2 2 2 2 2 2 2 3 3 4 6 17 33 37 20 32 33 24 23 19 17 17 17 19 21 50 92 100 77 80 98 100 98 91 84 83 84 76
15 15 17 11 6 8 10 7 3 2 2 2 2 2 2 2 2 4 4 6 9 26 32 22 28 34 32 30 24 20 20 19 19 21 22 83 95 100 100 99 97 91 89 90 93 90 92
16 14 16 19 8 7 10 9 6 3 2 3 3 3 2 2 2 3 5 6 7 14 22 15 29 38 38 37 37 31 29 26 22 21 22 33 82 90 98 100 100 100 100 100 91 88 82
18 16 18 19 21 8 12 10 9 6 3 3 4 3 3 3 2 2 4 5 7 9 17 22 32 35 40 42 41 40 35 32 29 28 23 21 42 61 50 56 91 100 100 100 100 96 87
17 18 16 19 21 18 10 14 10 9 6 4 3 4 4 4 3 3 4 5 7 12 20 27 29 28 38 43 44 41 40 34 34 37 34 23 19 16 17 16 19 31 47 65 79 100 100
18 18 17 17 20 23 19 12 14 11 10 8 6 4 5 4 4 4 5 6 7 13 16 25 26 42 31 37 39 38 41 42 41 38 31 26 26 29 28 26 26 26 25 20 17 44 77
17 19 16 17 16 20 22 21 12 19 12 11 10 9 7 5 5 6 6 7 8 8 10 11 14 22 26 31 36 38 41 46 41 38 38 36 35 36 38 38 35 31 26 24 22 22 20
17 21 18 17 17 16 21 22 25 12 19 17 14 12 12 12 10 10 10 11 12 13 13 13 14 15 19 28 31 36 39 47 45 42 38 37 39 41 38 37 37 35 29 25 24 25 24
21 18 20 20 17 17 18 21 24 28 20 14 19 16 14 12 13 15 18 19 18 16 16 16 15 18 19 25 30 35 44 45 44 40 40 39 43 43 38 40 41 41 40 38 36 36 35
23 22 20 22 21 17 17 19 21 26 27 31 20 15 21 18 17 18 17 17 22 16 17 14 13 15 21 25 30 32 43 45 42 39 39 41 44 40 38 38 38 39 39 38 38 39 37
29 23 22 22 24 21 17 17 21 22 25 30 32 30 19 13 19 22 22 21 20 22 19 15 13 9 12 12 15 17 18 26 35 35 36 38 36 37 38 39 39 38 35 33 34 34 35
33 30 26 25 26 26 22 19 19 23 24 26 34 36 31 35 29 19 17 21 22 22 22 20 20 15 15 14 11 13 15 18 21 28 30 32 36 36 38 37 35 32 32 32 33 30 24
40 38 34 28 26 28 30 27 26 22 21 27 30 35 38 37 32 39 41 36 20 16 20 22 22 21 21 20 18 20 19 22 25 27 30 36 33 33 32 33 30 23 19 23 22 21 18
50 44 40 38 33 26 33 33 35 30 26 22 22 27 33 40 43 46 50 48 42 39 31 22 18 18 21 24 24 26 26 27 27 29 29 29 28 25 27 36 41 42 40 39 37 35 36
61 54 53 46 42 36 29 31 39 40 38 31 25 21 21 26 29 35 44 46 49 49 44 40 42 39 38 37 36 34 35 34 35 37 39 41 42 43 48 50 48 46 43 41 38 35 34
72 77 68 57 53 43 40 33 32 41 45 44 37 32 25 22 22 22 23 30 36 36 39 45 48 49 50 51 51 51 50 49 50 50 50 49 47 43 36 38 41 44 42 38 37 36 35
61 80 77 76 61 60 49 43 42 35 44 48 49 46 36 34 24 23 21 22 26 26 26 30 29 30 30 32 37 39 39 40 38 41 47 50 52 52 54 54 53 53 53 57 59 59 55
54 91 77 83 73 82 67 56 58 46 42 47 51 57 57 51 43 25 32 28 23 24 26 23 22 24 26 25 25 27 28 33 33 34 37 38 39 42 42 47 54 58 64 64 67 67 74
78 85 95 77 81 90 91 91 71 74 62 49 50 63 63 64 61 44 34 26 41 35 39 35 38 39 33 35 36 28 26 26 32 37 46 53 49 47 46 46 45 42 59 56 55 54 51
74 86 99 100 61 80 80 82 84 78 81 69 54 68 64 58 77 78 52 33 26 33 29 43 49 50 33 41 37 45 41 35 28 24 22 23 28 46 43 40 61 62 67 64 75 61 48
95 78 72 97 65 70 92 86 67 50 87 83 84 63 65 70 59 65 79 62 44 28 28 24 30 33 48 54 34 39 61 44 45 52 49 36 37 36 33 43 43 65 65 60 61 72 64
92 99 76 69 62 69 89 61 96 74 51 68 67 94 89 91 73 70 58 70 61 48 37 32 26 31 49 24 32 26 44 56 70 48 50 38 44 38 44 44 40 35 52 63 73 72 72
56 76 99 91 63 74 63 87 75 100 72 50 93 84 85 93 69 80 89 79 85 78 60 69 51 46 35 39 44 54 53 36 45 73 55 57 54 44 45 55 62 65 62 68 74 78 81
81 64 79 100 96 100 96 83 74 100 100 100 62 96 100 98 100 99 84 96 98 94 100 85 80 59 60 58 38 43 48 58 54 65 80 67 61 75 54 75 79 61 93 100 100 100 100
100 100 91 98 100 100 100 86 78 83 84 100 99 98 80 99 100 100 100 100 97 92 100 100 100 100 100 85 80 85 75 91 96 100 86 76 90 100 100 87 76 97 100 100 100 100 100
90 100 96 100 100 99 93 100 100 100 100 100 100 84 95 92 100 100 100 100 100 100 100 94 99 99 100 100 100 100 92 100 100 100 100 100 100 100 98 100 100 100 100 100 100 96 93
37 53 100 100 100 100 100 100 100 100 100 85 92 100 100 100 100 100 100 100 100 95 76 59 64 75 64 65 66 88 100 100 92 89 70 68 97 100 100 100 98 98 100 99 95 90 82

GFSGBSN_250_rhum_123.txt.gz
RH
13 14 14 5 7 6 4 2 2 2 2 2 2 2 2 2 2 2 3 4 10 20 27 25 20 15 16 16 17 15 18 22 36 71 92 83 78 75 64 69 94 100 99 99 100 100 100
14 14 15 6 7 6 6 3 2 2 2 2 2 2 2 2 2 2 2 4 9 22 25 29 24 17 17 15 17 16 18 18 24 40 75 92 76 94 79 62 63 84 97 87 80 92 100
15 14 15 11 10 8 8 4 2 2 2 2 2 2 2 2 2 2 4 6 11 20 23 30 23 18 22 19 18 20 21 20 23 31 47 95 95 98 95 76 67 72 95 96 88 87 88
15 14 16 17 8 10 10 7 3 3 2 3 2 2 2 2 2 4 4 7 10 20 27 32 21 25 26 24 22 23 22 21 23 26 34 43 60 83 100 99 92 95 97 90 80 88 96
15 13 16 20 15 10 9 10 4 3 3 3 2 2 2 2 2 4 5 6 9 21 28 25 21 30 32 28 26 27 23 21 22 23 24 26 30 35 46 82 100 100 100 100 96 87 89
17 16 13 17 21 12 11 9 8 3 3 3 3 2 2 2 3 3 5 7 8 21 22 23 22 38 42 33 27 26 24 22 21 23 24 24 25 27 23 34 65 80 92 100 100 100 90
19 20 16 14 19 21 12 12 10 10 4 4 4 3 3 3 4 5 5 7 7 14 19 21 36 44 48 38 31 29 29 29 27 23 21 21 20 19 20 19 19 22 45 91 94 92 93
21 21 21 14 17 21 23 15 15 10 11 6 5 4 4 5 6 6 6 8 10 14 10 15 39 45 48 47 43 37 33 30 28 26 25 22 19 22 20 19 18 18 20 37 51 63 61
24 22 25 17 14 18 22 25 20 17 14 13 10 8 7 6 7 7 8 10 11 12 12 26 45 50 53 51 47 42 41 42 38 35 32 31 29 27 24 21 21 21 22 22 23 19 18
30 24 30 25 17 14 20 23 28 26 18 17 14 14 13 11 11 10 14 12 13 14 15 27 42 48 51 50 47 49 47 44 41 40 37 32 29 34 43 43 34 28 27 27 28 26 26
33 29 26 32 28 16 16 20 23 27 32 20 18 20 19 18 14 14 16 15 15 16 18 24 33 36 41 49 48 48 45 43 40 38 38 34 35 36 38 42 43 41 40 39 36 38 38
37 30 27 32 35 28 18 17 19 24 28 33 30 20 21 21 19 18 17 17 16 15 15 17 26 41 38 38 40 42 40 38 38 38 42 38 38 42 47 45 41 39 38 36 38 38 36
47 39 32 32 33 36 30 19 20 22 24 30 32 33 29 21 23 23 18 15 15 17 16 14 14 15 24 41 46 48 48 43 39 38 43 45 44 47 45 40 39 37 34 33 33 34 32
54 54 41 36 39 36 35 33 21 20 21 27 29 33 30 32 33 22 24 25 22 15 13 14 16 16 17 20 20 24 31 36 34 35 38 38 35 36 37 37 33 32 32 29 27 25 22
64 54 50 44 43 37 40 34 34 28 23 21 25 27 30 32 31 35 36 33 23 24 22 23 19 16 16 16 18 19 19 20 20 22 26 32 32 31 31 31 31 30 32 38 37 34 33
65 63 60 51 49 45 39 45 41 39 32 29 22 24 25 28 29 32 33 36 35 34 26 22 22 23 27 29 26 25 24 26 27 29 31 30 30 31 36 41 39 34 35 35 38 39 40
66 67 78 69 57 50 47 46 48 51 42 37 29 26 22 23 25 26 28 31 32 32 33 33 35 36 33 31 28 28 28 28 29 30 30 36 42 43 44 45 46 46 42 42 43 47 48
68 62 75 94 80 62 61 52 49 54 56 48 44 32 29 27 28 24 25 25 32 35 38 40 40 38 37 38 38 39 39 40 41 42 41 43 46 47 50 56 59 63 62 60 59 59 59
100 75 50 72 97 94 79 73 54 57 55 60 70 60 30 31 24 24 23 26 25 29 30 33 36 37 41 43 45 45 44 42 45 51 51 53 48 46 46 46 51 38 36 34 34 34 36
100 76 80 50 65 84 93 90 75 62 63 59 60 74 68 43 29 26 22 21 19 18 22 27 35 29 34 36 38 41 47 48 50 50 50 50 54 64 60 50 49 50 44 48 47 45 45
91 78 78 89 42 63 74 80 80 70 72 70 59 65 73 80 64 46 30 25 25 23 22 18 17 19 19 24 24 25 27 26 27 26 29 30 28 27 27 31 32 32 39 41 40 50 57
64 92 88 69 71 43 44 66 55 71 63 62 86 74 60 68 73 63 62 37 30 29 28 28 23 21 18 16 19 18 19 19 18 20 23 26 25 21 30 33 37 47 56 68 73 82 82
54 54 89 90 80 54 46 40 53 59 49 71 69 90 76 51 58 71 84 73 51 49 41 37 35 32 32 30 28 27 27 25 24 20 23 22 31 24 25 25 30 31 34 39 74 63 77
75 65 58 68 96 87 61 58 57 49 53 55 68 93 90 79 71 65 75 81 75 81 65 54 50 53 48 37 36 37 38 41 49 52 46 58 46 54 58 50 57 49 48 63 69 67 74
95 94 79 73 71 97 97 82 80 86 67 45 56 66 98 95 99 97 93 95 96 79 91 75 73 65 66 84 51 49 59 66 70 73 61 72 76 76 80 78 80 75 80 99 100 100 100
76 100 77 100 94 83 94 100 95 95 88 76 57 65 85 100 64 66 100 100 90 100 100 100 100 100 87 79 81 83 94 85 95 66 73 100 100 82 91 68 100 85 100 100 100 100 92
38 78 72 50 91 81 95 100 100 100 99 92 100 91 100 100 98 66 100 100 100 100 98 85 96 99 85 68 63 68 72 68 46 38 46 48 61 70 60 74 73 99 100 100 95 83 82
42 41 77 54 50 48 80 72 100 100 96 100 90 100 100 100 100 90 100 100 100 100 100 100 98 82 77 78 76 62 55 36 39 70 62 46 43 46 48 55 66 78 66 47 49 58 72
50 48 53 69 59 37 52 61 69 54 69 42 89 100 100 100 100 100 100 100 98 100 84 99 90 96 100 98 98 99 99 96 99 100 100 100 93 72 66 64 73 95 92 80 72 76 74

GFSGBSN_250_rhum_129.txt.gz
RH
17 14 18 12 11 8 4 3 2 2 2 2 2 2 2 2 2 3 4 8 8 7 7 16 19 19 19 15 14 16 16 21 32 55 70 100 100 100 99 100 100 100 100 100 94 94 91
18 16 18 15 12 10 6 4 4 2 2 2 2 2 2 2 2 3 3 8 9 7 7 10 21 23 22 20 17 16 16 16 22 34 49 80 100 100 100 100 100 100 100 100 100 100 85
20 18 15 20 13 11 7 4 5 4 2 2 2 2 2 2 2 3 3 9 11 9 9 9 18 26 26 23 21 17 16 15 18 26 28 51 65 67 100 100 100 100 100 100 100 100 94
24 21 18 20 18 14 9 6 6 5 4 3 2 2 2 2 2 3 4 9 15 14 12 10 11 26 31 26 23 20 17 16 15 17 22 25 29 31 92 100 100 100 100 100 100 100 100
29 24 18 17 22 19 14 9 6 6 5 3 3 2 2 2 2 3 4 9 13 17 19 13 9 24 32 30 26 21 19 16 16 16 18 21 24 26 35 100 100 100 100 98 98 97 80
39 28 24 18 19 24 18 11 8 7 6 6 4 4 2 2 2 3 5 6 10 16 14 11 11 32 40 35 32 27 22 18 19 19 17 19 19 21 26 56 96 100 100 100 100 100 100
45 32 28 25 16 22 24 16 10 9 8 7 5 5 3 3 3 4 4 6 10 13 10 8 11 32 39 35 31 28 24 21 21 19 19 20 19 19 21 27 68 76 65 63 74 87 81
42 41 32 30 21 18 26 24 14 10 9 9 8 8 6 4 4 4 6 8 9 8 7 8 18 35 40 40 40 35 25 22 21 21 21 20 20 23 24 24 22 34 33 26 34 30 36
42 41 36 34 30 22 18 27 26 16 11 8 9 10 13 14 10 7 9 9 11 13 13 16 26 41 41 41 38 36 35 32 27 24 22 24 26 26 22 22 24 22 21 18 18 25 26
49 42 43 35 38 29 21 18 22 27 20 13 11 13 15 18 23 17 15 18 16 13 18 35 38 36 35 35 39 37 31 29 28 28 26 28 30 25 22 20 20 19 18 19 21 21 23
40 46 49 39 38 38 26 24 20 23 33 23 17 12 12 12 15 18 18 20 18 18 28 34 36 36 38 37 37 38 36 32 31 29 28 29 29 27 23 21 21 22 26 24 24 22 19
42 43 47 43 39 40 38 32 25 23 28 32 26 17 15 12 14 15 17 21 20 31 37 39 40 39 34 38 42 36 29 30 33 32 29 28 25 25 27 30 33 34 25 19 18 17 20
35 48 47 55 40 38 40 40 28 27 27 28 33 28 21 13 10 17 22 28 32 36 34 37 37 38 42 45 46 37 31 32 34 36 36 36 41 47 46 42 36 32 27 25 26 20 26
39 49 39 52 58 42 41 36 38 30 25 26 25 26 29 26 18 14 18 28 43 44 46 45 43 48 46 47 51 49 50 52 54 54 54 55 51 46 45 42 38 32 30 33 34 32 32
45 48 54 42 50 60 44 46 35 38 35 25 27 27 23 27 27 23 17 15 24 29 34 42 49 49 47 52 55 53 53 54 56 55 50 49 50 50 45 40 37 37 36 31 28 30 34
49 49 45 51 48 53 63 44 48 36 35 39 26 26 28 27 25 28 27 23 18 17 19 24 30 35 45 51 54 55 57 57 55 50 44 44 47 45 40 36 34 32 36 37 39 42 45
53 49 40 46 51 49 52 62 50 51 37 33 37 33 27 27 28 29 31 30 31 27 23 19 19 18 19 25 32 38 43 44 42 38 36 35 36 37 34 36 46 50 49 43 41 45 42
56 64 40 37 46 51 44 50 53 56 54 38 35 32 35 29 27 26 25 27 32 32 31 32 30 27 25 23 22 24 25 26 28 29 30 32 34 40 52 51 51 48 47 49 51 48 32
50 66 64 38 38 43 46 51 53 51 48 57 42 39 36 36 34 31 28 27 25 24 24 32 37 36 33 32 30 29 29 30 31 35 39 45 47 46 39 41 42 42 42 35 26 25 25
36 42 66 61 43 41 43 40 51 54 48 56 56 52 41 44 42 40 36 35 32 32 34 31 27 25 26 27 31 30 30 29 32 39 38 34 34 31 28 28 28 26 23 25 28 30 39
35 29 29 47 57 52 54 47 37 47 60 44 60 67 61 54 45 48 47 50 46 42 39 39 38 33 32 35 29 29 28 31 32 36 28 35 37 38 36 48 40 40 42 43 40 44 64
46 34 26 26 31 50 72 64 67 53 36 45 38 48 71 84 72 58 46 54 52 56 52 52 51 50 48 56 56 53 44 43 44 40 44 48 68 58 53 56 69 60 63 60 62 71 71
68 46 37 32 41 38 29 51 59 84 71 44 41 42 50 55 65 88 85 77 72 60 63 63 54 53 70 67 72 66 52 42 46 39 34 38 57 61 56 43 43 66 91 81 62 64 78
59 78 61 46 58 62 50 51 30 38 79 88 64 51 63 67 79 80 72 91 91 99 100 82 78 60 54 81 79 78 81 72 66 63 51 49 51 60 65 68 62 58 62 60 66 67 72
83 85 86 73 65 36 47 50 58 36 62 94 95 90 45 54 53 64 98 100 87 76 83 100 98 98 80 58 66 64 63 63 63 71 67 68 71 84 84 83 65 68 67 86 69 68 100
90 100 99 86 90 82 48 45 37 39 34 37 88 98 83 60 44 33 47 80 98 100 100 78 94 100 100 99 72 57 63 58 51 37 51 53 59 75 45 40 50 68 79 74 64 64 65
100 100 100 100 95 84 80 74 39 35 38 42 32 36 39 94 86 53 63 69 77 100 100 100 87 59 88 98 100 97 85 81 72 70 51 38 38 51 64 78 77 70 98 99 65 57 45
94 97 100 100 100 100 100 77 90 63 47 41 44 49 48 47 58 60 88 87 77 84 100 98 98 96 100 100 100 100 100 100 100 100 100 95 89 66 62 66 87 99 100 100 100 100 100
100 100 100 100 100 100 100 100 94 78 85 77 76 69 62 68 66 64 97 99 99 100 100 100 100 99 100 100 100 93 70 69 38 59 54 75 100 100 100 99 92 68 81 94 96 100 100